Time,TemperatureF,DewpointF,PressureIn,WindDirection,WindDirectionDegrees,WindSpeedMPH,WindSpeedGustMPH,Humidity,HourlyPrecipIn,Conditions,Clouds,dailyrainin,SoftwareType,DateUTC
2013-03-12 00:01:00,35.4,21.3,30.12,NNW,338,1.3,5.4,56,0.00,,SKC,0.00,VWS V14.01,2013-03-12 05:01:00,
2013-03-12 00:02:00,35.4,21.3,30.12,WSW,248,2.5,9.8,56,0.00,,SKC,0.00,VWS V14.01,2013-03-12 05:02:00,
2013-03-12 00:03:00,35.2,21.1,30.12,WSW,248,5.6,22.4,56,0.00,,SKC,0.00,VWS V14.01,2013-03-12 05:03:00,
2013-03-12 00:04:00,35.2,21.1,30.12,SW,225,3.1,12.5,56,0.00,,SKC,0.00,VWS V14.01,2013-03-12 05:04:00,
2013-03-12 00:05:00,35.2,21.1,30.12,SW,225,2.5,9.8,56,0.00,,SKC,0.00,VWS V14.01,2013-03-12 05:05:00,
2013-03-12 00:06:00,35.2,21.1,30.12,East,90,1.6,6.3,56,0.00,,SKC,0.00,VWS V14.01,2013-03-12 05:06:00,
2013-03-12 00:07:00,35.2,21.1,30.12,WSW,248,1.3,5.4,56,0.00,,SKC,0.00,VWS V14.01,2013-03-12 05:07:00,
2013-03-12 00:08:00,35.2,21.1,30.12,SE,135,3.4,13.4,56,0.00,,SKC,0.00,VWS V14.01,2013-03-12 05:08:00,
2013-03-12 00:09:00,35.2,21.1,30.12,WNW,292,3.1,12.5,56,0.00,,SKC,0.00,VWS V14.01,2013-03-12 05:09:00,
2013-03-12 00:10:00,35.2,21.1,30.12,SSW,202,2.0,8.1,56,0.00,,SKC,0.00,VWS V14.01,2013-03-12 05:10:00,
2013-03-12 00:11:00,35.2,21.1,30.12,WSW,248,2.9,11.6,56,0.00,,SKC,0.00,VWS V14.01,2013-03-12 05:11:00,
2013-03-12 00:12:00,35.2,21.1,30.12,SW,225,3.1,12.5,56,0.00,,SKC,0.00,VWS V14.01,2013-03-12 05:12:00,
2013-03-12 00:13:00,35.2,21.1,30.12,West,270,2.7,10.7,56,0.00,,SKC,0.00,VWS V14.01,2013-03-12 05:13:00,
2013-03-12 00:14:00,35.2,21.1,30.12,WSW,248,2.7,10.7,56,0.00,,SKC,0.00,VWS V14.01,2013-03-12 05:14:00,
2013-03-12 00:15:00,35.2,21.1,30.12,WSW,248,1.1,4.5,56,0.00,,SKC,0.00,VWS V14.01,2013-03-12 05:15:00,
2013-03-12 00:16:00,35.2,21.1,30.12,WSW,248,1.6,6.3,56,0.00,,SKC,0.00,VWS V14.01,2013-03-12 05:16:00,
2013-03-12 00:17:00,35.2,21.1,30.12,WSW,248,1.3,5.4,56,0.00,,SKC,0.00,VWS V14.01,2013-03-12 05:17:00,
2013-03-12 00:18:00,35.2,21.1,30.12,WSW,248,3.4,13.4,56,0.00,,SKC,0.00,VWS V14.01,2013-03-12 05:18:00,
2013-03-12 00:20:00,35.2,21.1,30.12,WSW,248,2.7,10.7,56,0.00,,SKC,0.00,VWS V14.01,2013-03-12 05:20:00,
2013-03-12 00:21:00,35.1,21.4,30.12,SW,225,2.5,9.8,57,0.00,,SKC,0.00,VWS V14.01,2013-03-12 05:21:00,
2013-03-12 00:22:00,35.1,21.4,30.12,SW,225,2.5,9.8,57,0.00,,SKC,0.00,VWS V14.01,2013-03-12 05:22:00,
2013-03-12 00:23:00,35.1,21.4,30.12,SW,225,6.5,26.0,57,0.00,,SKC,0.00,VWS V14.01,2013-03-12 05:23:00,
2013-03-12 00:25:00,35.1,21.4,30.12,SW,225,4.0,16.1,57,0.00,,SKC,0.00,VWS V14.01,2013-03-12 05:25:00,
2013-03-12 00:26:00,35.1,21.0,30.12,WSW,248,3.1,12.5,56,0.00,,SKC,0.00,VWS V14.01,2013-03-12 05:26:00,
2013-03-12 00:27:00,35.1,21.0,30.12,SSW,202,2.9,11.6,56,0.00,,SKC,0.00,VWS V14.01,2013-03-12 05:27:00,
2013-03-12 00:28:00,34.9,20.8,30.12,WSW,248,2.7,10.7,56,0.00,,SKC,0.00,VWS V14.01,2013-03-12 05:28:00,
2013-03-12 00:29:00,34.9,20.8,30.12,SW,225,3.6,14.3,56,0.00,,SKC,0.00,VWS V14.01,2013-03-12 05:29:00,
2013-03-12 00:30:00,34.7,20.6,30.12,WSW,248,1.6,6.3,56,0.00,,SKC,0.00,VWS V14.01,2013-03-12 05:30:00,
2013-03-12 00:31:00,34.7,20.6,30.12,WSW,248,2.7,10.7,56,0.00,,SKC,0.00,VWS V14.01,2013-03-12 05:31:00,
2013-03-12 00:32:00,34.7,20.6,30.12,West,270,4.0,16.1,56,0.00,,SKC,0.00,VWS V14.01,2013-03-12 05:32:00,
2013-03-12 00:33:00,34.7,20.6,30.12,WSW,248,3.4,13.4,56,0.00,,SKC,0.00,VWS V14.01,2013-03-12 05:33:00,
2013-03-12 00:34:00,34.7,20.6,30.12,WNW,292,2.2,9.0,56,0.00,,SKC,0.00,VWS V14.01,2013-03-12 05:34:00,
2013-03-12 00:35:00,34.5,20.5,30.12,NW,315,1.6,6.3,56,0.00,,SKC,0.00,VWS V14.01,2013-03-12 05:35:00,
2013-03-12 00:36:00,34.5,20.5,30.12,SSW,202,3.8,15.2,56,0.00,,SKC,0.00,VWS V14.01,2013-03-12 05:36:00,
2013-03-12 00:37:00,34.5,20.5,30.12,West,270,3.6,14.3,56,0.00,,SKC,0.00,VWS V14.01,2013-03-12 05:37:00,
2013-03-12 00:38:00,34.5,20.5,30.12,WSW,248,2.9,11.6,56,0.00,,SKC,0.00,VWS V14.01,2013-03-12 05:38:00,
2013-03-12 00:39:00,34.5,20.5,30.12,WSW,248,2.5,9.8,56,0.00,,SKC,0.00,VWS V14.01,2013-03-12 05:39:00,
2013-03-12 00:40:00,34.5,20.5,30.12,NW,315,2.5,9.8,56,0.00,,SKC,0.00,VWS V14.01,2013-03-12 05:40:00,
2013-03-12 00:41:00,34.5,20.5,30.12,WSW,248,4.0,16.1,56,0.00,,SKC,0.00,VWS V14.01,2013-03-12 05:41:00,
2013-03-12 00:42:00,34.5,20.5,30.12,WSW,248,3.4,13.4,56,0.00,,SKC,0.00,VWS V14.01,2013-03-12 05:42:00,
2013-03-12 00:43:00,34.5,20.5,30.12,WSW,248,2.5,9.8,56,0.00,,SKC,0.00,VWS V14.01,2013-03-12 05:43:00,
2013-03-12 00:44:00,34.3,20.3,30.12,WSW,248,3.1,12.5,56,0.00,,SKC,0.00,VWS V14.01,2013-03-12 05:44:00,
2013-03-12 00:46:00,34.3,20.3,30.12,West,270,3.6,14.3,56,0.00,,SKC,0.00,VWS V14.01,2013-03-12 05:46:00,
2013-03-12 00:47:00,34.3,20.3,30.12,WSW,248,5.4,21.5,56,0.00,,SKC,0.00,VWS V14.01,2013-03-12 05:47:00,
2013-03-12 00:48:00,34.3,20.3,30.12,West,270,4.9,19.7,56,0.00,,SKC,0.00,VWS V14.01,2013-03-12 05:48:00,
2013-03-12 00:49:00,34.3,20.3,30.12,West,270,2.2,9.0,56,0.00,,SKC,0.00,VWS V14.01,2013-03-12 05:49:00,
2013-03-12 00:50:00,34.2,20.1,30.12,West,270,2.0,8.1,56,0.00,,SKC,0.00,VWS V14.01,2013-03-12 05:50:00,
2013-03-12 00:51:00,34.2,20.1,30.12,SW,225,2.9,11.6,56,0.00,,SKC,0.00,VWS V14.01,2013-03-12 05:51:00,
2013-03-12 00:52:00,34.2,20.1,30.12,WSW,248,2.5,9.8,56,0.00,,SKC,0.00,VWS V14.01,2013-03-12 05:52:00,
2013-03-12 00:53:00,34.2,20.1,30.12,WSW,248,1.3,5.4,56,0.00,,SKC,0.00,VWS V14.01,2013-03-12 05:53:00,
2013-03-12 00:54:00,34.2,20.1,30.12,WSW,248,2.0,8.1,56,0.00,,SKC,0.00,VWS V14.01,2013-03-12 05:54:00,
2013-03-12 00:55:00,34.0,20.0,30.12,West,270,6.5,26.0,56,0.00,,SKC,0.00,VWS V14.01,2013-03-12 05:55:00,
2013-03-12 00:56:00,34.0,20.0,30.12,SSW,202,1.3,5.4,56,0.00,,SKC,0.00,VWS V14.01,2013-03-12 05:56:00,
2013-03-12 00:57:00,34.0,20.0,30.12,SW,225,2.7,10.7,56,0.00,,SKC,0.00,VWS V14.01,2013-03-12 05:57:00,
2013-03-12 00:58:00,34.0,20.0,30.12,West,270,2.0,8.1,56,0.00,,SKC,0.00,VWS V14.01,2013-03-12 05:58:00,
2013-03-12 00:59:00,34.0,20.0,30.12,SW,225,6.0,24.2,56,0.00,,SKC,0.00,VWS V14.01,2013-03-12 05:59:00,
2013-03-12 01:00:00,34.0,20.4,30.12,West,270,3.6,14.3,57,0.00,,SKC,0.00,VWS V14.01,2013-03-12 06:00:00,
2013-03-12 01:01:00,34.0,20.4,30.12,WSW,248,2.7,10.7,57,0.00,,SKC,0.00,VWS V14.01,2013-03-12 06:01:00,
2013-03-12 01:02:00,34.0,20.4,30.12,WSW,248,3.6,14.3,57,0.00,,SKC,0.00,VWS V14.01,2013-03-12 06:02:00,
2013-03-12 01:03:00,33.8,20.2,30.12,NW,315,2.7,10.7,57,0.00,,SKC,0.00,VWS V14.01,2013-03-12 06:03:00,
2013-03-12 01:04:00,33.8,20.2,30.12,SW,225,2.2,9.0,57,0.00,,SKC,0.00,VWS V14.01,2013-03-12 06:04:00,
2013-03-12 01:05:00,33.8,20.2,30.12,SW,225,1.3,5.4,57,0.00,,SKC,0.00,VWS V14.01,2013-03-12 06:05:00,
2013-03-12 01:06:00,33.8,20.2,30.12,West,270,2.5,9.8,57,0.00,,SKC,0.00,VWS V14.01,2013-03-12 06:06:00,
2013-03-12 01:07:00,33.8,20.2,30.12,WNW,292,2.9,11.6,57,0.00,,SKC,0.00,VWS V14.01,2013-03-12 06:07:00,
2013-03-12 01:08:00,33.8,20.2,30.12,SW,225,1.3,5.4,57,0.00,,SKC,0.00,VWS V14.01,2013-03-12 06:08:00,
2013-03-12 01:09:00,33.6,20.0,30.12,West,270,1.1,4.5,57,0.00,,SKC,0.00,VWS V14.01,2013-03-12 06:09:00,
2013-03-12 01:10:00,33.6,20.0,30.12,SW,225,1.6,6.3,57,0.00,,SKC,0.00,VWS V14.01,2013-03-12 06:10:00,
2013-03-12 01:11:00,33.6,20.0,30.12,WNW,292,1.1,4.5,57,0.00,,SKC,0.00,VWS V14.01,2013-03-12 06:11:00,
2013-03-12 01:12:00,33.6,20.0,30.12,WSW,248,0.0,0.0,57,0.00,,SKC,0.00,VWS V14.01,2013-03-12 06:12:00,
2013-03-12 01:13:00,33.4,19.9,30.12,SW,225,1.1,4.5,57,0.00,,SKC,0.00,VWS V14.01,2013-03-12 06:13:00,
2013-03-12 01:14:00,33.3,20.1,30.12,West,270,2.0,8.1,58,0.00,,SKC,0.00,VWS V14.01,2013-03-12 06:14:00,
2013-03-12 01:15:00,33.3,20.1,30.12,NNE,22,0.0,0.0,58,0.00,,SKC,0.00,VWS V14.01,2013-03-12 06:15:00,
2013-03-12 01:16:00,33.3,20.1,30.12,WSW,248,0.0,0.0,58,0.00,,SKC,0.00,VWS V14.01,2013-03-12 06:16:00,
2013-03-12 01:17:00,33.3,20.1,30.12,West,270,2.0,8.1,58,0.00,,SKC,0.00,VWS V14.01,2013-03-12 06:17:00,
2013-03-12 01:18:00,33.3,20.1,30.12,SSE,158,1.1,4.5,58,0.00,,SKC,0.00,VWS V14.01,2013-03-12 06:18:00,
2013-03-12 01:19:00,33.3,20.1,30.12,West,270,3.1,12.5,58,0.00,,SKC,0.00,VWS V14.01,2013-03-12 06:19:00,
2013-03-12 01:20:00,33.3,20.1,30.12,WSW,248,1.6,6.3,58,0.00,,SKC,0.00,VWS V14.01,2013-03-12 06:20:00,
2013-03-12 01:21:00,33.3,20.1,30.12,WSW,248,2.0,8.1,58,0.00,,SKC,0.00,VWS V14.01,2013-03-12 06:21:00,
2013-03-12 01:22:00,33.1,19.9,30.12,WSW,248,1.6,6.3,58,0.00,,SKC,0.00,VWS V14.01,2013-03-12 06:22:00,
2013-03-12 01:23:00,33.1,19.9,30.12,WSW,248,1.3,5.4,58,0.00,,SKC,0.00,VWS V14.01,2013-03-12 06:23:00,
2013-03-12 01:24:00,32.9,19.8,30.12,WSW,248,2.0,8.1,58,0.00,,SKC,0.00,VWS V14.01,2013-03-12 06:24:00,
2013-03-12 01:25:00,32.9,19.8,30.12,WSW,248,0.9,3.6,58,0.00,,SKC,0.00,VWS V14.01,2013-03-12 06:25:00,
2013-03-12 01:27:00,32.9,19.8,30.12,SW,225,1.3,5.4,58,0.00,,SKC,0.00,VWS V14.01,2013-03-12 06:27:00,
2013-03-12 01:28:00,32.7,19.6,30.12,SW,225,1.1,4.5,58,0.00,,SKC,0.00,VWS V14.01,2013-03-12 06:28:00,
2013-03-12 01:29:00,32.7,19.6,30.12,SW,225,0.0,0.0,58,0.00,,SKC,0.00,VWS V14.01,2013-03-12 06:29:00,
2013-03-12 01:30:00,32.5,19.8,30.12,WSW,248,1.3,5.4,59,0.00,,SKC,0.00,VWS V14.01,2013-03-12 06:30:00,
2013-03-12 01:31:00,32.5,19.8,30.12,SW,225,0.0,0.0,59,0.00,,SKC,0.00,VWS V14.01,2013-03-12 06:31:00,
2013-03-12 01:32:00,32.5,19.8,30.12,SW,225,0.0,0.0,59,0.00,,SKC,0.00,VWS V14.01,2013-03-12 06:32:00,
2013-03-12 01:33:00,32.5,19.8,30.12,South,180,0.0,0.0,59,0.00,,SKC,0.00,VWS V14.01,2013-03-12 06:33:00,
2013-03-12 01:34:00,32.4,19.6,30.12,South,180,0.0,0.0,59,0.00,,SKC,0.00,VWS V14.01,2013-03-12 06:34:00,
2013-03-12 01:35:00,32.4,19.6,30.12,South,180,0.0,0.0,59,0.00,,SKC,0.00,VWS V14.01,2013-03-12 06:35:00,
2013-03-12 01:36:00,32.4,19.6,30.12,South,180,0.0,0.0,59,0.00,,SKC,0.00,VWS V14.01,2013-03-12 06:36:00,
2013-03-12 01:37:00,32.2,19.5,30.12,South,180,0.0,0.0,59,0.00,,SKC,0.00,VWS V14.01,2013-03-12 06:37:00,
2013-03-12 01:38:00,31.8,19.1,30.12,South,180,0.0,0.0,59,0.00,,SKC,0.00,VWS V14.01,2013-03-12 06:38:00,
2013-03-12 01:39:00,31.8,19.1,30.12,South,180,0.0,0.0,59,0.00,,SKC,0.00,VWS V14.01,2013-03-12 06:39:00,
2013-03-12 01:40:00,31.8,19.1,30.12,South,180,0.0,0.0,59,0.00,,SKC,0.00,VWS V14.01,2013-03-12 06:40:00,
2013-03-12 01:41:00,31.8,19.1,30.12,South,180,0.0,0.0,59,0.00,,SKC,0.00,VWS V14.01,2013-03-12 06:41:00,
2013-03-12 01:42:00,31.5,19.2,30.12,South,180,0.0,0.0,60,0.00,,SKC,0.00,VWS V14.01,2013-03-12 06:42:00,
2013-03-12 01:43:00,31.5,19.2,30.12,South,180,0.0,0.0,60,0.00,,SKC,0.00,VWS V14.01,2013-03-12 06:43:00,
2013-03-12 01:44:00,31.5,19.2,30.12,South,180,0.0,0.0,60,0.00,,SKC,0.00,VWS V14.01,2013-03-12 06:44:00,
2013-03-12 01:45:00,30.9,18.7,30.12,South,180,0.0,0.0,60,0.00,,SKC,0.00,VWS V14.01,2013-03-12 06:45:00,
2013-03-12 01:46:00,30.9,19.1,30.12,South,180,0.0,0.0,61,0.00,,SKC,0.00,VWS V14.01,2013-03-12 06:46:00,
2013-03-12 01:47:00,30.7,18.9,30.12,South,180,0.0,0.0,61,0.00,,SKC,0.00,VWS V14.01,2013-03-12 06:47:00,
2013-03-12 01:48:00,30.7,18.9,30.12,South,180,0.0,0.0,61,0.00,,SKC,0.00,VWS V14.01,2013-03-12 06:48:00,
2013-03-12 01:49:00,30.6,18.7,30.12,WSW,248,1.6,6.3,61,0.00,,SKC,0.00,VWS V14.01,2013-03-12 06:49:00,
2013-03-12 01:50:00,30.6,18.7,30.12,SW,225,2.5,9.8,61,0.00,,SKC,0.00,VWS V14.01,2013-03-12 06:50:00,
2013-03-12 01:51:00,30.7,18.9,30.12,WSW,248,2.2,9.0,61,0.00,,SKC,0.00,VWS V14.01,2013-03-12 06:51:00,
2013-03-12 01:52:00,30.7,18.9,30.12,SW,225,0.9,3.6,61,0.00,,SKC,0.00,VWS V14.01,2013-03-12 06:52:00,
2013-03-12 01:53:00,30.7,18.9,30.12,WSW,248,2.2,9.0,61,0.00,,SKC,0.00,VWS V14.01,2013-03-12 06:53:00,
2013-03-12 01:54:00,30.7,18.9,30.12,WSW,248,2.0,8.1,61,0.00,,SKC,0.00,VWS V14.01,2013-03-12 06:54:00,
2013-03-12 01:55:00,30.7,18.9,30.12,WSW,248,2.7,10.7,61,0.00,,SKC,0.00,VWS V14.01,2013-03-12 06:55:00,
2013-03-12 01:56:00,30.7,18.9,30.12,SW,225,2.5,9.8,61,0.00,,SKC,0.00,VWS V14.01,2013-03-12 06:56:00,
2013-03-12 01:57:00,31.1,20.0,30.12,SW,225,2.0,8.1,63,0.00,,SKC,0.00,VWS V14.01,2013-03-12 06:57:00,
2013-03-12 01:58:00,31.1,20.0,30.12,West,270,2.9,11.6,63,0.00,,SKC,0.00,VWS V14.01,2013-03-12 06:58:00,
2013-03-12 01:59:00,31.3,20.5,30.12,WSW,248,2.7,10.7,64,0.00,,SKC,0.00,VWS V14.01,2013-03-12 06:59:00,
2013-03-12 02:00:00,31.5,20.7,30.12,SSW,202,4.9,19.7,64,0.00,,SKC,0.00,VWS V14.01,2013-03-12 07:00:00,
2013-03-12 02:01:00,31.5,21.1,30.12,WSW,248,2.5,9.8,65,0.00,,SKC,0.00,VWS V14.01,2013-03-12 07:01:00,
2013-03-12 02:02:00,31.6,21.2,30.15,WSW,248,2.7,10.7,65,0.00,,SKC,0.00,VWS V14.01,2013-03-12 07:02:00,
2013-03-12 02:03:00,31.6,21.2,30.15,WSW,248,3.8,15.2,65,0.00,,SKC,0.00,VWS V14.01,2013-03-12 07:03:00,
2013-03-12 02:04:00,31.6,21.2,30.15,WSW,248,2.0,8.1,65,0.00,,SKC,0.00,VWS V14.01,2013-03-12 07:04:00,
2013-03-12 02:05:00,31.6,21.2,30.15,WSW,248,2.0,8.1,65,0.00,,SKC,0.00,VWS V14.01,2013-03-12 07:05:00,
2013-03-12 02:06:00,31.6,21.2,30.15,WSW,248,1.6,6.3,65,0.00,,SKC,0.00,VWS V14.01,2013-03-12 07:06:00,
2013-03-12 02:07:00,31.5,21.1,30.15,WSW,248,2.0,8.1,65,0.00,,SKC,0.00,VWS V14.01,2013-03-12 07:07:00,
2013-03-12 02:08:00,31.5,21.1,30.15,WSW,248,1.1,4.5,65,0.00,,SKC,0.00,VWS V14.01,2013-03-12 07:08:00,
2013-03-12 02:09:00,31.5,21.1,30.15,WSW,248,2.2,9.0,65,0.00,,SKC,0.00,VWS V14.01,2013-03-12 07:09:00,
2013-03-12 02:10:00,31.5,21.1,30.15,WSW,248,1.6,6.3,65,0.00,,SKC,0.00,VWS V14.01,2013-03-12 07:10:00,
2013-03-12 02:11:00,31.5,21.1,30.15,WSW,248,0.9,3.6,65,0.00,,SKC,0.00,VWS V14.01,2013-03-12 07:11:00,
2013-03-12 02:12:00,31.5,21.1,30.15,WSW,248,2.5,9.8,65,0.00,,SKC,0.00,VWS V14.01,2013-03-12 07:12:00,
2013-03-12 02:13:00,31.5,21.1,30.15,West,270,1.3,5.4,65,0.00,,SKC,0.00,VWS V14.01,2013-03-12 07:13:00,
2013-03-12 02:14:00,31.5,21.1,30.15,WSW,248,0.9,3.6,65,0.00,,SKC,0.00,VWS V14.01,2013-03-12 07:14:00,
2013-03-12 02:15:00,31.3,20.9,30.15,SW,225,2.2,9.0,65,0.00,,SKC,0.00,VWS V14.01,2013-03-12 07:15:00,
2013-03-12 02:17:00,31.3,20.9,30.15,SW,225,2.9,11.6,65,0.00,,SKC,0.00,VWS V14.01,2013-03-12 07:17:00,
2013-03-12 02:18:00,31.3,20.5,30.15,WSW,248,1.3,5.4,64,0.00,,SKC,0.00,VWS V14.01,2013-03-12 07:18:00,
2013-03-12 02:19:00,31.3,20.5,30.15,West,270,2.0,8.1,64,0.00,,SKC,0.00,VWS V14.01,2013-03-12 07:19:00,
2013-03-12 02:20:00,31.3,20.5,30.15,WSW,248,2.9,11.6,64,0.00,,SKC,0.00,VWS V14.01,2013-03-12 07:20:00,
2013-03-12 02:21:00,31.3,20.5,30.15,WSW,248,0.0,0.0,64,0.00,,SKC,0.00,VWS V14.01,2013-03-12 07:21:00,
2013-03-12 02:22:00,31.3,20.5,30.15,WSW,248,1.6,6.3,64,0.00,,SKC,0.00,VWS V14.01,2013-03-12 07:22:00,
2013-03-12 02:23:00,31.3,20.5,30.15,WSW,248,0.0,0.0,64,0.00,,SKC,0.00,VWS V14.01,2013-03-12 07:23:00,
2013-03-12 02:24:00,31.3,20.5,30.15,WSW,248,2.2,9.0,64,0.00,,SKC,0.00,VWS V14.01,2013-03-12 07:24:00,
2013-03-12 02:25:00,31.3,20.5,30.15,WSW,248,0.0,0.0,64,0.00,,SKC,0.00,VWS V14.01,2013-03-12 07:25:00,
2013-03-12 02:26:00,31.1,20.4,30.15,WSW,248,0.0,0.0,64,0.00,,SKC,0.00,VWS V14.01,2013-03-12 07:26:00,
2013-03-12 02:27:00,31.1,20.4,30.15,WSW,248,2.0,8.1,64,0.00,,SKC,0.00,VWS V14.01,2013-03-12 07:27:00,
2013-03-12 02:28:00,31.1,20.4,30.15,WSW,248,2.5,9.8,64,0.00,,SKC,0.00,VWS V14.01,2013-03-12 07:28:00,
2013-03-12 02:29:00,31.1,20.4,30.15,West,270,0.0,0.0,64,0.00,,SKC,0.00,VWS V14.01,2013-03-12 07:29:00,
2013-03-12 02:30:00,31.1,20.4,30.15,West,270,0.9,3.6,64,0.00,,SKC,0.00,VWS V14.01,2013-03-12 07:30:00,
2013-03-12 02:31:00,31.1,20.4,30.15,SW,225,0.0,0.0,64,0.00,,SKC,0.00,VWS V14.01,2013-03-12 07:31:00,
2013-03-12 02:32:00,31.1,20.4,30.15,SW,225,0.0,0.0,64,0.00,,SKC,0.00,VWS V14.01,2013-03-12 07:32:00,
2013-03-12 02:33:00,31.1,20.4,30.15,West,270,0.0,0.0,64,0.00,,SKC,0.00,VWS V14.01,2013-03-12 07:33:00,
2013-03-12 02:34:00,31.1,20.4,30.15,WSW,248,3.4,13.4,64,0.00,,SKC,0.00,VWS V14.01,2013-03-12 07:34:00,
2013-03-12 02:37:00,31.1,20.7,30.15,WSW,248,1.6,6.3,65,0.00,,SKC,0.00,VWS V14.01,2013-03-12 07:37:00,
2013-03-12 02:38:00,31.1,20.7,30.15,WSW,248,1.3,5.4,65,0.00,,SKC,0.00,VWS V14.01,2013-03-12 07:38:00,
2013-03-12 02:39:00,31.1,20.7,30.15,WSW,248,2.2,9.0,65,0.00,,SKC,0.00,VWS V14.01,2013-03-12 07:39:00,
2013-03-12 02:40:00,31.1,20.7,30.15,WSW,248,1.6,6.3,65,0.00,,SKC,0.00,VWS V14.01,2013-03-12 07:40:00,
2013-03-12 02:41:00,31.1,20.7,30.15,WSW,248,2.0,8.1,65,0.00,,SKC,0.00,VWS V14.01,2013-03-12 07:41:00,
2013-03-12 02:42:00,30.9,20.5,30.15,WSW,248,2.7,10.7,65,0.00,,SKC,0.00,VWS V14.01,2013-03-12 07:42:00,
2013-03-12 02:43:00,30.9,20.5,30.15,West,270,2.2,9.0,65,0.00,,SKC,0.00,VWS V14.01,2013-03-12 07:43:00,
2013-03-12 02:44:00,30.9,20.5,30.15,WSW,248,1.6,6.3,65,0.00,,SKC,0.00,VWS V14.01,2013-03-12 07:44:00,
2013-03-12 02:45:00,30.9,20.5,30.15,SW,225,1.1,4.5,65,0.00,,SKC,0.00,VWS V14.01,2013-03-12 07:45:00,
2013-03-12 02:46:00,30.9,20.5,30.15,WNW,292,2.0,8.1,65,0.00,,SKC,0.00,VWS V14.01,2013-03-12 07:46:00,
2013-03-12 02:47:00,30.9,20.5,30.15,WSW,248,2.5,9.8,65,0.00,,SKC,0.00,VWS V14.01,2013-03-12 07:47:00,
2013-03-12 02:48:00,30.9,20.9,30.15,SW,225,1.3,5.4,66,0.00,,SKC,0.00,VWS V14.01,2013-03-12 07:48:00,
2013-03-12 02:49:00,30.7,20.7,30.15,WSW,248,1.3,5.4,66,0.00,,SKC,0.00,VWS V14.01,2013-03-12 07:49:00,
2013-03-12 02:50:00,30.7,20.7,30.15,WSW,248,0.9,3.6,66,0.00,,SKC,0.00,VWS V14.01,2013-03-12 07:50:00,
2013-03-12 02:51:00,30.7,20.4,30.15,WSW,248,0.9,3.6,65,0.00,,SKC,0.00,VWS V14.01,2013-03-12 07:51:00,
2013-03-12 02:52:00,30.7,20.4,30.15,WSW,248,0.0,0.0,65,0.00,,SKC,0.00,VWS V14.01,2013-03-12 07:52:00,
2013-03-12 02:53:00,30.6,20.2,30.15,SW,225,1.3,5.4,65,0.00,,SKC,0.00,VWS V14.01,2013-03-12 07:53:00,
2013-03-12 02:54:00,30.6,20.2,30.15,WSW,248,0.0,0.0,65,0.00,,SKC,0.00,VWS V14.01,2013-03-12 07:54:00,
2013-03-12 02:55:00,30.6,20.6,30.15,WSW,248,0.0,0.0,66,0.00,,SKC,0.00,VWS V14.01,2013-03-12 07:55:00,
2013-03-12 02:56:00,30.4,20.4,30.15,West,270,2.7,10.7,66,0.00,,SKC,0.00,VWS V14.01,2013-03-12 07:56:00,
2013-03-12 02:57:00,30.4,20.4,30.15,West,270,0.9,3.6,66,0.00,,SKC,0.00,VWS V14.01,2013-03-12 07:57:00,
2013-03-12 02:58:00,30.4,20.4,30.15,WSW,248,0.0,0.0,66,0.00,,SKC,0.00,VWS V14.01,2013-03-12 07:58:00,
2013-03-12 02:59:00,30.4,20.4,30.15,SW,225,1.6,6.3,66,0.00,,SKC,0.00,VWS V14.01,2013-03-12 07:59:00,
2013-03-12 03:00:00,30.4,20.4,30.15,West,270,1.1,4.5,66,0.00,,SKC,0.00,VWS V14.01,2013-03-12 08:00:00,
2013-03-12 03:01:00,30.4,20.4,30.15,West,270,2.0,8.1,66,0.00,,SKC,0.00,VWS V14.01,2013-03-12 08:01:00,
2013-03-12 03:02:00,30.4,20.4,30.15,WSW,248,2.5,9.8,66,0.00,,SKC,0.00,VWS V14.01,2013-03-12 08:02:00,
2013-03-12 03:03:00,30.4,20.4,30.15,WSW,248,1.1,4.5,66,0.00,,SKC,0.00,VWS V14.01,2013-03-12 08:03:00,
2013-03-12 03:05:00,30.4,20.4,30.15,WSW,248,0.0,0.0,66,0.00,,SKC,0.00,VWS V14.01,2013-03-12 08:05:00,
2013-03-12 03:06:00,30.4,20.4,30.15,WSW,248,1.1,4.5,66,0.00,,SKC,0.00,VWS V14.01,2013-03-12 08:06:00,
2013-03-12 03:07:00,30.4,20.4,30.15,WSW,248,1.6,6.3,66,0.00,,SKC,0.00,VWS V14.01,2013-03-12 08:07:00,
2013-03-12 03:08:00,30.4,20.4,30.15,WSW,248,1.6,6.3,66,0.00,,SKC,0.00,VWS V14.01,2013-03-12 08:08:00,
2013-03-12 03:09:00,30.4,20.8,30.15,WSW,248,0.9,3.6,67,0.00,,SKC,0.00,VWS V14.01,2013-03-12 08:09:00,
2013-03-12 03:10:00,30.2,20.6,30.15,West,270,0.0,0.0,67,0.00,,SKC,0.00,VWS V14.01,2013-03-12 08:10:00,
2013-03-12 03:11:00,30.2,20.6,30.15,WSW,248,0.0,0.0,67,0.00,,SKC,0.00,VWS V14.01,2013-03-12 08:11:00,
2013-03-12 03:12:00,30.2,20.6,30.15,West,270,1.3,5.4,67,0.00,,SKC,0.00,VWS V14.01,2013-03-12 08:12:00,
2013-03-12 03:13:00,30.2,20.6,30.15,WSW,248,0.0,0.0,67,0.00,,SKC,0.00,VWS V14.01,2013-03-12 08:13:00,
2013-03-12 03:14:00,30.2,20.6,30.15,West,270,1.3,5.4,67,0.00,,SKC,0.00,VWS V14.01,2013-03-12 08:14:00,
2013-03-12 03:15:00,30.2,20.6,30.15,NNW,338,0.9,3.6,67,0.00,,SKC,0.00,VWS V14.01,2013-03-12 08:15:00,
2013-03-12 03:17:00,30.2,20.6,30.15,WNW,292,2.5,9.8,67,0.00,,SKC,0.00,VWS V14.01,2013-03-12 08:17:00,
2013-03-12 03:18:00,30.2,20.6,30.15,West,270,0.0,0.0,67,0.00,,SKC,0.00,VWS V14.01,2013-03-12 08:18:00,
2013-03-12 03:19:00,30.2,20.6,30.15,NNW,338,0.0,0.0,67,0.00,,SKC,0.00,VWS V14.01,2013-03-12 08:19:00,
2013-03-12 03:20:00,30.0,20.8,30.15,WSW,248,0.9,3.6,68,0.00,,SKC,0.00,VWS V14.01,2013-03-12 08:20:00,
2013-03-12 03:21:00,30.0,20.8,30.15,WSW,248,0.0,0.0,68,0.00,,SKC,0.00,VWS V14.01,2013-03-12 08:21:00,
2013-03-12 03:22:00,30.0,20.8,30.15,WSW,248,0.0,0.0,68,0.00,,SKC,0.00,VWS V14.01,2013-03-12 08:22:00,
2013-03-12 03:23:00,29.8,20.6,30.15,WSW,248,0.0,0.0,68,0.00,,SKC,0.00,VWS V14.01,2013-03-12 08:23:00,
2013-03-12 03:24:00,29.8,20.6,30.15,WSW,248,2.0,8.1,68,0.00,,SKC,0.00,VWS V14.01,2013-03-12 08:24:00,
2013-03-12 03:25:00,29.8,20.6,30.15,WSW,248,3.1,12.5,68,0.00,,SKC,0.00,VWS V14.01,2013-03-12 08:25:00,
2013-03-12 03:26:00,29.8,20.6,30.15,WSW,248,1.3,5.4,68,0.00,,SKC,0.00,VWS V14.01,2013-03-12 08:26:00,
2013-03-12 03:27:00,30.0,20.8,30.15,WSW,248,0.0,0.0,68,0.00,,SKC,0.00,VWS V14.01,2013-03-12 08:27:00,
2013-03-12 03:29:00,30.0,20.8,30.15,WSW,248,2.5,9.8,68,0.00,,SKC,0.00,VWS V14.01,2013-03-12 08:29:00,
2013-03-12 03:30:00,30.0,20.8,30.15,West,270,0.0,0.0,68,0.00,,SKC,0.00,VWS V14.01,2013-03-12 08:30:00,
2013-03-12 03:31:00,29.8,20.6,30.15,WSW,248,0.0,0.0,68,0.00,,SKC,0.00,VWS V14.01,2013-03-12 08:31:00,
2013-03-12 03:33:00,29.8,20.6,30.15,SW,225,0.0,0.0,68,0.00,,SKC,0.00,VWS V14.01,2013-03-12 08:33:00,
2013-03-12 03:34:00,29.7,20.4,30.15,WSW,248,0.0,0.0,68,0.00,,SKC,0.00,VWS V14.01,2013-03-12 08:34:00,
2013-03-12 03:35:00,29.7,20.4,30.15,WSW,248,1.1,4.5,68,0.00,,SKC,0.00,VWS V14.01,2013-03-12 08:35:00,
2013-03-12 03:36:00,29.7,20.4,30.15,SW,225,1.3,5.4,68,0.00,,SKC,0.00,VWS V14.01,2013-03-12 08:36:00,
2013-03-12 03:37:00,29.5,20.2,30.15,SW,225,1.1,4.5,68,0.00,,SKC,0.00,VWS V14.01,2013-03-12 08:37:00,
2013-03-12 03:38:00,29.5,20.2,30.15,SW,225,0.9,3.6,68,0.00,,SKC,0.00,VWS V14.01,2013-03-12 08:38:00,
2013-03-12 03:39:00,29.5,20.6,30.15,SW,225,2.0,8.1,69,0.00,,SKC,0.00,VWS V14.01,2013-03-12 08:39:00,
2013-03-12 03:40:00,29.7,20.8,30.15,WSW,248,3.4,13.4,69,0.00,,SKC,0.00,VWS V14.01,2013-03-12 08:40:00,
2013-03-12 03:41:00,29.7,20.8,30.15,WSW,248,1.3,5.4,69,0.00,,SKC,0.00,VWS V14.01,2013-03-12 08:41:00,
2013-03-12 03:42:00,29.7,20.8,30.15,WSW,248,2.9,11.6,69,0.00,,SKC,0.00,VWS V14.01,2013-03-12 08:42:00,
2013-03-12 03:43:00,29.7,20.8,30.15,WSW,248,2.9,11.6,69,0.00,,SKC,0.00,VWS V14.01,2013-03-12 08:43:00,
2013-03-12 03:44:00,29.8,21.3,30.15,WSW,248,3.1,12.5,70,0.00,,SKC,0.00,VWS V14.01,2013-03-12 08:44:00,
2013-03-12 03:45:00,29.8,21.3,30.15,WSW,248,1.6,6.3,70,0.00,,SKC,0.00,VWS V14.01,2013-03-12 08:45:00,
2013-03-12 03:46:00,29.8,21.3,30.15,WSW,248,2.0,8.1,70,0.00,,SKC,0.00,VWS V14.01,2013-03-12 08:46:00,
2013-03-12 03:47:00,29.8,21.3,30.15,WSW,248,2.0,8.1,70,0.00,,SKC,0.00,VWS V14.01,2013-03-12 08:47:00,
2013-03-12 03:48:00,29.8,21.3,30.15,WSW,248,1.1,4.5,70,0.00,,SKC,0.00,VWS V14.01,2013-03-12 08:48:00,
2013-03-12 03:49:00,29.8,21.3,30.15,WSW,248,1.1,4.5,70,0.00,,SKC,0.00,VWS V14.01,2013-03-12 08:49:00,
2013-03-12 03:50:00,29.8,21.3,30.15,SW,225,1.3,5.4,70,0.00,,SKC,0.00,VWS V14.01,2013-03-12 08:50:00,
2013-03-12 03:51:00,29.7,21.1,30.15,SW,225,1.3,5.4,70,0.00,,SKC,0.00,VWS V14.01,2013-03-12 08:51:00,
2013-03-12 03:52:00,29.7,21.1,30.15,WSW,248,1.3,5.4,70,0.00,,SKC,0.00,VWS V14.01,2013-03-12 08:52:00,
2013-03-12 03:53:00,29.7,21.1,30.15,WSW,248,1.3,5.4,70,0.00,,SKC,0.00,VWS V14.01,2013-03-12 08:53:00,
2013-03-12 03:54:00,29.7,21.1,30.15,WSW,248,1.6,6.3,70,0.00,,SKC,0.00,VWS V14.01,2013-03-12 08:54:00,
2013-03-12 03:55:00,29.7,21.1,30.15,WSW,248,2.7,10.7,70,0.00,,SKC,0.00,VWS V14.01,2013-03-12 08:55:00,
2013-03-12 03:56:00,29.7,21.1,30.15,WSW,248,1.1,4.5,70,0.00,,SKC,0.00,VWS V14.01,2013-03-12 08:56:00,
2013-03-12 03:57:00,29.7,21.1,30.15,WSW,248,2.5,9.8,70,0.00,,SKC,0.00,VWS V14.01,2013-03-12 08:57:00,
2013-03-12 03:58:00,29.7,21.1,30.15,WSW,248,2.5,9.8,70,0.00,,SKC,0.00,VWS V14.01,2013-03-12 08:58:00,
2013-03-12 03:59:00,29.7,21.1,30.15,WSW,248,0.9,3.6,70,0.00,,SKC,0.00,VWS V14.01,2013-03-12 08:59:00,
2013-03-12 04:00:00,29.7,21.1,30.15,WSW,248,2.5,9.8,70,0.00,,SKC,0.00,VWS V14.01,2013-03-12 09:00:00,
2013-03-12 04:01:00,29.7,21.4,30.15,WSW,248,2.0,8.1,71,0.00,,SKC,0.00,VWS V14.01,2013-03-12 09:01:00,
2013-03-12 04:02:00,29.7,21.4,30.15,West,270,1.6,6.3,71,0.00,,SKC,0.00,VWS V14.01,2013-03-12 09:02:00,
2013-03-12 04:03:00,29.7,21.4,30.15,West,270,1.6,6.3,71,0.00,,SKC,0.00,VWS V14.01,2013-03-12 09:03:00,
2013-03-12 04:04:00,29.7,21.4,30.15,WSW,248,1.6,6.3,71,0.00,,SKC,0.00,VWS V14.01,2013-03-12 09:04:00,
2013-03-12 04:05:00,29.7,21.4,30.15,WSW,248,0.0,0.0,71,0.00,,SKC,0.00,VWS V14.01,2013-03-12 09:05:00,
2013-03-12 04:06:00,29.7,21.4,30.15,WSW,248,1.1,4.5,71,0.00,,SKC,0.00,VWS V14.01,2013-03-12 09:06:00,
2013-03-12 04:07:00,29.7,21.4,30.15,WSW,248,2.0,8.1,71,0.00,,SKC,0.00,VWS V14.01,2013-03-12 09:07:00,
2013-03-12 04:08:00,29.7,21.4,30.15,WSW,248,2.0,8.1,71,0.00,,SKC,0.00,VWS V14.01,2013-03-12 09:08:00,
2013-03-12 04:09:00,29.5,21.2,30.15,SW,225,0.0,0.0,71,0.00,,SKC,0.00,VWS V14.01,2013-03-12 09:09:00,
2013-03-12 04:10:00,29.5,21.2,30.15,West,270,1.6,6.3,71,0.00,,SKC,0.00,VWS V14.01,2013-03-12 09:10:00,
2013-03-12 04:11:00,29.5,21.2,30.15,SW,225,1.1,4.5,71,0.00,,SKC,0.00,VWS V14.01,2013-03-12 09:11:00,
2013-03-12 04:12:00,29.5,21.2,30.15,SW,225,1.1,4.5,71,0.00,,SKC,0.00,VWS V14.01,2013-03-12 09:12:00,
2013-03-12 04:13:00,29.5,21.2,30.15,WNW,292,1.6,6.3,71,0.00,,SKC,0.00,VWS V14.01,2013-03-12 09:13:00,
2013-03-12 04:14:00,29.5,21.2,30.15,WSW,248,1.1,4.5,71,0.00,,SKC,0.00,VWS V14.01,2013-03-12 09:14:00,
2013-03-12 04:15:00,29.3,21.1,30.15,WSW,248,1.3,5.4,71,0.00,,SKC,0.00,VWS V14.01,2013-03-12 09:15:00,
2013-03-12 04:16:00,29.3,21.1,30.15,WSW,248,0.0,0.0,71,0.00,,SKC,0.00,VWS V14.01,2013-03-12 09:16:00,
2013-03-12 04:17:00,29.1,20.9,30.15,WSW,248,0.0,0.0,71,0.00,,SKC,0.00,VWS V14.01,2013-03-12 09:17:00,
2013-03-12 04:18:00,29.1,20.9,30.15,WSW,248,0.0,0.0,71,0.00,,SKC,0.00,VWS V14.01,2013-03-12 09:18:00,
2013-03-12 04:19:00,29.1,20.9,30.15,SW,225,1.1,4.5,71,0.00,,SKC,0.00,VWS V14.01,2013-03-12 09:19:00,
2013-03-12 04:20:00,29.1,20.9,30.15,SW,225,0.0,0.0,71,0.00,,SKC,0.00,VWS V14.01,2013-03-12 09:20:00,
2013-03-12 04:21:00,29.1,20.9,30.15,WSW,248,0.0,0.0,71,0.00,,SKC,0.00,VWS V14.01,2013-03-12 09:21:00,
2013-03-12 04:22:00,29.1,20.9,30.15,WSW,248,2.2,9.0,71,0.00,,SKC,0.00,VWS V14.01,2013-03-12 09:22:00,
2013-03-12 04:23:00,29.3,21.1,30.15,WSW,248,1.3,5.4,71,0.00,,SKC,0.00,VWS V14.01,2013-03-12 09:23:00,
2013-03-12 04:24:00,29.3,21.1,30.15,WSW,248,1.3,5.4,71,0.00,,SKC,0.00,VWS V14.01,2013-03-12 09:24:00,
2013-03-12 04:25:00,29.5,21.2,30.15,WSW,248,2.2,9.0,71,0.00,,SKC,0.00,VWS V14.01,2013-03-12 09:25:00,
2013-03-12 04:26:00,29.5,21.2,30.15,West,270,3.4,13.4,71,0.00,,SKC,0.00,VWS V14.01,2013-03-12 09:26:00,
2013-03-12 04:27:00,29.5,21.2,30.15,WSW,248,2.7,10.7,71,0.00,,SKC,0.00,VWS V14.01,2013-03-12 09:27:00,
2013-03-12 04:28:00,29.5,21.2,30.15,WSW,248,2.7,10.7,71,0.00,,SKC,0.00,VWS V14.01,2013-03-12 09:28:00,
2013-03-12 04:29:00,29.5,21.2,30.15,WSW,248,1.6,6.3,71,0.00,,SKC,0.00,VWS V14.01,2013-03-12 09:29:00,
2013-03-12 04:30:00,29.5,21.2,30.15,West,270,1.1,4.5,71,0.00,,SKC,0.00,VWS V14.01,2013-03-12 09:30:00,
2013-03-12 04:31:00,29.5,21.2,30.15,WSW,248,1.6,6.3,71,0.00,,SKC,0.00,VWS V14.01,2013-03-12 09:31:00,
2013-03-12 04:32:00,29.5,21.2,30.15,West,270,1.3,5.4,71,0.00,,SKC,0.00,VWS V14.01,2013-03-12 09:32:00,
2013-03-12 04:33:00,29.5,21.2,30.15,WSW,248,1.1,4.5,71,0.00,,SKC,0.00,VWS V14.01,2013-03-12 09:33:00,
2013-03-12 04:34:00,29.5,21.2,30.15,West,270,2.2,9.0,71,0.00,,SKC,0.00,VWS V14.01,2013-03-12 09:34:00,
2013-03-12 04:35:00,29.7,21.4,30.15,West,270,1.6,6.3,71,0.00,,SKC,0.00,VWS V14.01,2013-03-12 09:35:00,
2013-03-12 04:36:00,29.7,21.4,30.15,West,270,2.7,10.7,71,0.00,,SKC,0.00,VWS V14.01,2013-03-12 09:36:00,
2013-03-12 04:37:00,29.7,21.4,30.15,WNW,292,1.6,6.3,71,0.00,,SKC,0.00,VWS V14.01,2013-03-12 09:37:00,
2013-03-12 04:38:00,29.7,21.4,30.15,WNW,292,1.6,6.3,71,0.00,,SKC,0.00,VWS V14.01,2013-03-12 09:38:00,
2013-03-12 04:39:00,29.7,21.4,30.15,WSW,248,1.3,5.4,71,0.00,,SKC,0.00,VWS V14.01,2013-03-12 09:39:00,
2013-03-12 04:40:00,29.7,21.4,30.15,SW,225,0.0,0.0,71,0.00,,SKC,0.00,VWS V14.01,2013-03-12 09:40:00,
2013-03-12 04:41:00,29.7,21.4,30.15,SW,225,0.0,0.0,71,0.00,,SKC,0.00,VWS V14.01,2013-03-12 09:41:00,
2013-03-12 04:42:00,29.5,21.2,30.15,WSW,248,2.2,9.0,71,0.00,,SKC,0.00,VWS V14.01,2013-03-12 09:42:00,
2013-03-12 04:43:00,29.5,21.2,30.15,WSW,248,2.2,9.0,71,0.00,,SKC,0.00,VWS V14.01,2013-03-12 09:43:00,
2013-03-12 04:44:00,29.5,21.2,30.15,WSW,248,2.5,9.8,71,0.00,,SKC,0.00,VWS V14.01,2013-03-12 09:44:00,
2013-03-12 04:45:00,29.5,21.2,30.15,WSW,248,3.1,12.5,71,0.00,,SKC,0.00,VWS V14.01,2013-03-12 09:45:00,
2013-03-12 04:46:00,29.7,21.4,30.15,SW,225,1.3,5.4,71,0.00,,SKC,0.00,VWS V14.01,2013-03-12 09:46:00,
2013-03-12 04:47:00,29.7,21.4,30.15,SW,225,2.0,8.1,71,0.00,,SKC,0.00,VWS V14.01,2013-03-12 09:47:00,
2013-03-12 04:48:00,29.7,21.4,30.15,WSW,248,2.0,8.1,71,0.00,,SKC,0.00,VWS V14.01,2013-03-12 09:48:00,
2013-03-12 04:49:00,29.5,21.2,30.15,WSW,248,0.0,0.0,71,0.00,,SKC,0.00,VWS V14.01,2013-03-12 09:49:00,
2013-03-12 04:50:00,29.5,21.2,30.15,West,270,0.0,0.0,71,0.00,,SKC,0.00,VWS V14.01,2013-03-12 09:50:00,
2013-03-12 04:51:00,29.5,20.9,30.15,West,270,0.0,0.0,70,0.00,,SKC,0.00,VWS V14.01,2013-03-12 09:51:00,
2013-03-12 04:52:00,29.5,20.9,30.15,West,270,0.0,0.0,70,0.00,,SKC,0.00,VWS V14.01,2013-03-12 09:52:00,
2013-03-12 04:53:00,29.5,20.9,30.15,West,270,0.0,0.0,70,0.00,,SKC,0.00,VWS V14.01,2013-03-12 09:53:00,
2013-03-12 04:54:00,29.3,20.8,30.15,NW,315,2.9,11.6,70,0.00,,SKC,0.00,VWS V14.01,2013-03-12 09:54:00,
2013-03-12 04:55:00,29.3,20.8,30.15,NW,315,1.6,6.3,70,0.00,,SKC,0.00,VWS V14.01,2013-03-12 09:55:00,
2013-03-12 04:56:00,29.3,20.8,30.15,WSW,248,1.1,4.5,70,0.00,,SKC,0.00,VWS V14.01,2013-03-12 09:56:00,
2013-03-12 04:57:00,29.3,20.8,30.15,WSW,248,1.6,6.3,70,0.00,,SKC,0.00,VWS V14.01,2013-03-12 09:57:00,
2013-03-12 04:58:00,29.3,20.7,30.15,WSW,248,2.0,8.1,70,0.00,,SKC,0.00,VWS V14.01,2013-03-12 09:58:00,
2013-03-12 04:59:00,29.3,20.8,30.15,SSW,202,1.1,4.5,70,0.00,,SKC,0.00,VWS V14.01,2013-03-12 09:59:00,
2013-03-12 05:00:00,29.3,20.8,30.15,WSW,248,3.4,13.4,70,0.00,,SKC,0.00,VWS V14.01,2013-03-12 10:00:00,
2013-03-12 05:01:00,29.5,21.2,30.15,West,270,2.2,9.0,71,0.00,,SKC,0.00,VWS V14.01,2013-03-12 10:01:00,
2013-03-12 05:02:00,29.5,21.2,30.15,WSW,248,2.5,9.8,71,0.00,,SKC,0.00,VWS V14.01,2013-03-12 10:02:00,
2013-03-12 05:03:00,29.5,21.2,30.15,WSW,248,2.5,9.8,71,0.00,,SKC,0.00,VWS V14.01,2013-03-12 10:03:00,
2013-03-12 05:04:00,29.5,21.2,30.15,WSW,248,1.6,6.3,71,0.00,,SKC,0.00,VWS V14.01,2013-03-12 10:04:00,
2013-03-12 05:05:00,29.5,21.2,30.15,WSW,248,1.6,6.3,71,0.00,,SKC,0.00,VWS V14.01,2013-03-12 10:05:00,
2013-03-12 05:06:00,29.5,21.2,30.15,WSW,248,2.0,8.1,71,0.00,,SKC,0.00,VWS V14.01,2013-03-12 10:06:00,
2013-03-12 05:07:00,29.5,21.2,30.15,WSW,248,3.1,12.5,71,0.00,,SKC,0.00,VWS V14.01,2013-03-12 10:07:00,
2013-03-12 05:08:00,29.5,21.2,30.15,WSW,248,3.1,12.5,71,0.00,,SKC,0.00,VWS V14.01,2013-03-12 10:08:00,
2013-03-12 05:09:00,29.5,21.2,30.15,West,270,1.3,5.4,71,0.00,,SKC,0.00,VWS V14.01,2013-03-12 10:09:00,
2013-03-12 05:10:00,29.5,21.2,30.15,SW,225,2.0,8.1,71,0.00,,SKC,0.00,VWS V14.01,2013-03-12 10:10:00,
2013-03-12 05:11:00,29.3,21.1,30.15,WSW,248,0.0,0.0,71,0.00,,SKC,0.00,VWS V14.01,2013-03-12 10:11:00,
2013-03-12 05:12:00,29.3,21.1,30.15,WSW,248,1.3,5.4,71,0.00,,SKC,0.00,VWS V14.01,2013-03-12 10:12:00,
2013-03-12 05:13:00,29.3,21.1,30.15,WSW,248,1.3,5.4,71,0.00,,SKC,0.00,VWS V14.01,2013-03-12 10:13:00,
2013-03-12 05:14:00,29.3,21.1,30.15,WSW,248,1.6,6.3,71,0.00,,SKC,0.00,VWS V14.01,2013-03-12 10:14:00,
2013-03-12 05:15:00,29.3,21.1,30.15,WSW,248,2.7,10.7,71,0.00,,SKC,0.00,VWS V14.01,2013-03-12 10:15:00,
2013-03-12 05:16:00,29.3,21.1,30.15,SW,225,2.0,8.1,71,0.00,,SKC,0.00,VWS V14.01,2013-03-12 10:16:00,
2013-03-12 05:17:00,29.3,21.1,30.18,SW,225,1.3,5.4,71,0.00,,SKC,0.00,VWS V14.01,2013-03-12 10:17:00,
2013-03-12 05:18:00,29.3,21.1,30.18,SW,225,1.3,5.4,71,0.00,,SKC,0.00,VWS V14.01,2013-03-12 10:18:00,
2013-03-12 05:19:00,29.3,21.1,30.18,WSW,248,1.6,6.3,71,0.00,,SKC,0.00,VWS V14.01,2013-03-12 10:19:00,
2013-03-12 05:20:00,29.3,21.1,30.18,SW,225,1.3,5.4,71,0.00,,SKC,0.00,VWS V14.01,2013-03-12 10:20:00,
2013-03-12 05:21:00,29.1,20.9,30.18,SW,225,1.6,6.3,71,0.00,,SKC,0.00,VWS V14.01,2013-03-12 10:21:00,
2013-03-12 05:22:00,29.1,20.9,30.18,WSW,248,1.6,6.3,71,0.00,,SKC,0.00,VWS V14.01,2013-03-12 10:22:00,
2013-03-12 05:23:00,29.1,20.9,30.18,SW,225,1.1,4.5,71,0.00,,SKC,0.00,VWS V14.01,2013-03-12 10:23:00,
2013-03-12 05:24:00,29.1,20.9,30.18,WSW,248,0.0,0.0,71,0.00,,SKC,0.00,VWS V14.01,2013-03-12 10:24:00,
2013-03-12 05:25:00,29.1,20.9,30.18,WSW,248,0.0,0.0,71,0.00,,SKC,0.00,VWS V14.01,2013-03-12 10:25:00,
2013-03-12 05:26:00,29.1,20.9,30.18,WNW,292,1.3,5.4,71,0.00,,SKC,0.00,VWS V14.01,2013-03-12 10:26:00,
2013-03-12 05:27:00,29.1,20.9,30.18,WSW,248,2.5,9.8,71,0.00,,SKC,0.00,VWS V14.01,2013-03-12 10:27:00,
2013-03-12 05:28:00,29.1,20.9,30.18,WSW,248,2.5,9.8,71,0.00,,SKC,0.00,VWS V14.01,2013-03-12 10:28:00,
2013-03-12 05:29:00,29.1,20.9,30.18,WSW,248,1.3,5.4,71,0.00,,SKC,0.00,VWS V14.01,2013-03-12 10:29:00,
2013-03-12 05:30:00,29.1,20.9,30.18,WNW,292,2.5,9.8,71,0.00,,SKC,0.00,VWS V14.01,2013-03-12 10:30:00,
2013-03-12 05:31:00,29.1,20.9,30.18,WNW,292,2.5,9.8,71,0.00,,SKC,0.00,VWS V14.01,2013-03-12 10:31:00,
2013-03-12 05:32:00,29.1,21.2,30.18,SW,225,2.2,9.0,72,0.00,,SKC,0.00,VWS V14.01,2013-03-12 10:32:00,
2013-03-12 05:33:00,29.1,21.2,30.18,SSW,202,1.6,6.3,72,0.00,,SKC,0.00,VWS V14.01,2013-03-12 10:33:00,
2013-03-12 05:34:00,29.1,21.2,30.18,NW,315,1.3,5.4,72,0.00,,SKC,0.00,VWS V14.01,2013-03-12 10:34:00,
2013-03-12 05:35:00,29.1,21.2,30.18,NW,315,0.0,0.0,72,0.00,,SKC,0.00,VWS V14.01,2013-03-12 10:35:00,
2013-03-12 05:36:00,29.1,21.2,30.18,NW,315,0.0,0.0,72,0.00,,SKC,0.00,VWS V14.01,2013-03-12 10:36:00,
2013-03-12 05:37:00,29.1,21.2,30.18,WSW,248,1.3,5.4,72,0.00,,SKC,0.00,VWS V14.01,2013-03-12 10:37:00,
2013-03-12 05:38:00,29.1,21.2,30.18,WSW,248,1.3,5.4,72,0.00,,SKC,0.00,VWS V14.01,2013-03-12 10:38:00,
2013-03-12 05:39:00,29.1,20.9,30.18,WSW,248,2.5,9.8,71,0.00,,SKC,0.00,VWS V14.01,2013-03-12 10:39:00,
2013-03-12 05:40:00,29.1,20.9,30.18,WSW,248,2.5,9.8,71,0.00,,SKC,0.00,VWS V14.01,2013-03-12 10:40:00,
2013-03-12 05:41:00,29.3,21.4,30.18,SW,225,1.6,6.3,72,0.00,,SKC,0.00,VWS V14.01,2013-03-12 10:41:00,
2013-03-12 05:42:00,29.3,21.4,30.18,West,270,2.5,9.8,72,0.00,,SKC,0.00,VWS V14.01,2013-03-12 10:42:00,
2013-03-12 05:43:00,29.3,21.4,30.18,WSW,248,2.5,9.8,72,0.00,,SKC,0.00,VWS V14.01,2013-03-12 10:43:00,
2013-03-12 05:45:00,29.3,21.4,30.18,WSW,248,1.3,5.4,72,0.00,,SKC,0.00,VWS V14.01,2013-03-12 10:45:00,
2013-03-12 05:46:00,29.3,21.4,30.18,SW,225,0.9,3.6,72,0.00,,SKC,0.00,VWS V14.01,2013-03-12 10:46:00,
2013-03-12 05:47:00,29.1,21.2,30.18,WSW,248,1.1,4.5,72,0.00,,SKC,0.00,VWS V14.01,2013-03-12 10:47:00,
2013-03-12 05:48:00,29.1,21.2,30.18,WSW,248,2.5,9.8,72,0.00,,SKC,0.00,VWS V14.01,2013-03-12 10:48:00,
2013-03-12 05:49:00,29.1,21.2,30.18,WSW,248,2.0,8.1,72,0.00,,SKC,0.00,VWS V14.01,2013-03-12 10:49:00,
2013-03-12 05:50:00,29.1,21.2,30.18,SW,225,2.5,9.8,72,0.00,,SKC,0.00,VWS V14.01,2013-03-12 10:50:00,
2013-03-12 05:51:00,29.3,21.4,30.18,SW,225,1.6,6.3,72,0.00,,SKC,0.00,VWS V14.01,2013-03-12 10:51:00,
2013-03-12 05:53:00,29.3,21.4,30.18,WNW,292,0.9,3.6,72,0.00,,SKC,0.00,VWS V14.01,2013-03-12 10:53:00,
2013-03-12 05:54:00,29.1,21.2,30.18,WSW,248,3.1,12.5,72,0.00,,SKC,0.00,VWS V14.01,2013-03-12 10:54:00,
2013-03-12 05:55:00,29.1,21.2,30.18,WSW,248,3.4,13.4,72,0.00,,SKC,0.00,VWS V14.01,2013-03-12 10:55:00,
2013-03-12 05:56:00,29.3,21.4,30.18,West,270,3.1,12.5,72,0.00,,SKC,0.00,VWS V14.01,2013-03-12 10:56:00,
2013-03-12 05:57:00,29.3,21.4,30.18,WSW,248,1.6,6.3,72,0.00,,SKC,0.00,VWS V14.01,2013-03-12 10:57:00,
2013-03-12 05:58:00,29.3,21.4,30.18,WSW,248,1.1,4.5,72,0.00,,SKC,0.00,VWS V14.01,2013-03-12 10:58:00,
2013-03-12 05:59:00,29.1,21.2,30.18,WSW,248,2.0,8.1,72,0.00,,SKC,0.00,VWS V14.01,2013-03-12 10:59:00,
2013-03-12 06:00:00,29.1,21.2,30.18,WSW,248,0.9,3.6,72,0.00,,SKC,0.00,VWS V14.01,2013-03-12 11:00:00,
2013-03-12 06:01:00,29.1,21.2,30.18,SW,225,2.5,9.8,72,0.00,,SKC,0.00,VWS V14.01,2013-03-12 11:01:00,
2013-03-12 06:02:00,29.1,21.2,30.18,WSW,248,2.9,11.6,72,0.00,,SKC,0.00,VWS V14.01,2013-03-12 11:02:00,
2013-03-12 06:03:00,29.1,21.2,30.18,West,270,1.3,5.4,72,0.00,,SKC,0.00,VWS V14.01,2013-03-12 11:03:00,
2013-03-12 06:04:00,29.1,21.2,30.18,West,270,2.7,10.7,72,0.00,,SKC,0.00,VWS V14.01,2013-03-12 11:04:00,
2013-03-12 06:05:00,29.1,21.2,30.18,WSW,248,2.7,10.7,72,0.00,,SKC,0.00,VWS V14.01,2013-03-12 11:05:00,
2013-03-12 06:07:00,29.3,21.7,30.18,SSW,202,2.9,11.6,73,0.00,,SKC,0.00,VWS V14.01,2013-03-12 11:07:00,
2013-03-12 06:08:00,29.3,21.7,30.18,SW,225,2.0,8.1,73,0.00,,SKC,0.00,VWS V14.01,2013-03-12 11:08:00,
2013-03-12 06:09:00,29.3,21.7,30.18,WSW,248,3.6,14.3,73,0.00,,SKC,0.00,VWS V14.01,2013-03-12 11:09:00,
2013-03-12 06:10:00,29.3,21.7,30.18,WSW,248,2.7,10.7,73,0.00,,SKC,0.00,VWS V14.01,2013-03-12 11:10:00,
2013-03-12 06:11:00,29.3,21.7,30.18,SW,225,2.2,9.0,73,0.00,,SKC,0.00,VWS V14.01,2013-03-12 11:11:00,
2013-03-12 06:12:00,29.3,21.7,30.18,WSW,248,0.0,0.0,73,0.00,,SKC,0.00,VWS V14.01,2013-03-12 11:12:00,
2013-03-12 06:13:00,29.3,21.7,30.18,WSW,248,1.6,6.3,73,0.00,,SKC,0.00,VWS V14.01,2013-03-12 11:13:00,
2013-03-12 06:14:00,29.1,21.6,30.18,WSW,248,2.5,9.8,73,0.00,,SKC,0.00,VWS V14.01,2013-03-12 11:14:00,
2013-03-12 06:15:00,29.1,21.6,30.18,SW,225,0.0,0.0,73,0.00,,SKC,0.00,VWS V14.01,2013-03-12 11:15:00,
2013-03-12 06:16:00,29.1,21.6,30.18,West,270,2.0,8.1,73,0.00,,SKC,0.00,VWS V14.01,2013-03-12 11:16:00,
2013-03-12 06:18:00,29.1,21.6,30.15,WSW,248,1.3,5.4,73,0.00,,SKC,0.00,VWS V14.01,2013-03-12 11:18:00,
2013-03-12 06:19:00,29.1,21.6,30.15,WSW,248,0.0,0.0,73,0.00,,SKC,0.00,VWS V14.01,2013-03-12 11:19:00,
2013-03-12 06:20:00,29.1,21.6,30.15,West,270,2.2,9.0,73,0.00,,SKC,0.00,VWS V14.01,2013-03-12 11:20:00,
2013-03-12 06:21:00,29.1,21.6,30.15,WSW,248,2.2,9.0,73,0.00,,SKC,0.00,VWS V14.01,2013-03-12 11:21:00,
2013-03-12 06:22:00,29.1,21.6,30.15,WSW,248,2.2,9.0,73,0.00,,SKC,0.00,VWS V14.01,2013-03-12 11:22:00,
2013-03-12 06:23:00,29.1,21.6,30.15,WSW,248,2.2,9.0,73,0.00,,SKC,0.00,VWS V14.01,2013-03-12 11:23:00,
2013-03-12 06:24:00,29.1,21.6,30.15,WSW,248,3.4,13.4,73,0.00,,SKC,0.00,VWS V14.01,2013-03-12 11:24:00,
2013-03-12 06:25:00,29.1,21.6,30.15,SSW,202,1.3,5.4,73,0.00,,SKC,0.00,VWS V14.01,2013-03-12 11:25:00,
2013-03-12 06:26:00,29.1,21.6,30.15,WSW,248,1.1,4.5,73,0.00,,SKC,0.00,VWS V14.01,2013-03-12 11:26:00,
2013-03-12 06:27:00,29.1,21.6,30.15,SW,225,1.3,5.4,73,0.00,,SKC,0.00,VWS V14.01,2013-03-12 11:27:00,
2013-03-12 06:28:00,29.1,21.6,30.15,SW,225,2.0,8.1,73,0.00,,SKC,0.00,VWS V14.01,2013-03-12 11:28:00,
2013-03-12 06:29:00,29.3,21.7,30.15,West,270,3.1,12.5,73,0.00,,SKC,0.00,VWS V14.01,2013-03-12 11:29:00,
2013-03-12 06:30:00,29.3,21.7,30.15,WSW,248,1.3,5.4,73,0.00,,SKC,0.00,VWS V14.01,2013-03-12 11:30:00,
2013-03-12 06:31:00,29.3,21.7,30.15,West,270,0.9,3.6,73,0.00,,SKC,0.00,VWS V14.01,2013-03-12 11:31:00,
2013-03-12 06:32:00,29.1,21.6,30.15,WSW,248,1.1,4.5,73,0.00,,SKC,0.00,VWS V14.01,2013-03-12 11:32:00,
2013-03-12 06:33:00,29.1,21.6,30.18,WSW,248,0.0,0.0,73,0.00,,SKC,0.00,VWS V14.01,2013-03-12 11:33:00,
2013-03-12 06:34:00,29.3,21.7,30.18,SW,225,1.3,5.4,73,0.00,,SKC,0.00,VWS V14.01,2013-03-12 11:34:00,
2013-03-12 06:35:00,29.3,21.7,30.18,West,270,1.6,6.3,73,0.00,,SKC,0.00,VWS V14.01,2013-03-12 11:35:00,
2013-03-12 06:36:00,29.3,21.7,30.18,WSW,248,2.9,11.6,73,0.00,,SKC,0.00,VWS V14.01,2013-03-12 11:36:00,
2013-03-12 06:37:00,29.3,21.7,30.18,WSW,248,0.9,3.6,73,0.00,,SKC,0.00,VWS V14.01,2013-03-12 11:37:00,
2013-03-12 06:38:00,29.3,21.7,30.18,WSW,248,0.0,0.0,73,0.00,,SKC,0.00,VWS V14.01,2013-03-12 11:38:00,
2013-03-12 06:40:00,29.3,21.7,30.18,WSW,248,1.3,5.4,73,0.00,,SKC,0.00,VWS V14.01,2013-03-12 11:40:00,
2013-03-12 06:41:00,29.3,21.7,30.18,SW,225,1.1,4.5,73,0.00,,SKC,0.00,VWS V14.01,2013-03-12 11:41:00,
2013-03-12 06:42:00,29.3,21.7,30.18,WNW,292,4.0,16.1,73,0.00,,SKC,0.00,VWS V14.01,2013-03-12 11:42:00,
2013-03-12 06:43:00,29.3,21.7,30.18,West,270,2.2,9.0,73,0.00,,SKC,0.00,VWS V14.01,2013-03-12 11:43:00,
2013-03-12 06:44:00,29.3,21.7,30.18,SSW,202,0.9,3.6,73,0.00,,SKC,0.00,VWS V14.01,2013-03-12 11:44:00,
2013-03-12 06:45:00,29.3,21.7,30.18,SW,225,3.4,13.4,73,0.00,,SKC,0.00,VWS V14.01,2013-03-12 11:45:00,
2013-03-12 06:46:00,29.5,21.9,30.18,West,270,2.5,9.8,73,0.00,,SKC,0.00,VWS V14.01,2013-03-12 11:46:00,
2013-03-12 06:47:00,29.5,21.9,30.18,WNW,292,2.5,9.8,73,0.00,,SKC,0.00,VWS V14.01,2013-03-12 11:47:00,
2013-03-12 06:48:00,29.5,21.9,30.18,WNW,292,2.5,9.8,73,0.00,,SKC,0.00,VWS V14.01,2013-03-12 11:48:00,
2013-03-12 06:49:00,29.5,21.9,30.18,West,270,1.6,6.3,73,0.00,,SKC,0.00,VWS V14.01,2013-03-12 11:49:00,
2013-03-12 06:50:00,29.5,21.9,30.18,SW,225,2.2,9.0,73,0.00,,SKC,0.00,VWS V14.01,2013-03-12 11:50:00,
2013-03-12 06:51:00,29.5,21.9,30.18,WSW,248,2.0,8.1,73,0.00,,SKC,0.00,VWS V14.01,2013-03-12 11:51:00,
2013-03-12 06:52:00,29.5,21.9,30.18,WSW,248,2.9,11.6,73,0.00,,SKC,0.00,VWS V14.01,2013-03-12 11:52:00,
2013-03-12 06:53:00,29.5,21.9,30.18,SW,225,3.8,15.2,73,0.00,,SKC,0.00,VWS V14.01,2013-03-12 11:53:00,
2013-03-12 06:54:00,29.5,21.9,30.18,West,270,2.2,9.0,73,0.00,,SKC,0.00,VWS V14.01,2013-03-12 11:54:00,
2013-03-12 06:55:00,29.5,21.9,30.18,WNW,292,2.0,8.1,73,0.00,,SKC,0.00,VWS V14.01,2013-03-12 11:55:00,
2013-03-12 06:57:00,29.5,21.9,30.18,South,180,2.5,9.8,73,0.00,,SKC,0.00,VWS V14.01,2013-03-12 11:57:00,
2013-03-12 06:58:00,29.5,21.9,30.18,SSW,202,2.0,8.1,73,0.00,,SKC,0.00,VWS V14.01,2013-03-12 11:58:00,
2013-03-12 06:59:00,29.5,21.9,30.18,WSW,248,2.7,10.7,73,0.00,,SKC,0.00,VWS V14.01,2013-03-12 11:59:00,
2013-03-12 07:00:00,29.5,21.9,30.18,SSW,202,2.7,10.7,73,0.00,,SKC,0.00,VWS V14.01,2013-03-12 12:00:00,
2013-03-12 07:01:00,29.5,21.9,30.18,WSW,248,2.2,9.0,73,0.00,,SKC,0.00,VWS V14.01,2013-03-12 12:01:00,
2013-03-12 07:02:00,29.5,21.9,30.18,WSW,248,2.9,11.6,73,0.00,,SKC,0.00,VWS V14.01,2013-03-12 12:02:00,
2013-03-12 07:03:00,29.5,21.9,30.18,WSW,248,2.5,9.8,73,0.00,,SKC,0.00,VWS V14.01,2013-03-12 12:03:00,
2013-03-12 07:04:00,29.5,21.9,30.18,SW,225,2.7,10.7,73,0.00,,SKC,0.00,VWS V14.01,2013-03-12 12:04:00,
2013-03-12 07:05:00,29.5,21.9,30.18,West,270,1.1,4.5,73,0.00,,SKC,0.00,VWS V14.01,2013-03-12 12:05:00,
2013-03-12 07:06:00,29.5,21.9,30.18,SW,225,2.5,9.8,73,0.00,,SKC,0.00,VWS V14.01,2013-03-12 12:06:00,
2013-03-12 07:07:00,29.5,21.9,30.18,West,270,3.1,12.5,73,0.00,,SKC,0.00,VWS V14.01,2013-03-12 12:07:00,
2013-03-12 07:08:00,29.5,21.9,30.18,WSW,248,2.7,10.7,73,0.00,,SKC,0.00,VWS V14.01,2013-03-12 12:08:00,
2013-03-12 07:09:00,29.5,21.9,30.18,WSW,248,1.3,5.4,73,0.00,,SKC,0.00,VWS V14.01,2013-03-12 12:09:00,
2013-03-12 07:10:00,29.5,21.9,30.18,West,270,1.6,6.3,73,0.00,,SKC,0.00,VWS V14.01,2013-03-12 12:10:00,
2013-03-12 07:11:00,29.5,21.9,30.18,WSW,248,1.6,6.3,73,0.00,,SKC,0.00,VWS V14.01,2013-03-12 12:11:00,
2013-03-12 07:12:00,29.5,21.9,30.18,WSW,248,1.3,5.4,73,0.00,,SKC,0.00,VWS V14.01,2013-03-12 12:12:00,
2013-03-12 07:13:00,29.5,21.9,30.18,SW,225,2.0,8.1,73,0.00,,SKC,0.00,VWS V14.01,2013-03-12 12:13:00,
2013-03-12 07:14:00,29.5,21.9,30.18,WNW,292,3.6,14.3,73,0.00,,SKC,0.00,VWS V14.01,2013-03-12 12:14:00,
2013-03-12 07:15:00,29.5,21.9,30.18,WSW,248,2.7,10.7,73,0.00,,SKC,0.00,VWS V14.01,2013-03-12 12:15:00,
2013-03-12 07:16:00,29.5,21.9,30.18,SW,225,1.1,4.5,73,0.00,,SKC,0.00,VWS V14.01,2013-03-12 12:16:00,
2013-03-12 07:17:00,29.5,21.9,30.18,West,270,1.3,5.4,73,0.00,,SKC,0.00,VWS V14.01,2013-03-12 12:17:00,
2013-03-12 07:18:00,29.5,21.9,30.18,WSW,248,2.5,9.8,73,0.00,,SKC,0.00,VWS V14.01,2013-03-12 12:18:00,
2013-03-12 07:19:00,29.5,21.9,30.18,WNW,292,1.3,5.4,73,0.00,,SKC,0.00,VWS V14.01,2013-03-12 12:19:00,
2013-03-12 07:20:00,29.5,21.9,30.18,WSW,248,2.9,11.6,73,0.00,,SKC,0.00,VWS V14.01,2013-03-12 12:20:00,
2013-03-12 07:22:00,29.5,21.9,30.18,WSW,248,3.1,12.5,73,0.00,,SKC,0.00,VWS V14.01,2013-03-12 12:22:00,
2013-03-12 07:23:00,29.5,21.9,30.18,WSW,248,2.2,9.0,73,0.00,,SKC,0.00,VWS V14.01,2013-03-12 12:23:00,
2013-03-12 07:24:00,29.5,21.9,30.18,WSW,248,2.0,8.1,73,0.00,,SKC,0.00,VWS V14.01,2013-03-12 12:24:00,
2013-03-12 07:25:00,29.5,21.9,30.18,West,270,2.2,9.0,73,0.00,,SKC,0.00,VWS V14.01,2013-03-12 12:25:00,
2013-03-12 07:26:00,29.5,21.9,30.18,SW,225,2.2,9.0,73,0.00,,SKC,0.00,VWS V14.01,2013-03-12 12:26:00,
2013-03-12 07:27:00,29.5,21.9,30.18,West,270,3.6,14.3,73,0.00,,SKC,0.00,VWS V14.01,2013-03-12 12:27:00,
2013-03-12 07:28:00,29.5,21.9,30.18,WNW,292,2.0,8.1,73,0.00,,SKC,0.00,VWS V14.01,2013-03-12 12:28:00,
2013-03-12 07:29:00,29.5,21.9,30.18,SW,225,4.0,16.1,73,0.00,,SKC,0.00,VWS V14.01,2013-03-12 12:29:00,
2013-03-12 07:30:00,29.7,22.1,30.18,WSW,248,2.7,10.7,73,0.00,,SKC,0.00,VWS V14.01,2013-03-12 12:30:00,
2013-03-12 07:31:00,29.7,22.1,30.18,West,270,2.2,9.0,73,0.00,,SKC,0.00,VWS V14.01,2013-03-12 12:31:00,
2013-03-12 07:32:00,29.7,22.1,30.18,West,270,2.2,9.0,73,0.00,,SKC,0.00,VWS V14.01,2013-03-12 12:32:00,
2013-03-12 07:33:00,29.7,22.1,30.18,WSW,248,1.6,6.3,73,0.00,,SKC,0.00,VWS V14.01,2013-03-12 12:33:00,
2013-03-12 07:34:00,29.7,22.1,30.18,WSW,248,2.7,10.7,73,0.00,,SKC,0.00,VWS V14.01,2013-03-12 12:34:00,
2013-03-12 07:35:00,29.7,22.1,30.18,WSW,248,2.7,10.7,73,0.00,,SKC,0.00,VWS V14.01,2013-03-12 12:35:00,
2013-03-12 07:36:00,29.7,22.1,30.18,WSW,248,2.5,9.8,73,0.00,,SKC,0.00,VWS V14.01,2013-03-12 12:36:00,
2013-03-12 07:37:00,29.7,22.1,30.18,SW,225,1.6,6.3,73,0.00,,SKC,0.00,VWS V14.01,2013-03-12 12:37:00,
2013-03-12 07:38:00,29.7,22.1,30.18,WSW,248,2.7,10.7,73,0.00,,SKC,0.00,VWS V14.01,2013-03-12 12:38:00,
2013-03-12 07:39:00,29.7,22.1,30.18,West,270,4.3,17.0,73,0.00,,SKC,0.00,VWS V14.01,2013-03-12 12:39:00,
2013-03-12 07:40:00,29.7,22.1,30.18,WSW,248,2.5,9.8,73,0.00,,SKC,0.00,VWS V14.01,2013-03-12 12:40:00,
2013-03-12 07:41:00,29.7,22.1,30.18,WSW,248,3.1,12.5,73,0.00,,SKC,0.00,VWS V14.01,2013-03-12 12:41:00,
2013-03-12 07:42:00,29.7,22.1,30.18,WSW,248,3.1,12.5,73,0.00,,SKC,0.00,VWS V14.01,2013-03-12 12:42:00,
2013-03-12 07:43:00,29.7,22.1,30.18,WSW,248,3.1,12.5,73,0.00,,SKC,0.00,VWS V14.01,2013-03-12 12:43:00,
2013-03-12 07:44:00,29.7,22.1,30.18,SW,225,2.9,11.6,73,0.00,,SKC,0.00,VWS V14.01,2013-03-12 12:44:00,
2013-03-12 07:45:00,29.7,22.1,30.18,WNW,292,1.6,6.3,73,0.00,,SKC,0.00,VWS V14.01,2013-03-12 12:45:00,
2013-03-12 07:46:00,29.7,22.1,30.18,West,270,3.1,12.5,73,0.00,,SKC,0.00,VWS V14.01,2013-03-12 12:46:00,
2013-03-12 07:47:00,29.7,22.1,30.18,WSW,248,2.2,9.0,73,0.00,,SKC,0.00,VWS V14.01,2013-03-12 12:47:00,
2013-03-12 07:48:00,29.7,22.1,30.18,WSW,248,2.0,8.1,73,0.00,,SKC,0.00,VWS V14.01,2013-03-12 12:48:00,
2013-03-12 07:49:00,29.8,22.2,30.18,West,270,3.1,12.5,73,0.00,,SKC,0.00,VWS V14.01,2013-03-12 12:49:00,
2013-03-12 07:50:00,29.8,22.2,30.18,WSW,248,1.1,4.5,73,0.00,,SKC,0.00,VWS V14.01,2013-03-12 12:50:00,
2013-03-12 07:51:00,29.8,22.2,30.18,WSW,248,3.1,12.5,73,0.00,,SKC,0.00,VWS V14.01,2013-03-12 12:51:00,
2013-03-12 07:52:00,29.8,22.2,30.18,WSW,248,3.4,13.4,73,0.00,,SKC,0.00,VWS V14.01,2013-03-12 12:52:00,
2013-03-12 07:53:00,29.8,22.2,30.18,WSW,248,2.7,10.7,73,0.00,,SKC,0.00,VWS V14.01,2013-03-12 12:53:00,
2013-03-12 07:54:00,30.0,22.4,30.18,West,270,1.6,6.3,73,0.00,,SKC,0.00,VWS V14.01,2013-03-12 12:54:00,
2013-03-12 07:55:00,30.0,22.4,30.18,SW,225,2.0,8.1,73,0.00,,SKC,0.00,VWS V14.01,2013-03-12 12:55:00,
2013-03-12 07:56:00,30.0,22.4,30.18,WSW,248,2.0,8.1,73,0.00,,SKC,0.00,VWS V14.01,2013-03-12 12:56:00,
2013-03-12 07:57:00,30.0,22.4,30.18,West,270,2.2,9.0,73,0.00,,SKC,0.00,VWS V14.01,2013-03-12 12:57:00,
2013-03-12 07:58:00,30.0,22.4,30.18,West,270,2.2,9.0,73,0.00,,SKC,0.00,VWS V14.01,2013-03-12 12:58:00,
2013-03-12 07:59:00,30.2,22.3,30.18,WSW,248,1.6,6.3,72,0.00,,SKC,0.00,VWS V14.01,2013-03-12 12:59:00,
2013-03-12 08:00:00,30.2,22.3,30.18,WSW,248,0.0,0.0,72,0.00,,SKC,0.00,VWS V14.01,2013-03-12 13:00:00,
2013-03-12 08:01:00,30.4,22.5,30.18,West,270,0.9,3.6,72,0.00,,SKC,0.00,VWS V14.01,2013-03-12 13:01:00,
2013-03-12 08:02:00,30.4,22.5,30.18,SW,225,3.8,15.2,72,0.00,,SKC,0.00,VWS V14.01,2013-03-12 13:02:00,
2013-03-12 08:03:00,30.4,22.5,30.18,WSW,248,2.9,11.6,72,0.00,,SKC,0.00,VWS V14.01,2013-03-12 13:03:00,
2013-03-12 08:04:00,30.6,22.6,30.18,WSW,248,2.0,8.1,72,0.00,,SKC,0.00,VWS V14.01,2013-03-12 13:04:00,
2013-03-12 08:05:00,30.6,22.6,30.18,West,270,2.5,9.8,72,0.00,,SKC,0.00,VWS V14.01,2013-03-12 13:05:00,
2013-03-12 08:06:00,30.6,22.6,30.18,West,270,4.0,16.1,72,0.00,,SKC,0.00,VWS V14.01,2013-03-12 13:06:00,
2013-03-12 08:07:00,30.6,22.6,30.18,SW,225,2.9,11.6,72,0.00,,SKC,0.00,VWS V14.01,2013-03-12 13:07:00,
2013-03-12 08:08:00,30.6,22.6,30.18,SW,225,2.9,11.6,72,0.00,,SKC,0.00,VWS V14.01,2013-03-12 13:08:00,
2013-03-12 08:09:00,30.7,22.5,30.18,West,270,4.9,19.7,71,0.00,,SKC,0.00,VWS V14.01,2013-03-12 13:09:00,
2013-03-12 08:10:00,30.7,22.5,30.18,WSW,248,2.9,11.6,71,0.00,,SKC,0.00,VWS V14.01,2013-03-12 13:10:00,
2013-03-12 08:11:00,30.7,22.5,30.18,West,270,2.9,11.6,71,0.00,,SKC,0.00,VWS V14.01,2013-03-12 13:11:00,
2013-03-12 08:12:00,30.7,22.5,30.18,WSW,248,3.4,13.4,71,0.00,,SKC,0.00,VWS V14.01,2013-03-12 13:12:00,
2013-03-12 08:13:00,30.7,22.5,30.18,West,270,4.0,16.1,71,0.00,,SKC,0.00,VWS V14.01,2013-03-12 13:13:00,
2013-03-12 08:14:00,30.7,22.5,30.18,WSW,248,3.1,12.5,71,0.00,,SKC,0.00,VWS V14.01,2013-03-12 13:14:00,
2013-03-12 08:15:00,30.7,22.5,30.18,South,180,1.6,6.3,71,0.00,,SKC,0.00,VWS V14.01,2013-03-12 13:15:00,
2013-03-12 08:16:00,30.9,22.3,30.18,SW,225,1.1,4.5,70,0.00,,SKC,0.00,VWS V14.01,2013-03-12 13:16:00,
2013-03-12 08:17:00,30.9,22.3,30.24,WSW,248,1.1,4.5,70,0.00,,SKC,0.00,VWS V14.01,2013-03-12 13:17:00,
2013-03-12 08:18:00,30.9,22.3,30.24,WSW,248,1.6,6.3,70,0.00,,SKC,0.00,VWS V14.01,2013-03-12 13:18:00,
2013-03-12 08:19:00,31.1,22.5,30.24,SW,225,2.5,9.8,70,0.00,,SKC,0.00,VWS V14.01,2013-03-12 13:19:00,
2013-03-12 08:20:00,31.1,22.5,30.24,SW,225,8.1,32.2,70,0.00,,SKC,0.00,VWS V14.01,2013-03-12 13:20:00,
2013-03-12 08:21:00,31.1,22.5,30.24,WSW,248,2.5,9.8,70,0.00,,SKC,0.00,VWS V14.01,2013-03-12 13:21:00,
2013-03-12 08:22:00,31.1,22.5,30.24,WNW,292,2.7,10.7,70,0.00,,SKC,0.00,VWS V14.01,2013-03-12 13:22:00,
2013-03-12 08:23:00,31.1,22.5,30.24,WNW,292,2.7,10.7,70,0.00,,SKC,0.00,VWS V14.01,2013-03-12 13:23:00,
2013-03-12 08:24:00,31.3,22.6,30.24,WSW,248,2.5,9.8,70,0.00,,SKC,0.00,VWS V14.01,2013-03-12 13:24:00,
2013-03-12 08:25:00,31.3,22.6,30.24,WSW,248,4.0,16.1,70,0.00,,SKC,0.00,VWS V14.01,2013-03-12 13:25:00,
2013-03-12 08:26:00,31.3,22.6,30.24,WNW,292,3.8,15.2,70,0.00,,SKC,0.00,VWS V14.01,2013-03-12 13:26:00,
2013-03-12 08:27:00,31.3,22.6,30.24,WNW,292,4.9,19.7,70,0.00,,SKC,0.00,VWS V14.01,2013-03-12 13:27:00,
2013-03-12 08:28:00,31.3,22.6,30.24,SSW,202,3.6,14.3,70,0.00,,SKC,0.00,VWS V14.01,2013-03-12 13:28:00,
2013-03-12 08:29:00,31.5,22.8,30.24,WSW,248,0.0,0.0,70,0.00,,SKC,0.00,VWS V14.01,2013-03-12 13:29:00,
2013-03-12 08:30:00,31.6,23.0,30.24,SW,225,1.3,5.4,70,0.00,,SKC,0.00,VWS V14.01,2013-03-12 13:30:00,
2013-03-12 08:31:00,31.6,23.0,30.24,West,270,3.8,15.2,70,0.00,,SKC,0.00,VWS V14.01,2013-03-12 13:31:00,
2013-03-12 08:32:00,31.6,22.6,30.24,West,270,3.1,12.5,69,0.00,,SKC,0.00,VWS V14.01,2013-03-12 13:32:00,
2013-03-12 08:33:00,31.8,22.8,30.24,West,270,3.8,15.2,69,0.00,,SKC,0.00,VWS V14.01,2013-03-12 13:33:00,
2013-03-12 08:34:00,31.8,22.8,30.24,WSW,248,2.0,8.1,69,0.00,,SKC,0.00,VWS V14.01,2013-03-12 13:34:00,
2013-03-12 08:35:00,32.0,23.0,30.24,West,270,2.7,10.7,69,0.00,,SKC,0.00,VWS V14.01,2013-03-12 13:35:00,
2013-03-12 08:36:00,32.0,23.0,30.24,SW,225,2.9,11.6,69,0.00,,SKC,0.00,VWS V14.01,2013-03-12 13:36:00,
2013-03-12 08:37:00,32.0,23.0,30.24,SW,225,1.6,6.3,69,0.00,,SKC,0.00,VWS V14.01,2013-03-12 13:37:00,
2013-03-12 08:38:00,32.0,23.0,30.24,NW,315,3.1,12.5,69,0.00,,SKC,0.00,VWS V14.01,2013-03-12 13:38:00,
2013-03-12 08:39:00,32.2,23.2,30.24,WNW,292,5.8,23.3,69,0.00,,SKC,0.00,VWS V14.01,2013-03-12 13:39:00,
2013-03-12 08:40:00,32.2,22.8,30.24,WSW,248,2.9,11.6,68,0.00,,SKC,0.00,VWS V14.01,2013-03-12 13:40:00,
2013-03-12 08:41:00,32.2,22.8,30.24,West,270,4.3,17.0,68,0.00,,SKC,0.00,VWS V14.01,2013-03-12 13:41:00,
2013-03-12 08:42:00,32.2,22.5,30.24,West,270,7.8,31.3,67,0.00,,SKC,0.00,VWS V14.01,2013-03-12 13:42:00,
2013-03-12 08:43:00,32.2,22.5,30.24,SW,225,12.1,48.3,67,0.00,,SKC,0.00,VWS V14.01,2013-03-12 13:43:00,
2013-03-12 08:44:00,32.2,22.5,30.24,WSW,248,2.9,11.6,67,0.00,,SKC,0.00,VWS V14.01,2013-03-12 13:44:00,
2013-03-12 08:45:00,32.2,22.1,30.24,WSW,248,3.6,14.3,66,0.00,,SKC,0.00,VWS V14.01,2013-03-12 13:45:00,
2013-03-12 08:47:00,32.2,22.1,30.24,WSW,248,4.9,19.7,66,0.00,,SKC,0.00,VWS V14.01,2013-03-12 13:47:00,
2013-03-12 08:48:00,32.2,21.8,30.24,WSW,248,2.7,10.7,65,0.00,,SKC,0.00,VWS V14.01,2013-03-12 13:48:00,
2013-03-12 08:49:00,32.2,21.8,30.24,SSW,202,2.5,9.8,65,0.00,,SKC,0.00,VWS V14.01,2013-03-12 13:49:00,
2013-03-12 08:50:00,32.2,21.8,30.24,WSW,248,4.7,18.8,65,0.00,,SKC,0.00,VWS V14.01,2013-03-12 13:50:00,
2013-03-12 08:51:00,32.2,21.8,30.24,WSW,248,3.4,13.4,65,0.00,,SKC,0.00,VWS V14.01,2013-03-12 13:51:00,
2013-03-12 08:52:00,32.2,21.8,30.24,WSW,248,1.1,4.5,65,0.00,,SKC,0.00,VWS V14.01,2013-03-12 13:52:00,
2013-03-12 08:53:00,32.2,21.8,30.24,WNW,292,4.3,17.0,65,0.00,,SKC,0.00,VWS V14.01,2013-03-12 13:53:00,
2013-03-12 08:54:00,32.2,21.8,30.24,West,270,3.8,15.2,65,0.00,,SKC,0.00,VWS V14.01,2013-03-12 13:54:00,
2013-03-12 08:55:00,32.2,21.8,30.24,NW,315,2.7,10.7,65,0.00,,SKC,0.00,VWS V14.01,2013-03-12 13:55:00,
2013-03-12 08:56:00,32.2,21.8,30.24,WNW,292,1.6,6.3,65,0.00,,SKC,0.00,VWS V14.01,2013-03-12 13:56:00,
2013-03-12 08:57:00,32.2,21.8,30.24,SW,225,1.6,6.3,65,0.00,,SKC,0.00,VWS V14.01,2013-03-12 13:57:00,
2013-03-12 08:58:00,32.2,21.8,30.24,SW,225,1.6,6.3,65,0.00,,SKC,0.00,VWS V14.01,2013-03-12 13:58:00,
2013-03-12 09:00:00,32.4,21.9,30.24,WSW,248,1.6,6.3,65,0.00,,SKC,0.00,VWS V14.01,2013-03-12 14:00:00,
2013-03-12 09:01:00,32.4,21.9,30.24,SSW,202,3.1,12.5,65,0.00,,SKC,0.00,VWS V14.01,2013-03-12 14:01:00,
2013-03-12 09:02:00,32.5,22.1,30.24,SW,225,4.3,17.0,65,0.00,,SKC,0.00,VWS V14.01,2013-03-12 14:02:00,
2013-03-12 09:03:00,32.5,22.1,30.24,West,270,3.8,15.2,65,0.00,,SKC,0.00,VWS V14.01,2013-03-12 14:03:00,
2013-03-12 09:04:00,32.7,22.3,30.24,WNW,292,3.4,13.4,65,0.00,,SKC,0.00,VWS V14.01,2013-03-12 14:04:00,
2013-03-12 09:05:00,32.7,22.3,30.24,SW,225,2.7,10.7,65,0.00,,SKC,0.00,VWS V14.01,2013-03-12 14:05:00,
2013-03-12 09:06:00,32.7,22.3,30.24,SW,225,2.7,10.7,65,0.00,,SKC,0.00,VWS V14.01,2013-03-12 14:06:00,
2013-03-12 09:07:00,32.9,22.4,30.24,WNW,292,1.6,6.3,65,0.00,,SKC,0.00,VWS V14.01,2013-03-12 14:07:00,
2013-03-12 09:08:00,32.9,22.4,30.24,WNW,292,1.6,6.3,65,0.00,,SKC,0.00,VWS V14.01,2013-03-12 14:08:00,
2013-03-12 09:09:00,33.1,22.6,30.24,SW,225,3.1,12.5,65,0.00,,SKC,0.00,VWS V14.01,2013-03-12 14:09:00,
2013-03-12 09:10:00,33.3,22.8,30.24,NW,315,2.5,9.8,65,0.00,,SKC,0.00,VWS V14.01,2013-03-12 14:10:00,
2013-03-12 09:11:00,33.3,22.8,30.24,West,270,2.0,8.1,65,0.00,,SKC,0.00,VWS V14.01,2013-03-12 14:11:00,
2013-03-12 09:12:00,33.4,23.0,30.24,SW,225,1.1,4.5,65,0.00,,SKC,0.00,VWS V14.01,2013-03-12 14:12:00,
2013-03-12 09:13:00,33.4,23.0,30.24,WSW,248,1.6,6.3,65,0.00,,SKC,0.00,VWS V14.01,2013-03-12 14:13:00,
2013-03-12 09:14:00,33.4,23.0,30.24,West,270,3.4,13.4,65,0.00,,SKC,0.00,VWS V14.01,2013-03-12 14:14:00,
2013-03-12 09:15:00,33.4,22.6,30.24,WSW,248,5.8,23.3,64,0.00,,SKC,0.00,VWS V14.01,2013-03-12 14:15:00,
2013-03-12 09:16:00,33.4,22.2,30.24,SW,225,3.4,13.4,63,0.00,,SKC,0.00,VWS V14.01,2013-03-12 14:16:00,
2013-03-12 09:17:00,33.4,22.2,30.24,WSW,248,2.9,11.6,63,0.00,,SKC,0.00,VWS V14.01,2013-03-12 14:17:00,
2013-03-12 09:18:00,33.4,22.2,30.24,WSW,248,2.9,11.6,63,0.00,,SKC,0.00,VWS V14.01,2013-03-12 14:18:00,
2013-03-12 09:19:00,33.4,22.2,30.24,WSW,248,4.9,19.7,63,0.00,,SKC,0.00,VWS V14.01,2013-03-12 14:19:00,
2013-03-12 09:20:00,33.4,21.5,30.24,WSW,248,2.9,11.6,61,0.00,,SKC,0.00,VWS V14.01,2013-03-12 14:20:00,
2013-03-12 09:21:00,33.4,21.5,30.24,NW,315,4.3,17.0,61,0.00,,SKC,0.00,VWS V14.01,2013-03-12 14:21:00,
2013-03-12 09:22:00,33.4,21.5,30.24,West,270,3.6,14.3,61,0.00,,SKC,0.00,VWS V14.01,2013-03-12 14:22:00,
2013-03-12 09:23:00,33.4,21.5,30.24,SSW,202,3.6,14.3,61,0.00,,SKC,0.00,VWS V14.01,2013-03-12 14:23:00,
2013-03-12 09:24:00,33.4,21.5,30.24,SSW,202,4.3,17.0,61,0.00,,SKC,0.00,VWS V14.01,2013-03-12 14:24:00,
2013-03-12 09:25:00,33.4,21.5,30.24,SW,225,2.9,11.6,61,0.00,,SKC,0.00,VWS V14.01,2013-03-12 14:25:00,
2013-03-12 09:26:00,33.4,21.1,30.24,WNW,292,3.8,15.2,60,0.00,,SKC,0.00,VWS V14.01,2013-03-12 14:26:00,
2013-03-12 09:27:00,33.6,21.2,30.24,WNW,292,2.5,9.8,60,0.00,,SKC,0.00,VWS V14.01,2013-03-12 14:27:00,
2013-03-12 09:28:00,33.6,21.2,30.24,NE,45,2.2,9.0,60,0.00,,SKC,0.00,VWS V14.01,2013-03-12 14:28:00,
2013-03-12 09:29:00,33.6,20.8,30.24,WSW,248,3.1,12.5,59,0.00,,SKC,0.00,VWS V14.01,2013-03-12 14:29:00,
2013-03-12 09:30:00,33.6,20.8,30.24,West,270,1.3,5.4,59,0.00,,SKC,0.00,VWS V14.01,2013-03-12 14:30:00,
2013-03-12 09:31:00,33.6,20.8,30.24,WSW,248,2.7,10.7,59,0.00,,SKC,0.00,VWS V14.01,2013-03-12 14:31:00,
2013-03-12 09:32:00,33.8,21.0,30.24,WSW,248,1.3,5.4,59,0.00,,SKC,0.00,VWS V14.01,2013-03-12 14:32:00,
2013-03-12 09:33:00,33.8,21.0,30.24,WSW,248,1.3,5.4,59,0.00,,SKC,0.00,VWS V14.01,2013-03-12 14:33:00,
2013-03-12 09:34:00,34.0,20.8,30.24,SSW,202,1.6,6.3,58,0.00,,SKC,0.00,VWS V14.01,2013-03-12 14:34:00,
2013-03-12 09:35:00,34.0,20.8,30.24,West,270,2.5,9.8,58,0.00,,SKC,0.00,VWS V14.01,2013-03-12 14:35:00,
2013-03-12 09:36:00,34.2,20.9,30.24,SW,225,5.4,21.5,58,0.00,,SKC,0.00,VWS V14.01,2013-03-12 14:36:00,
2013-03-12 09:38:00,34.2,20.5,30.24,SSW,202,2.7,10.7,57,0.00,,SKC,0.00,VWS V14.01,2013-03-12 14:38:00,
2013-03-12 09:39:00,34.5,20.9,30.24,WSW,248,2.0,8.1,57,0.00,,SKC,0.00,VWS V14.01,2013-03-12 14:39:00,
2013-03-12 09:40:00,34.5,20.9,30.24,NNW,338,4.9,19.7,57,0.00,,SKC,0.00,VWS V14.01,2013-03-12 14:40:00,
2013-03-12 09:41:00,34.7,20.6,30.24,West,270,4.0,16.1,56,0.00,,SKC,0.00,VWS V14.01,2013-03-12 14:41:00,
2013-03-12 09:42:00,34.7,20.6,30.24,WSW,248,3.6,14.3,56,0.00,,SKC,0.00,VWS V14.01,2013-03-12 14:42:00,
2013-03-12 09:43:00,34.7,20.6,30.24,NW,315,3.1,12.5,56,0.00,,SKC,0.00,VWS V14.01,2013-03-12 14:43:00,
2013-03-12 09:44:00,34.9,20.8,30.24,ESE,112,3.6,14.3,56,0.00,,SKC,0.00,VWS V14.01,2013-03-12 14:44:00,
2013-03-12 09:45:00,35.1,20.5,30.24,WNW,292,2.9,11.6,55,0.00,,SKC,0.00,VWS V14.01,2013-03-12 14:45:00,
2013-03-12 09:46:00,35.1,20.5,30.24,WNW,292,2.7,10.7,55,0.00,,SKC,0.00,VWS V14.01,2013-03-12 14:46:00,
2013-03-12 09:47:00,35.1,20.5,30.24,SW,225,3.4,13.4,55,0.00,,SKC,0.00,VWS V14.01,2013-03-12 14:47:00,
2013-03-12 09:48:00,35.1,20.5,30.24,West,270,3.1,12.5,55,0.00,,SKC,0.00,VWS V14.01,2013-03-12 14:48:00,
2013-03-12 09:49:00,35.4,20.9,30.24,West,270,2.9,11.6,55,0.00,,SKC,0.00,VWS V14.01,2013-03-12 14:49:00,
2013-03-12 09:50:00,35.4,20.9,30.24,SW,225,3.1,12.5,55,0.00,,SKC,0.00,VWS V14.01,2013-03-12 14:50:00,
2013-03-12 09:51:00,35.4,20.9,30.24,SW,225,3.4,13.4,55,0.00,,SKC,0.00,VWS V14.01,2013-03-12 14:51:00,
2013-03-12 09:52:00,35.8,20.8,30.24,WSW,248,2.0,8.1,54,0.00,,SKC,0.00,VWS V14.01,2013-03-12 14:52:00,
2013-03-12 09:53:00,35.8,20.8,30.24,WSW,248,4.3,17.0,54,0.00,,SKC,0.00,VWS V14.01,2013-03-12 14:53:00,
2013-03-12 09:54:00,35.8,20.3,30.24,SW,225,3.8,15.2,53,0.00,,SKC,0.00,VWS V14.01,2013-03-12 14:54:00,
2013-03-12 09:55:00,35.8,20.3,30.24,WSW,248,2.9,11.6,53,0.00,,SKC,0.00,VWS V14.01,2013-03-12 14:55:00,
2013-03-12 09:56:00,35.8,19.9,30.24,WSW,248,9.2,36.7,52,0.00,,SKC,0.00,VWS V14.01,2013-03-12 14:56:00,
2013-03-12 09:57:00,35.8,19.9,30.24,SSW,202,3.8,15.2,52,0.00,,SKC,0.00,VWS V14.01,2013-03-12 14:57:00,
2013-03-12 09:58:00,35.8,19.9,30.24,SSW,202,4.7,18.8,52,0.00,,SKC,0.00,VWS V14.01,2013-03-12 14:58:00,
2013-03-12 09:59:00,36.1,20.2,30.24,South,180,2.9,11.6,52,0.00,,SKC,0.00,VWS V14.01,2013-03-12 14:59:00,
2013-03-12 10:00:00,36.1,20.2,30.24,SW,225,2.7,10.7,52,0.00,,SKC,0.00,VWS V14.01,2013-03-12 15:00:00,
2013-03-12 10:01:00,36.3,20.4,30.24,SSW,202,2.5,9.8,52,0.00,,SKC,0.00,VWS V14.01,2013-03-12 15:01:00,
2013-03-12 10:02:00,36.5,20.6,30.24,West,270,4.7,18.8,52,0.00,,SKC,0.00,VWS V14.01,2013-03-12 15:02:00,
2013-03-12 10:03:00,36.5,20.6,30.24,SW,225,3.4,13.4,52,0.00,,SKC,0.00,VWS V14.01,2013-03-12 15:03:00,
2013-03-12 10:04:00,36.7,20.7,30.24,West,270,5.4,21.5,52,0.00,,SKC,0.00,VWS V14.01,2013-03-12 15:04:00,
2013-03-12 10:05:00,36.7,20.3,30.24,WSW,248,4.9,19.7,51,0.00,,SKC,0.00,VWS V14.01,2013-03-12 15:05:00,
2013-03-12 10:06:00,36.7,20.3,30.24,WSW,248,4.9,19.7,51,0.00,,SKC,0.00,VWS V14.01,2013-03-12 15:06:00,
2013-03-12 10:07:00,36.9,20.4,30.24,SW,225,4.0,16.1,51,0.00,,SKC,0.00,VWS V14.01,2013-03-12 15:07:00,
2013-03-12 10:08:00,36.9,20.4,30.24,WNW,292,3.1,12.5,51,0.00,,SKC,0.00,VWS V14.01,2013-03-12 15:08:00,
2013-03-12 10:09:00,37.0,20.6,30.24,SW,225,2.5,9.8,51,0.00,,SKC,0.00,VWS V14.01,2013-03-12 15:09:00,
2013-03-12 10:10:00,37.0,20.6,30.24,WSW,248,5.8,23.3,51,0.00,,SKC,0.00,VWS V14.01,2013-03-12 15:10:00,
2013-03-12 10:11:00,37.6,20.6,30.24,WSW,248,3.1,12.5,50,0.00,,SKC,0.00,VWS V14.01,2013-03-12 15:11:00,
2013-03-12 10:12:00,37.9,21.0,30.24,NW,315,2.5,9.8,50,0.00,,SKC,0.00,VWS V14.01,2013-03-12 15:12:00,
2013-03-12 10:13:00,37.9,21.0,30.24,NNW,338,3.6,14.3,50,0.00,,SKC,0.00,VWS V14.01,2013-03-12 15:13:00,
2013-03-12 10:14:00,38.3,21.3,30.24,SW,225,3.1,12.5,50,0.00,,SKC,0.00,VWS V14.01,2013-03-12 15:14:00,
2013-03-12 10:15:00,38.3,21.3,30.24,SW,225,3.1,12.5,50,0.00,,SKC,0.00,VWS V14.01,2013-03-12 15:15:00,
2013-03-12 10:16:00,38.3,21.3,30.24,WSW,248,2.9,11.6,50,0.00,,SKC,0.00,VWS V14.01,2013-03-12 15:16:00,
2013-03-12 10:17:00,38.3,21.3,30.24,WSW,248,3.1,12.5,50,0.00,,SKC,0.00,VWS V14.01,2013-03-12 15:17:00,
2013-03-12 10:18:00,38.7,21.6,30.24,WSW,248,3.1,12.5,50,0.00,,SKC,0.00,VWS V14.01,2013-03-12 15:18:00,
2013-03-12 10:19:00,39.0,21.5,30.24,WSW,248,3.1,12.5,49,0.00,,SKC,0.00,VWS V14.01,2013-03-12 15:19:00,
2013-03-12 10:20:00,39.0,21.5,30.24,SW,225,2.9,11.6,49,0.00,,SKC,0.00,VWS V14.01,2013-03-12 15:20:00,
2013-03-12 10:21:00,39.0,21.5,30.24,WSW,248,3.4,13.4,49,0.00,,SKC,0.00,VWS V14.01,2013-03-12 15:21:00,
2013-03-12 10:22:00,39.0,21.5,30.24,WSW,248,2.9,11.6,49,0.00,,SKC,0.00,VWS V14.01,2013-03-12 15:22:00,
2013-03-12 10:23:00,39.0,21.5,30.24,WSW,248,3.1,12.5,49,0.00,,SKC,0.00,VWS V14.01,2013-03-12 15:23:00,
2013-03-12 10:24:00,39.6,21.5,30.24,West,270,2.5,9.8,48,0.00,,SKC,0.00,VWS V14.01,2013-03-12 15:24:00,
2013-03-12 10:25:00,39.9,22.3,30.24,NW,315,2.5,9.8,49,0.00,,SKC,0.00,VWS V14.01,2013-03-12 15:25:00,
2013-03-12 10:26:00,40.1,22.0,30.24,WNW,292,2.7,10.7,48,0.00,,SKC,0.00,VWS V14.01,2013-03-12 15:26:00,
2013-03-12 10:27:00,40.3,21.7,30.24,SW,225,2.7,10.7,47,0.00,,SKC,0.00,VWS V14.01,2013-03-12 15:27:00,
2013-03-12 10:28:00,40.3,21.7,30.24,West,270,2.5,9.8,47,0.00,,SKC,0.00,VWS V14.01,2013-03-12 15:28:00,
2013-03-12 10:29:00,40.5,21.8,30.24,SSW,202,3.4,13.4,47,0.00,,SKC,0.00,VWS V14.01,2013-03-12 15:29:00,
2013-03-12 10:30:00,40.6,22.0,30.24,NNW,338,2.7,10.7,47,0.00,,SKC,0.00,VWS V14.01,2013-03-12 15:30:00,
2013-03-12 10:31:00,40.8,21.7,30.24,WNW,292,3.8,15.2,46,0.00,,SKC,0.00,VWS V14.01,2013-03-12 15:31:00,
2013-03-12 10:32:00,41.0,21.8,30.24,West,270,2.7,10.7,46,0.00,,SKC,0.00,VWS V14.01,2013-03-12 15:32:00,
2013-03-12 10:33:00,41.0,21.8,30.24,West,270,5.6,22.4,46,0.00,,SKC,0.00,VWS V14.01,2013-03-12 15:33:00,
2013-03-12 10:34:00,41.0,20.8,30.24,WNW,292,4.0,16.1,44,0.00,,SKC,0.00,VWS V14.01,2013-03-12 15:34:00,
2013-03-12 10:35:00,41.5,21.3,30.24,WSW,248,3.8,15.2,44,0.00,,SKC,0.00,VWS V14.01,2013-03-12 15:35:00,
2013-03-12 10:36:00,41.7,21.4,30.24,WSW,248,3.4,13.4,44,0.00,,SKC,0.00,VWS V14.01,2013-03-12 15:36:00,
2013-03-12 10:37:00,42.1,21.8,30.24,SW,225,3.8,15.2,44,0.00,,SKC,0.00,VWS V14.01,2013-03-12 15:37:00,
2013-03-12 10:38:00,42.1,21.8,30.24,WSW,248,3.6,14.3,44,0.00,,SKC,0.00,VWS V14.01,2013-03-12 15:38:00,
2013-03-12 10:39:00,42.4,22.1,30.24,West,270,3.6,14.3,44,0.00,,SKC,0.00,VWS V14.01,2013-03-12 15:39:00,
2013-03-12 10:40:00,43.0,22.6,30.24,WSW,248,4.0,16.1,44,0.00,,SKC,0.00,VWS V14.01,2013-03-12 15:40:00,
2013-03-12 10:41:00,42.8,21.3,30.24,West,270,3.6,14.3,42,0.00,,SKC,0.00,VWS V14.01,2013-03-12 15:41:00,
2013-03-12 10:42:00,43.0,21.5,30.24,NW,315,2.0,8.1,42,0.00,,SKC,0.00,VWS V14.01,2013-03-12 15:42:00,
2013-03-12 10:43:00,43.3,21.8,30.24,WSW,248,1.6,6.3,42,0.00,,SKC,0.00,VWS V14.01,2013-03-12 15:43:00,
2013-03-12 10:44:00,44.4,23.3,30.24,NE,45,1.1,4.5,43,0.00,,SKC,0.00,VWS V14.01,2013-03-12 15:44:00,
2013-03-12 10:45:00,44.4,23.3,30.24,WSW,248,2.9,11.6,43,0.00,,SKC,0.00,VWS V14.01,2013-03-12 15:45:00,
2013-03-12 10:46:00,44.8,23.1,30.24,NNW,338,3.8,15.2,42,0.00,,SKC,0.00,VWS V14.01,2013-03-12 15:46:00,
2013-03-12 10:47:00,44.8,23.1,30.24,WSW,248,2.0,8.1,42,0.00,,SKC,0.00,VWS V14.01,2013-03-12 15:47:00,
2013-03-12 10:48:00,45.1,23.4,30.24,West,270,3.6,14.3,42,0.00,,SKC,0.00,VWS V14.01,2013-03-12 15:48:00,
2013-03-12 10:49:00,45.3,23.6,30.24,NNW,338,2.2,9.0,42,0.00,,SKC,0.00,VWS V14.01,2013-03-12 15:49:00,
2013-03-12 10:50:00,45.3,23.6,30.24,WNW,292,1.3,5.4,42,0.00,,SKC,0.00,VWS V14.01,2013-03-12 15:50:00,
2013-03-12 10:51:00,45.9,23.5,30.24,WNW,292,5.8,23.3,41,0.00,,SKC,0.00,VWS V14.01,2013-03-12 15:51:00,
2013-03-12 10:52:00,46.0,23.7,30.24,SW,225,1.6,6.3,41,0.00,,SKC,0.00,VWS V14.01,2013-03-12 15:52:00,
2013-03-12 10:53:00,46.0,23.7,30.24,NW,315,2.7,10.7,41,0.00,,SKC,0.00,VWS V14.01,2013-03-12 15:53:00,
2013-03-12 10:54:00,46.4,24.0,30.24,WNW,292,5.6,22.4,41,0.00,,SKC,0.00,VWS V14.01,2013-03-12 15:54:00,
2013-03-12 10:55:00,46.8,24.3,30.24,WNW,292,2.5,9.8,41,0.00,,SKC,0.00,VWS V14.01,2013-03-12 15:55:00,
2013-03-12 10:56:00,47.1,24.6,30.24,WSW,248,4.9,19.7,41,0.00,,SKC,0.00,VWS V14.01,2013-03-12 15:56:00,
2013-03-12 10:57:00,46.9,23.9,30.24,WNW,292,2.9,11.6,40,0.00,,SKC,0.00,VWS V14.01,2013-03-12 15:57:00,
2013-03-12 10:58:00,46.6,23.6,30.24,West,270,6.0,24.2,40,0.00,,SKC,0.00,VWS V14.01,2013-03-12 15:58:00,
2013-03-12 10:59:00,46.6,23.6,30.24,North,0,2.9,11.6,40,0.00,,SKC,0.00,VWS V14.01,2013-03-12 15:59:00,
2013-03-12 11:01:00,46.8,23.7,30.24,WSW,248,2.2,9.0,40,0.00,,SKC,0.00,VWS V14.01,2013-03-12 16:01:00,
2013-03-12 11:02:00,46.6,23.0,30.24,SW,225,4.0,16.1,39,0.00,,SKC,0.00,VWS V14.01,2013-03-12 16:02:00,
2013-03-12 11:03:00,46.8,23.1,30.24,NNW,338,3.4,13.4,39,0.00,,SKC,0.00,VWS V14.01,2013-03-12 16:03:00,
2013-03-12 11:04:00,46.8,23.1,30.24,NNW,338,2.7,10.7,39,0.00,,SKC,0.00,VWS V14.01,2013-03-12 16:04:00,
2013-03-12 11:05:00,47.8,24.7,30.24,WSW,248,2.0,8.1,40,0.00,,SKC,0.00,VWS V14.01,2013-03-12 16:05:00,
2013-03-12 11:06:00,48.4,25.2,30.24,SW,225,1.3,5.4,40,0.00,,SKC,0.00,VWS V14.01,2013-03-12 16:06:00,
2013-03-12 11:07:00,48.4,25.2,30.24,SW,225,1.3,5.4,40,0.00,,SKC,0.00,VWS V14.01,2013-03-12 16:07:00,
2013-03-12 11:08:00,49.1,25.8,30.24,NNW,338,1.6,6.3,40,0.00,,SKC,0.00,VWS V14.01,2013-03-12 16:08:00,
2013-03-12 11:09:00,48.6,24.8,30.24,WSW,248,3.6,14.3,39,0.00,,SKC,0.00,VWS V14.01,2013-03-12 16:09:00,
2013-03-12 11:11:00,47.8,23.5,30.24,West,270,2.2,9.0,38,0.00,,SKC,0.00,VWS V14.01,2013-03-12 16:11:00,
2013-03-12 11:12:00,48.6,24.1,30.24,WNW,292,2.5,9.8,38,0.00,,SKC,0.00,VWS V14.01,2013-03-12 16:12:00,
2013-03-12 11:13:00,48.6,24.1,30.24,SW,225,3.1,12.5,38,0.00,,SKC,0.00,VWS V14.01,2013-03-12 16:13:00,
2013-03-12 11:14:00,49.6,25.7,30.24,SW,225,2.9,11.6,39,0.00,,SKC,0.00,VWS V14.01,2013-03-12 16:14:00,
2013-03-12 11:15:00,49.5,24.9,30.24,WSW,248,4.0,16.1,38,0.00,,SKC,0.00,VWS V14.01,2013-03-12 16:15:00,
2013-03-12 11:16:00,49.5,24.9,30.24,WSW,248,2.5,9.8,38,0.00,,SKC,0.00,VWS V14.01,2013-03-12 16:16:00,
2013-03-12 11:17:00,49.5,24.9,30.24,SSW,202,2.7,10.7,38,0.00,,SKC,0.00,VWS V14.01,2013-03-12 16:17:00,
2013-03-12 11:18:00,49.6,25.1,30.24,SW,225,2.7,10.7,38,0.00,,SKC,0.00,VWS V14.01,2013-03-12 16:18:00,
2013-03-12 11:19:00,49.3,24.8,30.24,North,0,2.5,9.8,38,0.00,,SKC,0.00,VWS V14.01,2013-03-12 16:19:00,
2013-03-12 11:20:00,49.6,25.1,30.24,SW,225,3.4,13.4,38,0.00,,SKC,0.00,VWS V14.01,2013-03-12 16:20:00,
2013-03-12 11:21:00,49.3,24.1,30.24,WNW,292,7.8,31.3,37,0.00,,SKC,0.00,VWS V14.01,2013-03-12 16:21:00,
2013-03-12 11:22:00,49.3,24.1,30.24,WSW,248,5.6,22.4,37,0.00,,SKC,0.00,VWS V14.01,2013-03-12 16:22:00,
2013-03-12 11:23:00,48.7,23.6,30.24,WSW,248,7.6,30.4,37,0.00,,SKC,0.00,VWS V14.01,2013-03-12 16:23:00,
2013-03-12 11:24:00,48.7,23.6,30.24,South,180,3.1,12.5,37,0.00,,SKC,0.00,VWS V14.01,2013-03-12 16:24:00,
2013-03-12 11:25:00,49.1,24.0,30.24,WSW,248,2.9,11.6,37,0.00,,SKC,0.00,VWS V14.01,2013-03-12 16:25:00,
2013-03-12 11:26:00,49.1,24.0,30.24,West,270,5.6,22.4,37,0.00,,SKC,0.00,VWS V14.01,2013-03-12 16:26:00,
2013-03-12 11:27:00,49.1,24.0,30.24,West,270,2.9,11.6,37,0.00,,SKC,0.00,VWS V14.01,2013-03-12 16:27:00,
2013-03-12 11:28:00,49.1,24.0,30.24,WSW,248,3.1,12.5,37,0.00,,SKC,0.00,VWS V14.01,2013-03-12 16:28:00,
2013-03-12 11:29:00,49.5,24.3,30.24,WSW,248,4.0,16.1,37,0.00,,SKC,0.00,VWS V14.01,2013-03-12 16:29:00,
2013-03-12 11:30:00,49.5,24.3,30.24,SSW,202,3.1,12.5,37,0.00,,SKC,0.00,VWS V14.01,2013-03-12 16:30:00,
2013-03-12 11:31:00,49.5,24.3,30.24,WSW,248,3.6,14.3,37,0.00,,SKC,0.00,VWS V14.01,2013-03-12 16:31:00,
2013-03-12 11:32:00,49.6,24.5,30.24,WSW,248,3.6,14.3,37,0.00,,SKC,0.00,VWS V14.01,2013-03-12 16:32:00,
2013-03-12 11:33:00,50.2,24.9,30.24,SW,225,1.1,4.5,37,0.00,,SKC,0.00,VWS V14.01,2013-03-12 16:33:00,
2013-03-12 11:34:00,50.9,25.6,30.24,WNW,292,4.7,18.8,37,0.00,,SKC,0.00,VWS V14.01,2013-03-12 16:34:00,
2013-03-12 11:35:00,51.1,25.7,30.24,SW,225,2.9,11.6,37,0.00,,SKC,0.00,VWS V14.01,2013-03-12 16:35:00,
2013-03-12 11:36:00,50.9,24.9,30.24,WSW,248,2.9,11.6,36,0.00,,SKC,0.00,VWS V14.01,2013-03-12 16:36:00,
2013-03-12 11:37:00,51.1,25.1,30.24,ESE,112,3.6,14.3,36,0.00,,SKC,0.00,VWS V14.01,2013-03-12 16:37:00,
2013-03-12 11:38:00,51.1,25.1,30.24,WNW,292,3.1,12.5,36,0.00,,SKC,0.00,VWS V14.01,2013-03-12 16:38:00,
2013-03-12 11:39:00,50.7,24.8,30.24,WNW,292,4.9,19.7,36,0.00,,SKC,0.00,VWS V14.01,2013-03-12 16:39:00,
2013-03-12 11:40:00,50.9,24.9,30.24,SW,225,4.9,19.7,36,0.00,,SKC,0.00,VWS V14.01,2013-03-12 16:40:00,
2013-03-12 11:41:00,51.1,25.1,30.24,West,270,4.7,18.8,36,0.00,,SKC,0.00,VWS V14.01,2013-03-12 16:41:00,
2013-03-12 11:42:00,51.1,24.4,30.24,SW,225,4.3,17.0,35,0.00,,SKC,0.00,VWS V14.01,2013-03-12 16:42:00,
2013-03-12 11:43:00,50.9,23.5,30.24,SW,225,7.2,28.6,34,0.00,,SKC,0.00,VWS V14.01,2013-03-12 16:43:00,
2013-03-12 11:44:00,50.4,22.4,30.24,SW,225,3.6,14.3,33,0.00,,SKC,0.00,VWS V14.01,2013-03-12 16:44:00,
2013-03-12 11:45:00,50.7,23.4,30.24,WSW,248,6.3,25.1,34,0.00,,SKC,0.00,VWS V14.01,2013-03-12 16:45:00,
2013-03-12 11:46:00,50.0,21.3,30.24,SW,225,3.6,14.3,32,0.00,,SKC,0.00,VWS V14.01,2013-03-12 16:46:00,
2013-03-12 11:47:00,50.9,23.5,30.24,WNW,292,2.7,10.7,34,0.00,,SKC,0.00,VWS V14.01,2013-03-12 16:47:00,
2013-03-12 11:48:00,51.3,23.9,30.24,SW,225,2.9,11.6,34,0.00,,SKC,0.00,VWS V14.01,2013-03-12 16:48:00,
2013-03-12 11:49:00,51.3,23.9,30.24,WSW,248,3.4,13.4,34,0.00,,SKC,0.00,VWS V14.01,2013-03-12 16:49:00,
2013-03-12 11:50:00,51.6,24.2,30.24,WSW,248,1.6,6.3,34,0.00,,SKC,0.00,VWS V14.01,2013-03-12 16:50:00,
2013-03-12 11:51:00,51.8,23.6,30.24,SSE,158,2.2,9.0,33,0.00,,SKC,0.00,VWS V14.01,2013-03-12 16:51:00,
2013-03-12 11:52:00,51.8,23.6,30.24,WSW,248,6.5,26.0,33,0.00,,SKC,0.00,VWS V14.01,2013-03-12 16:52:00,
2013-03-12 11:53:00,51.8,23.6,30.24,WSW,248,6.5,26.0,33,0.00,,SKC,0.00,VWS V14.01,2013-03-12 16:53:00,
2013-03-12 11:54:00,51.8,23.6,30.24,SSW,202,2.5,9.8,33,0.00,,SKC,0.00,VWS V14.01,2013-03-12 16:54:00,
2013-03-12 11:55:00,51.8,23.6,30.24,West,270,2.9,11.6,33,0.00,,SKC,0.00,VWS V14.01,2013-03-12 16:55:00,
2013-03-12 11:56:00,52.2,23.2,30.24,SW,225,1.6,6.3,32,0.00,,SKC,0.00,VWS V14.01,2013-03-12 16:56:00,
2013-03-12 11:57:00,52.5,24.3,30.24,SW,225,2.5,9.8,33,0.00,,SKC,0.00,VWS V14.01,2013-03-12 16:57:00,
2013-03-12 11:58:00,52.7,24.4,30.24,SW,225,3.8,15.2,33,0.00,,SKC,0.00,VWS V14.01,2013-03-12 16:58:00,
2013-03-12 11:59:00,52.7,23.7,30.24,SSW,202,2.5,9.8,32,0.00,,SKC,0.00,VWS V14.01,2013-03-12 16:59:00,
2013-03-12 12:00:00,52.3,22.6,30.24,WSW,248,2.9,11.6,31,0.00,,SKC,0.00,VWS V14.01,2013-03-12 17:00:00,
2013-03-12 12:01:00,52.7,23.7,30.24,WSW,248,3.4,13.4,32,0.00,,SKC,0.00,VWS V14.01,2013-03-12 17:01:00,
2013-03-12 12:02:00,52.0,22.3,30.24,WSW,248,3.6,14.3,31,0.00,,SKC,0.00,VWS V14.01,2013-03-12 17:02:00,
2013-03-12 12:03:00,52.0,22.3,30.24,WSW,248,4.9,19.7,31,0.00,,SKC,0.00,VWS V14.01,2013-03-12 17:03:00,
2013-03-12 12:04:00,52.0,22.3,30.24,West,270,2.9,11.6,31,0.00,,SKC,0.00,VWS V14.01,2013-03-12 17:04:00,
2013-03-12 12:05:00,52.7,24.4,30.24,SW,225,2.5,9.8,33,0.00,,SKC,0.00,VWS V14.01,2013-03-12 17:05:00,
2013-03-12 12:06:00,53.1,24.7,30.24,NW,315,0.9,3.6,33,0.00,,SKC,0.00,VWS V14.01,2013-03-12 17:06:00,
2013-03-12 12:07:00,53.1,24.0,30.24,WSW,248,5.8,23.3,32,0.00,,SKC,0.00,VWS V14.01,2013-03-12 17:07:00,
2013-03-12 12:08:00,53.1,24.0,30.24,WNW,292,4.7,18.8,32,0.00,,SKC,0.00,VWS V14.01,2013-03-12 17:08:00,
2013-03-12 12:09:00,53.6,24.5,30.24,West,270,3.8,15.2,32,0.00,,SKC,0.00,VWS V14.01,2013-03-12 17:09:00,
2013-03-12 12:10:00,53.4,23.6,30.24,WSW,248,2.5,9.8,31,0.00,,SKC,0.00,VWS V14.01,2013-03-12 17:10:00,
2013-03-12 12:11:00,53.4,23.6,30.24,WSW,248,8.5,34.0,31,0.00,,SKC,0.00,VWS V14.01,2013-03-12 17:11:00,
2013-03-12 12:12:00,52.2,20.9,30.24,WSW,248,3.1,12.5,29,0.00,,SKC,0.00,VWS V14.01,2013-03-12 17:12:00,
2013-03-12 12:13:00,52.5,22.8,30.24,West,270,1.6,6.3,31,0.00,,SKC,0.00,VWS V14.01,2013-03-12 17:13:00,
2013-03-12 12:14:00,53.1,22.5,30.24,West,270,4.3,17.0,30,0.00,,SKC,0.00,VWS V14.01,2013-03-12 17:14:00,
2013-03-12 12:15:00,53.1,23.2,30.24,West,270,3.8,15.2,31,0.00,,SKC,0.00,VWS V14.01,2013-03-12 17:15:00,
2013-03-12 12:16:00,53.1,23.2,30.24,WSW,248,2.7,10.7,31,0.00,,SKC,0.00,VWS V14.01,2013-03-12 17:16:00,
2013-03-12 12:17:00,54.1,25.0,30.24,West,270,2.5,9.8,32,0.00,,SKC,0.00,VWS V14.01,2013-03-12 17:17:00,
2013-03-12 12:18:00,54.5,25.3,30.24,SW,225,2.5,9.8,32,0.00,,SKC,0.00,VWS V14.01,2013-03-12 17:18:00,
2013-03-12 12:19:00,54.7,25.4,30.24,SSW,202,2.5,9.8,32,0.00,,SKC,0.00,VWS V14.01,2013-03-12 17:19:00,
2013-03-12 12:20:00,55.0,25.7,30.24,SW,225,3.6,14.3,32,0.00,,SKC,0.00,VWS V14.01,2013-03-12 17:20:00,
2013-03-12 12:21:00,54.9,24.8,30.24,SW,225,2.7,10.7,31,0.00,,SKC,0.00,VWS V14.01,2013-03-12 17:21:00,
2013-03-12 12:22:00,54.7,23.9,30.24,WSW,248,6.3,25.1,30,0.00,,SKC,0.00,VWS V14.01,2013-03-12 17:22:00,
2013-03-12 12:23:00,54.7,23.9,30.24,WSW,248,7.2,28.6,30,0.00,,SKC,0.00,VWS V14.01,2013-03-12 17:23:00,
2013-03-12 12:24:00,53.6,22.9,30.24,SW,225,3.4,13.4,30,0.00,,SKC,0.00,VWS V14.01,2013-03-12 17:24:00,
2013-03-12 12:25:00,53.1,21.7,30.24,SSW,202,3.6,14.3,29,0.00,,SKC,0.00,VWS V14.01,2013-03-12 17:25:00,
2013-03-12 12:26:00,53.1,21.7,30.24,WSW,248,2.9,11.6,29,0.00,,SKC,0.00,VWS V14.01,2013-03-12 17:26:00,
2013-03-12 12:27:00,52.9,21.5,30.24,WSW,248,4.9,19.7,29,0.00,,SKC,0.00,VWS V14.01,2013-03-12 17:27:00,
2013-03-12 12:28:00,52.7,21.4,30.24,West,270,6.3,25.1,29,0.00,,SKC,0.00,VWS V14.01,2013-03-12 17:28:00,
2013-03-12 12:29:00,52.7,21.4,30.24,SSW,202,3.4,13.4,29,0.00,,SKC,0.00,VWS V14.01,2013-03-12 17:29:00,
2013-03-12 12:31:00,52.5,22.0,30.24,West,270,4.3,17.0,30,0.00,,SKC,0.00,VWS V14.01,2013-03-12 17:31:00,
2013-03-12 12:32:00,52.3,21.0,30.24,SSW,202,0.9,3.6,29,0.00,,SKC,0.00,VWS V14.01,2013-03-12 17:32:00,
2013-03-12 12:33:00,52.3,21.8,30.24,South,180,4.0,16.1,30,0.00,,SKC,0.00,VWS V14.01,2013-03-12 17:33:00,
2013-03-12 12:34:00,53.1,22.5,30.24,West,270,3.1,12.5,30,0.00,,SKC,0.00,VWS V14.01,2013-03-12 17:34:00,
2013-03-12 12:35:00,53.1,22.5,30.24,SW,225,5.4,21.5,30,0.00,,SKC,0.00,VWS V14.01,2013-03-12 17:35:00,
2013-03-12 12:36:00,53.8,23.1,30.24,WSW,248,2.0,8.1,30,0.00,,SKC,0.00,VWS V14.01,2013-03-12 17:36:00,
2013-03-12 12:37:00,54.0,24.0,30.24,East,90,3.1,12.5,31,0.00,,SKC,0.00,VWS V14.01,2013-03-12 17:37:00,
2013-03-12 12:38:00,54.0,24.0,30.24,WSW,248,5.4,21.5,31,0.00,,SKC,0.00,VWS V14.01,2013-03-12 17:38:00,
2013-03-12 12:39:00,53.8,23.1,30.24,WSW,248,7.4,29.5,30,0.00,,SKC,0.00,VWS V14.01,2013-03-12 17:39:00,
2013-03-12 12:40:00,53.8,22.3,30.24,West,270,6.5,26.0,29,0.00,,SKC,0.00,VWS V14.01,2013-03-12 17:40:00,
2013-03-12 12:41:00,53.2,21.8,30.24,WSW,248,2.9,11.6,29,0.00,,SKC,0.00,VWS V14.01,2013-03-12 17:41:00,
2013-03-12 12:42:00,53.4,22.8,30.24,SE,135,6.3,25.1,30,0.00,,SKC,0.00,VWS V14.01,2013-03-12 17:42:00,
2013-03-12 12:43:00,53.1,21.7,30.24,WSW,248,8.5,34.0,29,0.00,,SKC,0.00,VWS V14.01,2013-03-12 17:43:00,
2013-03-12 12:44:00,52.9,21.5,30.24,NW,315,2.0,8.1,29,0.00,,SKC,0.00,VWS V14.01,2013-03-12 17:44:00,
2013-03-12 12:45:00,53.2,21.8,30.24,NNW,338,3.1,12.5,29,0.00,,SKC,0.00,VWS V14.01,2013-03-12 17:45:00,
2013-03-12 12:46:00,53.1,22.5,30.24,SSE,158,2.7,10.7,30,0.00,,SKC,0.00,VWS V14.01,2013-03-12 17:46:00,
2013-03-12 12:47:00,53.4,22.8,30.24,WSW,248,4.9,19.7,30,0.00,,SKC,0.00,VWS V14.01,2013-03-12 17:47:00,
2013-03-12 12:48:00,53.1,21.7,30.24,West,270,6.3,25.1,29,0.00,,SKC,0.00,VWS V14.01,2013-03-12 17:48:00,
2013-03-12 12:49:00,53.8,23.1,30.24,SSW,202,1.6,6.3,30,0.00,,SKC,0.00,VWS V14.01,2013-03-12 17:49:00,
2013-03-12 12:50:00,53.8,23.1,30.24,SSW,202,1.6,6.3,30,0.00,,SKC,0.00,VWS V14.01,2013-03-12 17:50:00,
2013-03-12 12:51:00,53.4,22.0,30.24,WSW,248,4.9,19.7,29,0.00,,SKC,0.00,VWS V14.01,2013-03-12 17:51:00,
2013-03-12 12:52:00,53.4,22.0,30.24,WSW,248,4.9,19.7,29,0.00,,SKC,0.00,VWS V14.01,2013-03-12 17:52:00,
2013-03-12 12:53:00,53.4,22.0,30.24,SW,225,2.0,8.1,29,0.00,,SKC,0.00,VWS V14.01,2013-03-12 17:53:00,
2013-03-12 12:54:00,53.2,21.8,30.24,WSW,248,7.8,31.3,29,0.00,,SKC,0.00,VWS V14.01,2013-03-12 17:54:00,
2013-03-12 12:55:00,53.8,23.1,30.24,ESE,112,4.0,16.1,30,0.00,,SKC,0.00,VWS V14.01,2013-03-12 17:55:00,
2013-03-12 12:56:00,53.8,22.3,30.24,NW,315,2.0,8.1,29,0.00,,SKC,0.00,VWS V14.01,2013-03-12 17:56:00,
2013-03-12 12:58:00,54.1,22.6,30.24,SSW,202,1.1,4.5,29,0.00,,SKC,0.00,VWS V14.01,2013-03-12 17:58:00,
2013-03-12 12:59:00,55.6,24.7,30.24,SW,225,1.1,4.5,30,0.00,,SKC,0.00,VWS V14.01,2013-03-12 17:59:00,
2013-03-12 13:00:00,55.6,23.9,30.24,WSW,248,4.0,16.1,29,0.00,,SKC,0.00,VWS V14.01,2013-03-12 18:00:00,
2013-03-12 13:01:00,55.0,23.4,30.24,SSW,202,3.1,12.5,29,0.00,,SKC,0.00,VWS V14.01,2013-03-12 18:01:00,
2013-03-12 13:02:00,55.0,23.4,30.24,SW,225,4.7,18.8,29,0.00,,SKC,0.00,VWS V14.01,2013-03-12 18:02:00,
2013-03-12 13:03:00,54.3,22.8,30.24,SW,225,2.9,11.6,29,0.00,,SKC,0.00,VWS V14.01,2013-03-12 18:03:00,
2013-03-12 13:04:00,54.0,22.5,30.24,SSW,202,3.4,13.4,29,0.00,,SKC,0.00,VWS V14.01,2013-03-12 18:04:00,
2013-03-12 13:05:00,53.8,21.5,30.24,WSW,248,4.0,16.1,28,0.00,,SKC,0.00,VWS V14.01,2013-03-12 18:05:00,
2013-03-12 13:06:00,53.8,22.3,30.24,NW,315,2.9,11.6,29,0.00,,SKC,0.00,VWS V14.01,2013-03-12 18:06:00,
2013-03-12 13:07:00,53.6,22.9,30.24,WSW,248,2.7,10.7,30,0.00,,SKC,0.00,VWS V14.01,2013-03-12 18:07:00,
2013-03-12 13:08:00,53.6,22.9,30.24,WSW,248,2.5,9.8,30,0.00,,SKC,0.00,VWS V14.01,2013-03-12 18:08:00,
2013-03-12 13:09:00,53.6,22.9,30.24,WSW,248,5.6,22.4,30,0.00,,SKC,0.00,VWS V14.01,2013-03-12 18:09:00,
2013-03-12 13:11:00,53.4,22.8,30.24,West,270,5.6,22.4,30,0.00,,SKC,0.00,VWS V14.01,2013-03-12 18:11:00,
2013-03-12 13:12:00,53.2,21.8,30.24,SW,225,3.6,14.3,29,0.00,,SKC,0.00,VWS V14.01,2013-03-12 18:12:00,
2013-03-12 13:13:00,53.2,21.8,30.24,SW,225,3.6,14.3,29,0.00,,SKC,0.00,VWS V14.01,2013-03-12 18:13:00,
2013-03-12 13:14:00,53.1,20.8,30.24,West,270,7.8,31.3,28,0.00,,SKC,0.00,VWS V14.01,2013-03-12 18:14:00,
2013-03-12 13:15:00,52.7,20.5,30.24,NE,45,5.8,23.3,28,0.00,,SKC,0.00,VWS V14.01,2013-03-12 18:15:00,
2013-03-12 13:16:00,53.1,20.8,30.24,West,270,2.5,9.8,28,0.00,,SKC,0.00,VWS V14.01,2013-03-12 18:16:00,
2013-03-12 13:17:00,53.4,22.0,30.24,WSW,248,1.6,6.3,29,0.00,,SKC,0.00,VWS V14.01,2013-03-12 18:17:00,
2013-03-12 13:18:00,53.8,22.3,30.24,NNW,338,2.5,9.8,29,0.00,,SKC,0.00,VWS V14.01,2013-03-12 18:18:00,
2013-03-12 13:19:00,54.0,22.5,30.24,SSW,202,2.5,9.8,29,0.00,,SKC,0.00,VWS V14.01,2013-03-12 18:19:00,
2013-03-12 13:21:00,54.0,21.6,30.24,WNW,292,3.1,12.5,28,0.00,,SKC,0.00,VWS V14.01,2013-03-12 18:21:00,
2013-03-12 13:22:00,54.1,22.6,30.24,WSW,248,2.5,9.8,29,0.00,,SKC,0.00,VWS V14.01,2013-03-12 18:22:00,
2013-03-12 13:23:00,54.1,22.6,30.24,WNW,292,1.1,4.5,29,0.00,,SKC,0.00,VWS V14.01,2013-03-12 18:23:00,
2013-03-12 13:24:00,54.3,22.8,30.24,SW,225,6.3,25.1,29,0.00,,SKC,0.00,VWS V14.01,2013-03-12 18:24:00,
2013-03-12 13:25:00,54.3,22.8,30.24,WSW,248,1.3,5.4,29,0.00,,SKC,0.00,VWS V14.01,2013-03-12 18:25:00,
2013-03-12 13:26:00,54.1,21.8,30.24,NNW,338,3.1,12.5,28,0.00,,SKC,0.00,VWS V14.01,2013-03-12 18:26:00,
2013-03-12 13:27:00,54.1,21.8,30.24,West,270,10.3,41.2,28,0.00,,SKC,0.00,VWS V14.01,2013-03-12 18:27:00,
2013-03-12 13:28:00,53.6,20.5,30.24,WNW,292,2.5,9.8,27,0.00,,SKC,0.00,VWS V14.01,2013-03-12 18:28:00,
2013-03-12 13:30:00,53.4,20.3,30.24,SW,225,3.4,13.4,27,0.00,,SKC,0.00,VWS V14.01,2013-03-12 18:30:00,
2013-03-12 13:31:00,53.6,20.5,30.24,SW,225,4.3,17.0,27,0.00,,SKC,0.00,VWS V14.01,2013-03-12 18:31:00,
2013-03-12 13:32:00,54.0,21.6,30.24,NE,45,3.1,12.5,28,0.00,,SKC,0.00,VWS V14.01,2013-03-12 18:32:00,
2013-03-12 13:33:00,53.6,20.5,30.24,SW,225,5.4,21.5,27,0.00,,SKC,0.00,VWS V14.01,2013-03-12 18:33:00,
2013-03-12 13:34:00,53.6,20.5,30.24,WNW,292,2.5,9.8,27,0.00,,SKC,0.00,VWS V14.01,2013-03-12 18:34:00,
2013-03-12 13:35:00,54.0,20.8,30.24,NNW,338,3.8,15.2,27,0.00,,SKC,0.00,VWS V14.01,2013-03-12 18:35:00,
2013-03-12 13:36:00,54.0,20.8,30.24,SW,225,7.8,31.3,27,0.00,,SKC,0.00,VWS V14.01,2013-03-12 18:36:00,
2013-03-12 13:37:00,54.0,20.8,30.24,SSW,202,2.7,10.7,27,0.00,,SKC,0.00,VWS V14.01,2013-03-12 18:37:00,
2013-03-12 13:38:00,54.0,20.8,30.24,SSW,202,2.7,10.7,27,0.00,,SKC,0.00,VWS V14.01,2013-03-12 18:38:00,
2013-03-12 13:39:00,54.0,20.8,30.24,SSW,202,2.5,9.8,27,0.00,,SKC,0.00,VWS V14.01,2013-03-12 18:39:00,
2013-03-12 13:40:00,54.0,20.8,30.24,SW,225,3.1,12.5,27,0.00,,SKC,0.00,VWS V14.01,2013-03-12 18:40:00,
2013-03-12 13:41:00,54.0,20.8,30.24,SW,225,6.3,25.1,27,0.00,,SKC,0.00,VWS V14.01,2013-03-12 18:41:00,
2013-03-12 13:42:00,54.1,20.9,30.24,WNW,292,5.4,21.5,27,0.00,,SKC,0.00,VWS V14.01,2013-03-12 18:42:00,
2013-03-12 13:43:00,54.0,20.8,30.24,NE,45,3.1,12.5,27,0.00,,SKC,0.00,VWS V14.01,2013-03-12 18:43:00,
2013-03-12 13:44:00,54.3,21.1,30.24,NE,45,3.1,12.5,27,0.00,,SKC,0.00,VWS V14.01,2013-03-12 18:44:00,
2013-03-12 13:45:00,54.3,21.1,30.24,SSW,202,1.3,5.4,27,0.00,,SKC,0.00,VWS V14.01,2013-03-12 18:45:00,
2013-03-12 13:46:00,54.5,22.1,30.24,South,180,3.6,14.3,28,0.00,,SKC,0.00,VWS V14.01,2013-03-12 18:46:00,
2013-03-12 13:47:00,54.1,21.8,30.24,NW,315,3.8,15.2,28,0.00,,SKC,0.00,VWS V14.01,2013-03-12 18:47:00,
2013-03-12 13:48:00,53.8,19.7,30.24,SW,225,8.1,32.2,26,0.00,,SKC,0.00,VWS V14.01,2013-03-12 18:48:00,
2013-03-12 13:49:00,53.4,20.3,30.24,WSW,248,3.4,13.4,27,0.00,,SKC,0.00,VWS V14.01,2013-03-12 18:49:00,
2013-03-12 13:50:00,53.4,20.3,30.24,WSW,248,5.8,23.3,27,0.00,,SKC,0.00,VWS V14.01,2013-03-12 18:50:00,
2013-03-12 13:51:00,53.4,20.3,30.24,SW,225,2.7,10.7,27,0.00,,SKC,0.00,VWS V14.01,2013-03-12 18:51:00,
2013-03-12 13:52:00,53.8,20.6,30.24,WSW,248,3.4,13.4,27,0.00,,SKC,0.00,VWS V14.01,2013-03-12 18:52:00,
2013-03-12 13:53:00,53.8,20.6,30.24,WSW,248,3.4,13.4,27,0.00,,SKC,0.00,VWS V14.01,2013-03-12 18:53:00,
2013-03-12 13:54:00,54.1,20.0,30.24,SW,225,5.6,22.4,26,0.00,,SKC,0.00,VWS V14.01,2013-03-12 18:54:00,
2013-03-12 13:55:00,53.6,19.6,30.24,WSW,248,3.6,14.3,26,0.00,,SKC,0.00,VWS V14.01,2013-03-12 18:55:00,
2013-03-12 13:56:00,54.0,19.9,30.24,SE,135,2.0,8.1,26,0.00,,SKC,0.00,VWS V14.01,2013-03-12 18:56:00,
2013-03-12 13:57:00,54.0,19.9,30.24,NNE,22,2.9,11.6,26,0.00,,SKC,0.00,VWS V14.01,2013-03-12 18:57:00,
2013-03-12 13:58:00,54.1,20.0,30.24,WNW,292,5.4,21.5,26,0.00,,SKC,0.00,VWS V14.01,2013-03-12 18:58:00,
2013-03-12 13:59:00,54.0,19.9,30.24,West,270,2.7,10.7,26,0.00,,SKC,0.00,VWS V14.01,2013-03-12 18:59:00,
2013-03-12 14:00:00,54.3,20.2,30.24,SW,225,5.4,21.5,26,0.00,,SKC,0.00,VWS V14.01,2013-03-12 19:00:00,
2013-03-12 14:01:00,54.5,20.3,30.24,SW,225,3.4,13.4,26,0.00,,SKC,0.00,VWS V14.01,2013-03-12 19:01:00,
2013-03-12 14:02:00,54.9,21.5,30.24,WSW,248,3.4,13.4,27,0.00,,SKC,0.00,VWS V14.01,2013-03-12 19:02:00,
2013-03-12 14:03:00,54.1,19.1,30.24,West,270,3.6,14.3,25,0.00,,SKC,0.00,VWS V14.01,2013-03-12 19:03:00,
2013-03-12 14:04:00,54.1,20.0,30.24,SW,225,5.6,22.4,26,0.00,,SKC,0.00,VWS V14.01,2013-03-12 19:04:00,
2013-03-12 14:05:00,53.8,19.7,30.24,WSW,248,5.8,23.3,26,0.00,,SKC,0.00,VWS V14.01,2013-03-12 19:05:00,
2013-03-12 14:07:00,53.8,19.7,30.24,WSW,248,8.1,32.2,26,0.00,,SKC,0.00,VWS V14.01,2013-03-12 19:07:00,
2013-03-12 14:08:00,53.6,19.6,30.24,North,0,3.6,14.3,26,0.00,,SKC,0.00,VWS V14.01,2013-03-12 19:08:00,
2013-03-12 14:09:00,53.8,19.7,30.24,WSW,248,4.3,17.0,26,0.00,,SKC,0.00,VWS V14.01,2013-03-12 19:09:00,
2013-03-12 14:10:00,53.4,16.6,30.24,WSW,248,3.1,12.5,23,0.00,,SKC,0.00,VWS V14.01,2013-03-12 19:10:00,
2013-03-12 14:11:00,53.6,18.6,30.24,WSW,248,3.1,12.5,25,0.00,,SKC,0.00,VWS V14.01,2013-03-12 19:11:00,
2013-03-12 14:12:00,54.0,19.9,30.24,SW,225,4.3,17.0,26,0.00,,SKC,0.00,VWS V14.01,2013-03-12 19:12:00,
2013-03-12 14:13:00,54.0,19.9,30.24,SW,225,4.3,17.0,26,0.00,,SKC,0.00,VWS V14.01,2013-03-12 19:13:00,
2013-03-12 14:14:00,53.6,16.7,30.24,WSW,248,6.5,26.0,23,0.00,,SKC,0.00,VWS V14.01,2013-03-12 19:14:00,
2013-03-12 14:15:00,53.4,19.4,30.24,WSW,248,3.6,14.3,26,0.00,,SKC,0.00,VWS V14.01,2013-03-12 19:15:00,
2013-03-12 14:16:00,53.4,19.4,30.24,WSW,248,2.9,11.6,26,0.00,,SKC,0.00,VWS V14.01,2013-03-12 19:16:00,
2013-03-12 14:17:00,53.4,19.4,30.24,NW,315,4.3,17.0,26,0.00,,SKC,0.00,VWS V14.01,2013-03-12 19:17:00,
2013-03-12 14:18:00,54.0,19.9,30.21,SW,225,4.3,17.0,26,0.00,,SKC,0.00,VWS V14.01,2013-03-12 19:18:00,
2013-03-12 14:19:00,54.1,20.0,30.21,NNW,338,2.7,10.7,26,0.00,,SKC,0.00,VWS V14.01,2013-03-12 19:19:00,
2013-03-12 14:20:00,54.1,20.0,30.21,WSW,248,7.8,31.3,26,0.00,,SKC,0.00,VWS V14.01,2013-03-12 19:20:00,
2013-03-12 14:21:00,53.1,19.1,30.21,WNW,292,4.9,19.7,26,0.00,,SKC,0.00,VWS V14.01,2013-03-12 19:21:00,
2013-03-12 14:22:00,52.9,16.1,30.21,South,180,6.9,27.7,23,0.00,,SKC,0.00,VWS V14.01,2013-03-12 19:22:00,
2013-03-12 14:23:00,52.9,16.1,30.21,West,270,3.4,13.4,23,0.00,,SKC,0.00,VWS V14.01,2013-03-12 19:23:00,
2013-03-12 14:24:00,53.1,19.1,30.21,WSW,248,5.6,22.4,26,0.00,,SKC,0.00,VWS V14.01,2013-03-12 19:24:00,
2013-03-12 14:25:00,53.2,19.3,30.21,West,270,5.6,22.4,26,0.00,,SKC,0.00,VWS V14.01,2013-03-12 19:25:00,
2013-03-12 14:26:00,53.4,19.4,30.21,SW,225,12.1,48.3,26,0.00,,SKC,0.00,VWS V14.01,2013-03-12 19:26:00,
2013-03-12 14:27:00,53.1,14.2,30.21,NW,315,7.4,29.5,21,0.00,,SKC,0.00,VWS V14.01,2013-03-12 19:27:00,
2013-03-12 14:28:00,53.2,19.3,30.21,West,270,4.0,16.1,26,0.00,,SKC,0.00,VWS V14.01,2013-03-12 19:28:00,
2013-03-12 14:29:00,53.4,16.6,30.21,WNW,292,4.9,19.7,23,0.00,,SKC,0.00,VWS V14.01,2013-03-12 19:29:00,
2013-03-12 14:30:00,53.4,16.6,30.21,WSW,248,10.1,40.3,23,0.00,,SKC,0.00,VWS V14.01,2013-03-12 19:30:00,
2013-03-12 14:31:00,53.4,16.6,30.21,WSW,248,3.6,14.3,23,0.00,,SKC,0.00,VWS V14.01,2013-03-12 19:31:00,
2013-03-12 14:32:00,54.1,20.0,30.21,WNW,292,2.9,11.6,26,0.00,,SKC,0.00,VWS V14.01,2013-03-12 19:32:00,
2013-03-12 14:33:00,54.1,20.0,30.21,WNW,292,2.5,9.8,26,0.00,,SKC,0.00,VWS V14.01,2013-03-12 19:33:00,
2013-03-12 14:34:00,54.0,13.8,30.21,NW,315,7.4,29.5,20,0.00,,SKC,0.00,VWS V14.01,2013-03-12 19:34:00,
2013-03-12 14:35:00,54.1,17.2,30.21,WSW,248,7.8,31.3,23,0.00,,SKC,0.00,VWS V14.01,2013-03-12 19:35:00,
2013-03-12 14:36:00,54.1,17.2,30.21,SW,225,10.3,41.2,23,0.00,,SKC,0.00,VWS V14.01,2013-03-12 19:36:00,
2013-03-12 14:37:00,53.8,7.2,30.21,WSW,248,10.5,42.1,15,0.00,,SKC,0.00,VWS V14.01,2013-03-12 19:37:00,
2013-03-12 14:38:00,53.8,13.7,30.21,West,270,4.0,16.1,20,0.00,,SKC,0.00,VWS V14.01,2013-03-12 19:38:00,
2013-03-12 14:39:00,54.0,13.8,30.21,West,270,4.9,19.7,20,0.00,,SKC,0.00,VWS V14.01,2013-03-12 19:39:00,
2013-03-12 14:40:00,54.0,13.8,30.21,SW,225,11.0,43.9,20,0.00,,SKC,0.00,VWS V14.01,2013-03-12 19:40:00,
2013-03-12 14:41:00,53.6,7.1,30.21,WSW,248,5.8,23.3,15,0.00,,SKC,0.00,VWS V14.01,2013-03-12 19:41:00,
2013-03-12 14:43:00,53.4,3.8,30.21,WSW,248,10.7,43.0,13,0.00,,SKC,0.00,VWS V14.01,2013-03-12 19:43:00,
2013-03-12 14:44:00,53.6,7.1,30.21,WNW,292,9.0,35.8,15,0.00,,SKC,0.00,VWS V14.01,2013-03-12 19:44:00,
2013-03-12 14:45:00,53.6,7.1,30.21,WSW,248,7.4,29.5,15,0.00,,SKC,0.00,VWS V14.01,2013-03-12 19:45:00,
2013-03-12 14:46:00,54.1,11.6,30.21,WNW,292,3.1,12.5,18,0.00,,SKC,0.00,VWS V14.01,2013-03-12 19:46:00,
2013-03-12 14:47:00,54.1,7.5,30.21,SW,225,6.9,27.7,15,0.00,,SKC,0.00,VWS V14.01,2013-03-12 19:47:00,
2013-03-12 14:48:00,54.3,4.5,30.21,SW,225,5.4,21.5,13,0.00,,SKC,0.00,VWS V14.01,2013-03-12 19:48:00,
2013-03-12 14:49:00,54.3,4.5,30.21,SW,225,5.4,21.5,13,0.00,,SKC,0.00,VWS V14.01,2013-03-12 19:49:00,
2013-03-12 14:50:00,54.0,4.2,30.21,West,270,5.8,23.3,13,0.00,,SKC,0.00,VWS V14.01,2013-03-12 19:50:00,
2013-03-12 14:51:00,54.3,7.7,30.21,NW,315,4.0,16.1,15,0.00,,SKC,0.00,VWS V14.01,2013-03-12 19:51:00,
2013-03-12 14:52:00,54.1,-1.2,30.21,SW,225,4.0,16.1,10,0.00,,SKC,0.00,VWS V14.01,2013-03-12 19:52:00,
2013-03-12 14:53:00,53.1,3.5,30.21,WSW,248,8.1,32.2,13,0.00,,SKC,0.00,VWS V14.01,2013-03-12 19:53:00,
2013-03-12 14:54:00,52.9,3.4,30.21,SE,135,3.6,14.3,13,0.00,,SKC,0.00,VWS V14.01,2013-03-12 19:54:00,
2013-03-12 14:55:00,53.1,3.5,30.21,SW,225,4.9,19.7,13,0.00,,SKC,0.00,VWS V14.01,2013-03-12 19:55:00,
2013-03-12 14:56:00,52.9,3.4,30.21,WSW,248,4.5,17.9,13,0.00,,SKC,0.00,VWS V14.01,2013-03-12 19:56:00,
2013-03-12 14:57:00,53.4,8.4,30.21,SW,225,8.7,34.9,16,0.00,,SKC,0.00,VWS V14.01,2013-03-12 19:57:00,
2013-03-12 14:58:00,53.4,8.4,30.21,WSW,248,7.6,30.4,16,0.00,,SKC,0.00,VWS V14.01,2013-03-12 19:58:00,
2013-03-12 14:59:00,53.4,8.4,30.21,WSW,248,10.7,43.0,16,0.00,,SKC,0.00,VWS V14.01,2013-03-12 19:59:00,
2013-03-12 15:00:00,53.4,8.4,30.21,North,0,4.0,16.1,16,0.00,,SKC,0.00,VWS V14.01,2013-03-12 20:00:00,
2013-03-12 15:01:00,52.9,3.4,30.21,WSW,248,3.6,14.3,13,0.00,,SKC,0.00,VWS V14.01,2013-03-12 20:01:00,
2013-03-12 15:02:00,53.2,8.2,30.18,WNW,292,4.3,17.0,16,0.00,,SKC,0.00,VWS V14.01,2013-03-12 20:02:00,
2013-03-12 15:03:00,53.6,7.1,30.18,WNW,292,11.0,43.9,15,0.00,,SKC,0.00,VWS V14.01,2013-03-12 20:03:00,
2013-03-12 15:04:00,53.8,7.2,30.18,North,0,3.1,12.5,15,0.00,,SKC,0.00,VWS V14.01,2013-03-12 20:04:00,
2013-03-12 15:05:00,53.6,13.5,30.18,SSW,202,2.9,11.6,20,0.00,,SKC,0.00,VWS V14.01,2013-03-12 20:05:00,
2013-03-12 15:06:00,53.6,13.5,30.18,SSW,202,2.9,11.6,20,0.00,,SKC,0.00,VWS V14.01,2013-03-12 20:06:00,
2013-03-12 15:07:00,53.8,11.3,30.18,North,0,2.9,11.6,18,0.00,,SKC,0.00,VWS V14.01,2013-03-12 20:07:00,
2013-03-12 15:08:00,54.1,11.6,30.18,WNW,292,4.3,17.0,18,0.00,,SKC,0.00,VWS V14.01,2013-03-12 20:08:00,
2013-03-12 15:09:00,54.1,11.6,30.18,WNW,292,4.3,17.0,18,0.00,,SKC,0.00,VWS V14.01,2013-03-12 20:09:00,
2013-03-12 15:10:00,53.8,7.2,30.18,NW,315,4.0,16.1,15,0.00,,SKC,0.00,VWS V14.01,2013-03-12 20:10:00,
2013-03-12 15:11:00,53.4,3.8,30.18,SW,225,8.1,32.2,13,0.00,,SKC,0.00,VWS V14.01,2013-03-12 20:11:00,
2013-03-12 15:12:00,53.4,3.8,30.18,SW,225,6.5,26.0,13,0.00,,SKC,0.00,VWS V14.01,2013-03-12 20:12:00,
2013-03-12 15:13:00,53.4,3.8,30.18,West,270,5.8,23.3,13,0.00,,SKC,0.00,VWS V14.01,2013-03-12 20:13:00,
2013-03-12 15:14:00,53.4,3.8,30.18,WNW,292,3.8,15.2,13,0.00,,SKC,0.00,VWS V14.01,2013-03-12 20:14:00,
2013-03-12 15:15:00,52.7,7.8,30.18,SSW,202,8.7,34.9,16,0.00,,SKC,0.00,VWS V14.01,2013-03-12 20:15:00,
2013-03-12 15:16:00,52.2,10.0,30.18,SW,225,4.7,18.8,18,0.00,,SKC,0.00,VWS V14.01,2013-03-12 20:16:00,
2013-03-12 15:17:00,52.2,10.0,30.18,West,270,2.9,11.6,18,0.00,,SKC,0.00,VWS V14.01,2013-03-12 20:17:00,
2013-03-12 15:18:00,52.2,10.0,30.18,WSW,248,4.3,17.0,18,0.00,,SKC,0.00,VWS V14.01,2013-03-12 20:18:00,
2013-03-12 15:19:00,52.5,10.2,30.18,SSW,202,7.6,30.4,18,0.00,,SKC,0.00,VWS V14.01,2013-03-12 20:19:00,
2013-03-12 15:20:00,52.5,7.6,30.18,WSW,248,11.4,45.6,16,0.00,,SKC,0.00,VWS V14.01,2013-03-12 20:20:00,
2013-03-12 15:21:00,52.3,7.5,30.18,SSW,202,7.6,30.4,16,0.00,,SKC,0.00,VWS V14.01,2013-03-12 20:21:00,
2013-03-12 15:22:00,52.3,3.0,30.18,West,270,4.9,19.7,13,0.00,,SKC,0.00,VWS V14.01,2013-03-12 20:22:00,
2013-03-12 15:23:00,52.5,7.6,30.18,WNW,292,3.4,13.4,16,0.00,,SKC,0.00,VWS V14.01,2013-03-12 20:23:00,
2013-03-12 15:24:00,52.7,7.8,30.18,WSW,248,3.1,12.5,16,0.00,,SKC,0.00,VWS V14.01,2013-03-12 20:24:00,
2013-03-12 15:25:00,52.5,3.1,30.18,WNW,292,3.1,12.5,13,0.00,,SKC,0.00,VWS V14.01,2013-03-12 20:25:00,
2013-03-12 15:26:00,52.9,3.4,30.18,SW,225,3.8,15.2,13,0.00,,SKC,0.00,VWS V14.01,2013-03-12 20:26:00,
2013-03-12 15:27:00,52.9,3.4,30.18,West,270,5.4,21.5,13,0.00,,SKC,0.00,VWS V14.01,2013-03-12 20:27:00,
2013-03-12 15:28:00,53.2,8.2,30.18,WSW,248,3.8,15.2,16,0.00,,SKC,0.00,VWS V14.01,2013-03-12 20:28:00,
2013-03-12 15:29:00,53.4,3.8,30.18,West,270,4.0,16.1,13,0.00,,SKC,0.00,VWS V14.01,2013-03-12 20:29:00,
2013-03-12 15:30:00,53.2,8.2,30.18,WSW,248,2.9,11.6,16,0.00,,SKC,0.00,VWS V14.01,2013-03-12 20:30:00,
2013-03-12 15:31:00,53.1,3.5,30.18,WSW,248,9.4,37.6,13,0.00,,SKC,0.00,VWS V14.01,2013-03-12 20:31:00,
2013-03-12 15:32:00,53.1,8.1,30.21,NW,315,3.1,12.5,16,0.00,,SKC,0.00,VWS V14.01,2013-03-12 20:32:00,
2013-03-12 15:33:00,53.1,3.5,30.21,NNW,338,9.2,36.7,13,0.00,,SKC,0.00,VWS V14.01,2013-03-12 20:33:00,
2013-03-12 15:34:00,53.2,3.7,30.21,NNW,338,4.9,19.7,13,0.00,,SKC,0.00,VWS V14.01,2013-03-12 20:34:00,
2013-03-12 15:35:00,53.6,7.1,30.21,West,270,4.9,19.7,15,0.00,,SKC,0.00,VWS V14.01,2013-03-12 20:35:00,
2013-03-12 15:36:00,54.0,11.4,30.21,SW,225,2.5,9.8,18,0.00,,SKC,0.00,VWS V14.01,2013-03-12 20:36:00,
2013-03-12 15:37:00,53.8,11.3,30.21,West,270,5.6,22.4,18,0.00,,SKC,0.00,VWS V14.01,2013-03-12 20:37:00,
2013-03-12 15:38:00,53.8,11.3,30.21,WSW,248,8.1,32.2,18,0.00,,SKC,0.00,VWS V14.01,2013-03-12 20:38:00,
2013-03-12 15:39:00,53.2,0.1,30.21,WNW,292,4.7,18.8,11,0.00,,SKC,0.00,VWS V14.01,2013-03-12 20:39:00,
2013-03-12 15:40:00,53.4,3.8,30.21,SSE,158,6.3,25.1,13,0.00,,SKC,0.00,VWS V14.01,2013-03-12 20:40:00,
2013-03-12 15:41:00,53.6,-1.6,30.21,WNW,292,14.8,59.1,10,0.00,,SKC,0.00,VWS V14.01,2013-03-12 20:41:00,
2013-03-12 15:42:00,53.6,-1.6,30.21,SW,225,2.9,11.6,10,0.00,,SKC,0.00,VWS V14.01,2013-03-12 20:42:00,
2013-03-12 15:43:00,53.8,-1.5,30.21,WSW,248,8.1,32.2,10,0.00,,SKC,0.00,VWS V14.01,2013-03-12 20:43:00,
2013-03-12 15:44:00,53.8,4.1,30.21,WSW,248,5.8,23.3,13,0.00,,SKC,0.00,VWS V14.01,2013-03-12 20:44:00,
2013-03-12 15:45:00,53.6,4.0,30.21,WSW,248,4.0,16.1,13,0.00,,SKC,0.00,VWS V14.01,2013-03-12 20:45:00,
2013-03-12 15:46:00,53.2,8.2,30.21,WSW,248,5.6,22.4,16,0.00,,SKC,0.00,VWS V14.01,2013-03-12 20:46:00,
2013-03-12 15:47:00,53.2,10.9,30.18,SW,225,3.4,13.4,18,0.00,,SKC,0.00,VWS V14.01,2013-03-12 20:47:00,
2013-03-12 15:48:00,52.9,7.9,30.18,West,270,11.0,43.9,16,0.00,,SKC,0.00,VWS V14.01,2013-03-12 20:48:00,
2013-03-12 15:49:00,52.5,7.6,30.18,WSW,248,5.8,23.3,16,0.00,,SKC,0.00,VWS V14.01,2013-03-12 20:49:00,
2013-03-12 15:50:00,52.3,7.5,30.18,WNW,292,7.2,28.6,16,0.00,,SKC,0.00,VWS V14.01,2013-03-12 20:50:00,
2013-03-12 15:51:00,52.3,7.5,30.18,SW,225,10.7,43.0,16,0.00,,SKC,0.00,VWS V14.01,2013-03-12 20:51:00,
2013-03-12 15:52:00,52.3,7.5,30.18,SW,225,10.7,43.0,16,0.00,,SKC,0.00,VWS V14.01,2013-03-12 20:52:00,
2013-03-12 15:53:00,52.3,7.5,30.18,SW,225,8.7,34.9,16,0.00,,SKC,0.00,VWS V14.01,2013-03-12 20:53:00,
2013-03-12 15:54:00,52.3,10.1,30.18,SW,225,9.6,38.5,18,0.00,,SKC,0.00,VWS V14.01,2013-03-12 20:54:00,
2013-03-12 15:55:00,52.3,10.1,30.18,SSW,202,4.7,18.8,18,0.00,,SKC,0.00,VWS V14.01,2013-03-12 20:55:00,
2013-03-12 15:56:00,52.5,13.7,30.18,SW,225,6.5,26.0,21,0.00,,SKC,0.00,VWS V14.01,2013-03-12 20:56:00,
2013-03-12 15:57:00,52.2,10.0,30.18,WSW,248,7.8,31.3,18,0.00,,SKC,0.00,VWS V14.01,2013-03-12 20:57:00,
2013-03-12 15:58:00,52.2,10.0,30.18,WSW,248,9.6,38.5,18,0.00,,SKC,0.00,VWS V14.01,2013-03-12 20:58:00,
2013-03-12 15:59:00,52.2,10.0,30.18,WSW,248,5.8,23.3,18,0.00,,SKC,0.00,VWS V14.01,2013-03-12 20:59:00,
2013-03-12 16:00:00,52.2,10.0,30.18,WNW,292,6.5,26.0,18,0.00,,SKC,0.00,VWS V14.01,2013-03-12 21:00:00,
2013-03-12 16:01:00,52.9,14.0,30.18,WNW,292,2.9,11.6,21,0.00,,SKC,0.00,VWS V14.01,2013-03-12 21:01:00,
2013-03-12 16:03:00,53.1,16.3,30.18,WSW,248,7.4,29.5,23,0.00,,SKC,0.00,VWS V14.01,2013-03-12 21:03:00,
2013-03-12 16:04:00,52.7,13.9,30.18,WSW,248,3.1,12.5,21,0.00,,SKC,0.00,VWS V14.01,2013-03-12 21:04:00,
2013-03-12 16:05:00,52.7,16.0,30.18,SW,225,7.4,29.5,23,0.00,,SKC,0.00,VWS V14.01,2013-03-12 21:05:00,
2013-03-12 16:06:00,52.3,13.6,30.18,NW,315,6.7,26.9,21,0.00,,SKC,0.00,VWS V14.01,2013-03-12 21:06:00,
2013-03-12 16:07:00,52.2,13.4,30.18,WSW,248,6.5,26.0,21,0.00,,SKC,0.00,VWS V14.01,2013-03-12 21:07:00,
2013-03-12 16:08:00,52.2,13.4,30.18,SSW,202,4.9,19.7,21,0.00,,SKC,0.00,VWS V14.01,2013-03-12 21:08:00,
2013-03-12 16:09:00,52.3,15.6,30.18,WSW,248,3.1,12.5,23,0.00,,SKC,0.00,VWS V14.01,2013-03-12 21:09:00,
2013-03-12 16:10:00,52.3,15.6,30.18,West,270,8.7,34.9,23,0.00,,SKC,0.00,VWS V14.01,2013-03-12 21:10:00,
2013-03-12 16:11:00,52.3,15.6,30.18,West,270,6.5,26.0,23,0.00,,SKC,0.00,VWS V14.01,2013-03-12 21:11:00,
2013-03-12 16:12:00,52.5,13.7,30.18,NW,315,3.8,15.2,21,0.00,,SKC,0.00,VWS V14.01,2013-03-12 21:12:00,
2013-03-12 16:13:00,52.9,10.6,30.18,SW,225,8.5,34.0,18,0.00,,SKC,0.00,VWS V14.01,2013-03-12 21:13:00,
2013-03-12 16:14:00,52.5,10.2,30.18,West,270,7.6,30.4,18,0.00,,SKC,0.00,VWS V14.01,2013-03-12 21:14:00,
2013-03-12 16:15:00,52.7,10.4,30.18,WNW,292,3.8,15.2,18,0.00,,SKC,0.00,VWS V14.01,2013-03-12 21:15:00,
2013-03-12 16:16:00,52.9,10.6,30.18,WNW,292,10.3,41.2,18,0.00,,SKC,0.00,VWS V14.01,2013-03-12 21:16:00,
2013-03-12 16:17:00,52.5,10.2,30.18,WSW,248,5.6,22.4,18,0.00,,SKC,0.00,VWS V14.01,2013-03-12 21:17:00,
2013-03-12 16:18:00,52.2,7.3,30.18,WSW,248,11.0,43.9,16,0.00,,SKC,0.00,VWS V14.01,2013-03-12 21:18:00,
2013-03-12 16:19:00,51.8,9.7,30.18,WNW,292,6.0,24.2,18,0.00,,SKC,0.00,VWS V14.01,2013-03-12 21:19:00,
2013-03-12 16:20:00,52.3,10.1,30.18,SSW,202,6.5,26.0,18,0.00,,SKC,0.00,VWS V14.01,2013-03-12 21:20:00,
2013-03-12 16:21:00,52.3,10.1,30.18,SW,225,2.9,11.6,18,0.00,,SKC,0.00,VWS V14.01,2013-03-12 21:21:00,
2013-03-12 16:22:00,52.3,10.1,30.18,WSW,248,5.8,23.3,18,0.00,,SKC,0.00,VWS V14.01,2013-03-12 21:22:00,
2013-03-12 16:23:00,52.0,13.3,30.18,WSW,248,7.8,31.3,21,0.00,,SKC,0.00,VWS V14.01,2013-03-12 21:23:00,
2013-03-12 16:24:00,51.6,13.0,30.18,West,270,7.6,30.4,21,0.00,,SKC,0.00,VWS V14.01,2013-03-12 21:24:00,
2013-03-12 16:25:00,51.6,13.0,30.18,SSW,202,8.1,32.2,21,0.00,,SKC,0.00,VWS V14.01,2013-03-12 21:25:00,
2013-03-12 16:26:00,51.6,13.0,30.18,WNW,292,5.8,23.3,21,0.00,,SKC,0.00,VWS V14.01,2013-03-12 21:26:00,
2013-03-12 16:27:00,51.6,13.0,30.18,WSW,248,8.5,34.0,21,0.00,,SKC,0.00,VWS V14.01,2013-03-12 21:27:00,
2013-03-12 16:28:00,51.6,13.0,30.18,WSW,248,8.5,34.0,21,0.00,,SKC,0.00,VWS V14.01,2013-03-12 21:28:00,
2013-03-12 16:29:00,51.6,13.0,30.18,SW,225,5.8,23.3,21,0.00,,SKC,0.00,VWS V14.01,2013-03-12 21:29:00,
2013-03-12 16:30:00,52.0,18.2,30.18,WSW,248,4.3,17.0,26,0.00,,SKC,0.00,VWS V14.01,2013-03-12 21:30:00,
2013-03-12 16:31:00,52.3,15.6,30.18,WSW,248,7.8,31.3,23,0.00,,SKC,0.00,VWS V14.01,2013-03-12 21:31:00,
2013-03-12 16:32:00,52.9,19.0,30.18,NW,315,4.5,17.9,26,0.00,,SKC,0.00,VWS V14.01,2013-03-12 21:32:00,
2013-03-12 16:33:00,52.9,19.0,30.18,SW,225,7.4,29.5,26,0.00,,SKC,0.00,VWS V14.01,2013-03-12 21:33:00,
2013-03-12 16:34:00,52.9,19.0,30.18,WNW,292,3.8,15.2,26,0.00,,SKC,0.00,VWS V14.01,2013-03-12 21:34:00,
2013-03-12 16:35:00,52.9,19.0,30.18,WSW,248,3.4,13.4,26,0.00,,SKC,0.00,VWS V14.01,2013-03-12 21:35:00,
2013-03-12 16:36:00,52.5,18.6,30.18,WNW,292,7.8,31.3,26,0.00,,SKC,0.00,VWS V14.01,2013-03-12 21:36:00,
2013-03-12 16:37:00,52.3,18.5,30.18,South,180,2.9,11.6,26,0.00,,SKC,0.00,VWS V14.01,2013-03-12 21:37:00,
2013-03-12 16:38:00,52.2,18.3,30.18,WSW,248,3.8,15.2,26,0.00,,SKC,0.00,VWS V14.01,2013-03-12 21:38:00,
2013-03-12 16:39:00,52.2,18.3,30.18,WSW,248,2.7,10.7,26,0.00,,SKC,0.00,VWS V14.01,2013-03-12 21:39:00,
2013-03-12 16:40:00,52.0,15.4,30.18,West,270,5.6,22.4,23,0.00,,SKC,0.00,VWS V14.01,2013-03-12 21:40:00,
2013-03-12 16:41:00,51.6,17.9,30.18,SE,135,4.7,18.8,26,0.00,,SKC,0.00,VWS V14.01,2013-03-12 21:41:00,
2013-03-12 16:42:00,51.4,17.7,30.18,WSW,248,8.5,34.0,26,0.00,,SKC,0.00,VWS V14.01,2013-03-12 21:42:00,
2013-03-12 16:43:00,51.1,15.6,30.18,WSW,248,9.6,38.5,24,0.00,,SKC,0.00,VWS V14.01,2013-03-12 21:43:00,
2013-03-12 16:44:00,50.7,17.1,30.18,SW,225,6.5,26.0,26,0.00,,SKC,0.00,VWS V14.01,2013-03-12 21:44:00,
2013-03-12 16:45:00,50.9,17.2,30.18,WSW,248,7.6,30.4,26,0.00,,SKC,0.00,VWS V14.01,2013-03-12 21:45:00,
2013-03-12 16:46:00,50.9,17.2,30.18,WSW,248,6.3,25.1,26,0.00,,SKC,0.00,VWS V14.01,2013-03-12 21:46:00,
2013-03-12 16:47:00,50.9,17.2,30.21,WSW,248,5.8,23.3,26,0.00,,SKC,0.00,VWS V14.01,2013-03-12 21:47:00,
2013-03-12 16:48:00,51.1,17.4,30.21,WSW,248,6.3,25.1,26,0.00,,SKC,0.00,VWS V14.01,2013-03-12 21:48:00,
2013-03-12 16:49:00,51.3,17.6,30.21,WSW,248,8.1,32.2,26,0.00,,SKC,0.00,VWS V14.01,2013-03-12 21:49:00,
2013-03-12 16:50:00,51.6,17.9,30.21,WSW,248,3.4,13.4,26,0.00,,SKC,0.00,VWS V14.01,2013-03-12 21:50:00,
2013-03-12 16:51:00,51.3,17.6,30.21,WNW,292,9.6,38.5,26,0.00,,SKC,0.00,VWS V14.01,2013-03-12 21:51:00,
2013-03-12 16:52:00,51.3,17.6,30.21,SW,225,6.0,24.2,26,0.00,,SKC,0.00,VWS V14.01,2013-03-12 21:52:00,
2013-03-12 16:53:00,50.9,17.2,30.21,NW,315,5.6,22.4,26,0.00,,SKC,0.00,VWS V14.01,2013-03-12 21:53:00,
2013-03-12 16:54:00,50.9,17.2,30.21,WSW,248,6.3,25.1,26,0.00,,SKC,0.00,VWS V14.01,2013-03-12 21:54:00,
2013-03-12 16:55:00,51.1,18.3,30.21,WNW,292,3.1,12.5,27,0.00,,SKC,0.00,VWS V14.01,2013-03-12 21:55:00,
2013-03-12 16:56:00,51.3,17.6,30.21,SW,225,4.3,17.0,26,0.00,,SKC,0.00,VWS V14.01,2013-03-12 21:56:00,
2013-03-12 16:57:00,51.3,17.6,30.21,WSW,248,6.3,25.1,26,0.00,,SKC,0.00,VWS V14.01,2013-03-12 21:57:00,
2013-03-12 16:58:00,51.1,17.4,30.21,NW,315,7.4,29.5,26,0.00,,SKC,0.00,VWS V14.01,2013-03-12 21:58:00,
2013-03-12 16:59:00,51.3,17.6,30.21,WSW,248,15.2,60.9,26,0.00,,SKC,0.00,VWS V14.01,2013-03-12 21:59:00,
2013-03-12 17:00:00,51.3,12.7,30.21,WNW,292,7.8,31.3,21,0.00,,SKC,0.00,VWS V14.01,2013-03-12 22:00:00,
2013-03-12 17:01:00,51.4,12.8,30.21,WSW,248,11.0,43.9,21,0.00,,SKC,0.00,VWS V14.01,2013-03-12 22:01:00,
2013-03-12 17:02:00,51.6,10.7,30.21,WSW,248,5.4,21.5,19,0.00,,SKC,0.00,VWS V14.01,2013-03-12 22:02:00,
2013-03-12 17:03:00,52.0,13.3,30.21,WNW,292,4.0,16.1,21,0.00,,SKC,0.00,VWS V14.01,2013-03-12 22:03:00,
2013-03-12 17:04:00,52.0,13.3,30.21,SW,225,4.7,18.8,21,0.00,,SKC,0.00,VWS V14.01,2013-03-12 22:04:00,
2013-03-12 17:06:00,52.2,13.4,30.21,WSW,248,10.3,41.2,21,0.00,,SKC,0.00,VWS V14.01,2013-03-12 22:06:00,
2013-03-12 17:07:00,52.2,13.4,30.21,NW,315,6.5,26.0,21,0.00,,SKC,0.00,VWS V14.01,2013-03-12 22:07:00,
2013-03-12 17:08:00,51.8,9.7,30.21,WSW,248,7.6,30.4,18,0.00,,SKC,0.00,VWS V14.01,2013-03-12 22:08:00,
2013-03-12 17:09:00,52.0,13.3,30.21,WSW,248,12.3,49.2,21,0.00,,SKC,0.00,VWS V14.01,2013-03-12 22:09:00,
2013-03-12 17:10:00,52.2,13.4,30.21,West,270,8.5,34.0,21,0.00,,SKC,0.00,VWS V14.01,2013-03-12 22:10:00,
2013-03-12 17:11:00,52.2,13.4,30.21,WSW,248,4.3,17.0,21,0.00,,SKC,0.00,VWS V14.01,2013-03-12 22:11:00,
2013-03-12 17:12:00,52.2,13.4,30.21,WSW,248,4.3,17.0,21,0.00,,SKC,0.00,VWS V14.01,2013-03-12 22:12:00,
2013-03-12 17:13:00,52.7,16.0,30.21,WSW,248,5.4,21.5,23,0.00,,SKC,0.00,VWS V14.01,2013-03-12 22:13:00,
2013-03-12 17:14:00,52.9,16.1,30.21,WNW,292,5.8,23.3,23,0.00,,SKC,0.00,VWS V14.01,2013-03-12 22:14:00,
2013-03-12 17:15:00,53.1,19.1,30.21,WSW,248,3.1,12.5,26,0.00,,SKC,0.00,VWS V14.01,2013-03-12 22:15:00,
2013-03-12 17:16:00,53.2,19.3,30.21,WSW,248,5.6,22.4,26,0.00,,SKC,0.00,VWS V14.01,2013-03-12 22:16:00,
2013-03-12 17:17:00,52.9,16.1,30.21,SW,225,3.1,12.5,23,0.00,,SKC,0.00,VWS V14.01,2013-03-12 22:17:00,
2013-03-12 17:18:00,52.7,13.9,30.21,WSW,248,5.4,21.5,21,0.00,,SKC,0.00,VWS V14.01,2013-03-12 22:18:00,
2013-03-12 17:19:00,52.5,13.7,30.21,WSW,248,6.3,25.1,21,0.00,,SKC,0.00,VWS V14.01,2013-03-12 22:19:00,
2013-03-12 17:20:00,52.2,10.0,30.21,WSW,248,5.6,22.4,18,0.00,,SKC,0.00,VWS V14.01,2013-03-12 22:20:00,
2013-03-12 17:21:00,52.0,13.3,30.21,WNW,292,9.8,39.4,21,0.00,,SKC,0.00,VWS V14.01,2013-03-12 22:21:00,
2013-03-12 17:22:00,51.8,13.1,30.21,SW,225,8.1,32.2,21,0.00,,SKC,0.00,VWS V14.01,2013-03-12 22:22:00,
2013-03-12 17:23:00,51.6,10.7,30.21,SW,225,6.9,27.7,19,0.00,,SKC,0.00,VWS V14.01,2013-03-12 22:23:00,
2013-03-12 17:24:00,51.6,10.7,30.21,SW,225,6.9,27.7,19,0.00,,SKC,0.00,VWS V14.01,2013-03-12 22:24:00,
2013-03-12 17:25:00,51.6,10.7,30.21,WNW,292,7.8,31.3,19,0.00,,SKC,0.00,VWS V14.01,2013-03-12 22:25:00,
2013-03-12 17:26:00,51.8,13.1,30.21,WSW,248,4.0,16.1,21,0.00,,SKC,0.00,VWS V14.01,2013-03-12 22:26:00,
2013-03-12 17:27:00,51.8,13.1,30.21,SW,225,5.6,22.4,21,0.00,,SKC,0.00,VWS V14.01,2013-03-12 22:27:00,
2013-03-12 17:28:00,51.8,13.1,30.21,WSW,248,8.5,34.0,21,0.00,,SKC,0.00,VWS V14.01,2013-03-12 22:28:00,
2013-03-12 17:29:00,51.8,13.1,30.21,NNW,338,6.3,25.1,21,0.00,,SKC,0.00,VWS V14.01,2013-03-12 22:29:00,
2013-03-12 17:30:00,51.8,13.1,30.21,WSW,248,6.3,25.1,21,0.00,,SKC,0.00,VWS V14.01,2013-03-12 22:30:00,
2013-03-12 17:31:00,50.7,10.0,30.21,SW,225,14.8,59.1,19,0.00,,SKC,0.00,VWS V14.01,2013-03-12 22:31:00,
2013-03-12 17:32:00,50.4,9.7,30.21,WSW,248,9.4,37.6,19,0.00,,SKC,0.00,VWS V14.01,2013-03-12 22:32:00,
2013-03-12 17:33:00,50.2,14.8,30.21,West,270,5.8,23.3,24,0.00,,SKC,0.00,VWS V14.01,2013-03-12 22:33:00,
2013-03-12 17:34:00,49.6,14.3,30.21,SW,225,10.5,42.1,24,0.00,,SKC,0.00,VWS V14.01,2013-03-12 22:34:00,
2013-03-12 17:35:00,49.5,14.2,30.21,WSW,248,7.8,31.3,24,0.00,,SKC,0.00,VWS V14.01,2013-03-12 22:35:00,
2013-03-12 17:37:00,49.5,16.0,30.21,SW,225,5.4,21.5,26,0.00,,SKC,0.00,VWS V14.01,2013-03-12 22:37:00,
2013-03-12 17:38:00,49.1,16.6,30.21,SW,225,8.7,34.9,27,0.00,,SKC,0.00,VWS V14.01,2013-03-12 22:38:00,
2013-03-12 17:39:00,48.9,16.4,30.21,ESE,112,7.8,31.3,27,0.00,,SKC,0.00,VWS V14.01,2013-03-12 22:39:00,
2013-03-12 17:40:00,48.7,16.3,30.21,West,270,5.4,21.5,27,0.00,,SKC,0.00,VWS V14.01,2013-03-12 22:40:00,
2013-03-12 17:41:00,48.7,16.3,30.21,WSW,248,4.0,16.1,27,0.00,,SKC,0.00,VWS V14.01,2013-03-12 22:41:00,
2013-03-12 17:42:00,48.7,16.3,30.21,WSW,248,7.2,28.6,27,0.00,,SKC,0.00,VWS V14.01,2013-03-12 22:42:00,
2013-03-12 17:43:00,48.7,16.3,30.21,SSW,202,6.3,25.1,27,0.00,,SKC,0.00,VWS V14.01,2013-03-12 22:43:00,
2013-03-12 17:44:00,48.6,16.1,30.21,WSW,248,3.8,15.2,27,0.00,,SKC,0.00,VWS V14.01,2013-03-12 22:44:00,
2013-03-12 17:46:00,48.4,16.0,30.21,NW,315,2.7,10.7,27,0.00,,SKC,0.00,VWS V14.01,2013-03-12 22:46:00,
2013-03-12 17:47:00,48.2,15.8,30.24,WSW,248,3.1,12.5,27,0.00,,SKC,0.00,VWS V14.01,2013-03-12 22:47:00,
2013-03-12 17:48:00,48.2,16.6,30.24,West,270,4.7,18.8,28,0.00,,SKC,0.00,VWS V14.01,2013-03-12 22:48:00,
2013-03-12 17:49:00,48.2,16.6,30.24,WSW,248,11.4,45.6,28,0.00,,SKC,0.00,VWS V14.01,2013-03-12 22:49:00,
2013-03-12 17:50:00,48.2,16.6,30.24,WSW,248,11.4,45.6,28,0.00,,SKC,0.00,VWS V14.01,2013-03-12 22:50:00,
2013-03-12 17:51:00,48.2,16.6,30.24,WSW,248,6.3,25.1,28,0.00,,SKC,0.00,VWS V14.01,2013-03-12 22:51:00,
2013-03-12 17:52:00,48.2,16.6,30.24,SW,225,4.0,16.1,28,0.00,,SKC,0.00,VWS V14.01,2013-03-12 22:52:00,
2013-03-12 17:53:00,48.2,16.6,30.24,WSW,248,6.5,26.0,28,0.00,,SKC,0.00,VWS V14.01,2013-03-12 22:53:00,
2013-03-12 17:54:00,48.2,16.6,30.24,WNW,292,4.7,18.8,28,0.00,,SKC,0.00,VWS V14.01,2013-03-12 22:54:00,
2013-03-12 17:55:00,48.2,16.6,30.24,WNW,292,4.0,16.1,28,0.00,,SKC,0.00,VWS V14.01,2013-03-12 22:55:00,
2013-03-12 17:56:00,48.2,16.6,30.24,WSW,248,4.0,16.1,28,0.00,,SKC,0.00,VWS V14.01,2013-03-12 22:56:00,
2013-03-12 17:57:00,49.3,17.6,30.24,NNW,338,3.8,15.2,28,0.00,,SKC,0.00,VWS V14.01,2013-03-12 22:57:00,
2013-03-12 17:58:00,49.5,17.7,30.24,WSW,248,6.3,25.1,28,0.00,,SKC,0.00,VWS V14.01,2013-03-12 22:58:00,
2013-03-12 17:59:00,49.5,17.7,30.24,ENE,68,3.6,14.3,28,0.00,,SKC,0.00,VWS V14.01,2013-03-12 22:59:00,
2013-03-12 18:00:00,49.8,18.0,30.24,West,270,7.8,31.3,28,0.00,,SKC,0.00,VWS V14.01,2013-03-12 23:00:00,
2013-03-12 18:01:00,50.0,18.2,30.24,West,270,3.4,13.4,28,0.00,,SKC,0.00,VWS V14.01,2013-03-12 23:01:00,
2013-03-12 18:02:00,50.0,18.2,30.24,NW,315,4.0,16.1,28,0.00,,SKC,0.00,VWS V14.01,2013-03-12 23:02:00,
2013-03-12 18:03:00,50.2,18.4,30.24,WNW,292,2.9,11.6,28,0.00,,SKC,0.00,VWS V14.01,2013-03-12 23:03:00,
2013-03-12 18:04:00,50.2,18.4,30.24,WSW,248,13.0,51.9,28,0.00,,SKC,0.00,VWS V14.01,2013-03-12 23:04:00,
2013-03-12 18:05:00,50.2,18.4,30.24,SW,225,10.3,41.2,28,0.00,,SKC,0.00,VWS V14.01,2013-03-12 23:05:00,
2013-03-12 18:06:00,50.2,18.4,30.24,WSW,248,7.6,30.4,28,0.00,,SKC,0.00,VWS V14.01,2013-03-12 23:06:00,
2013-03-12 18:07:00,50.2,18.4,30.24,West,270,3.1,12.5,28,0.00,,SKC,0.00,VWS V14.01,2013-03-12 23:07:00,
2013-03-12 18:08:00,50.2,18.4,30.24,SW,225,6.5,26.0,28,0.00,,SKC,0.00,VWS V14.01,2013-03-12 23:08:00,
2013-03-12 18:09:00,50.0,17.4,30.24,WSW,248,15.4,61.8,27,0.00,,SKC,0.00,VWS V14.01,2013-03-12 23:09:00,
2013-03-12 18:10:00,49.6,17.0,30.24,WNW,292,4.7,18.8,27,0.00,,SKC,0.00,VWS V14.01,2013-03-12 23:10:00,
2013-03-12 18:11:00,49.6,17.0,30.24,West,270,5.8,23.3,27,0.00,,SKC,0.00,VWS V14.01,2013-03-12 23:11:00,
2013-03-12 18:12:00,49.5,17.7,30.24,NW,315,8.5,34.0,28,0.00,,SKC,0.00,VWS V14.01,2013-03-12 23:12:00,
2013-03-12 18:13:00,49.5,17.7,30.24,SW,225,8.7,34.9,28,0.00,,SKC,0.00,VWS V14.01,2013-03-12 23:13:00,
2013-03-12 18:14:00,49.1,17.4,30.24,WNW,292,2.7,10.7,28,0.00,,SKC,0.00,VWS V14.01,2013-03-12 23:14:00,
2013-03-12 18:15:00,49.3,17.6,30.24,WSW,248,5.6,22.4,28,0.00,,SKC,0.00,VWS V14.01,2013-03-12 23:15:00,
2013-03-12 18:16:00,49.1,18.2,30.24,West,270,7.4,29.5,29,0.00,,SKC,0.00,VWS V14.01,2013-03-12 23:16:00,
2013-03-12 18:17:00,48.9,18.1,30.24,SW,225,3.1,12.5,29,0.00,,SKC,0.00,VWS V14.01,2013-03-12 23:17:00,
2013-03-12 18:18:00,48.9,18.1,30.24,WNW,292,8.5,34.0,29,0.00,,SKC,0.00,VWS V14.01,2013-03-12 23:18:00,
2013-03-12 18:19:00,48.9,18.1,30.24,SE,135,8.5,34.0,29,0.00,,SKC,0.00,VWS V14.01,2013-03-12 23:19:00,
2013-03-12 18:20:00,48.6,18.5,30.24,West,270,7.2,28.6,30,0.00,,SKC,0.00,VWS V14.01,2013-03-12 23:20:00,
2013-03-12 18:21:00,48.6,18.5,30.24,North,0,6.5,26.0,30,0.00,,SKC,0.00,VWS V14.01,2013-03-12 23:21:00,
2013-03-12 18:22:00,48.4,18.4,30.24,SSW,202,3.1,12.5,30,0.00,,SKC,0.00,VWS V14.01,2013-03-12 23:22:00,
2013-03-12 18:23:00,48.4,18.4,30.24,NNW,338,3.1,12.5,30,0.00,,SKC,0.00,VWS V14.01,2013-03-12 23:23:00,
2013-03-12 18:24:00,48.0,18.8,30.24,WSW,248,5.6,22.4,31,0.00,,SKC,0.00,VWS V14.01,2013-03-12 23:24:00,
2013-03-12 18:25:00,47.8,18.7,30.24,WNW,292,2.7,10.7,31,0.00,,SKC,0.00,VWS V14.01,2013-03-12 23:25:00,
2013-03-12 18:26:00,47.7,18.5,30.24,WNW,292,2.7,10.7,31,0.00,,SKC,0.00,VWS V14.01,2013-03-12 23:26:00,
2013-03-12 18:27:00,47.5,18.4,30.24,North,0,4.9,19.7,31,0.00,,SKC,0.00,VWS V14.01,2013-03-12 23:27:00,
2013-03-12 18:28:00,47.5,18.4,30.24,NE,45,6.5,26.0,31,0.00,,SKC,0.00,VWS V14.01,2013-03-12 23:28:00,
2013-03-12 18:29:00,47.5,18.4,30.24,WNW,292,5.6,22.4,31,0.00,,SKC,0.00,VWS V14.01,2013-03-12 23:29:00,
2013-03-12 18:30:00,47.5,18.4,30.24,WSW,248,3.1,12.5,31,0.00,,SKC,0.00,VWS V14.01,2013-03-12 23:30:00,
2013-03-12 18:31:00,47.5,18.4,30.24,WSW,248,6.0,24.2,31,0.00,,SKC,0.00,VWS V14.01,2013-03-12 23:31:00,
2013-03-12 18:32:00,47.5,18.4,30.24,WSW,248,4.5,17.9,31,0.00,,SKC,0.00,VWS V14.01,2013-03-12 23:32:00,
2013-03-12 18:33:00,46.8,18.5,30.24,NW,315,8.1,32.2,32,0.00,,SKC,0.00,VWS V14.01,2013-03-12 23:33:00,
2013-03-12 18:34:00,46.8,18.5,30.24,WSW,248,8.7,34.9,32,0.00,,SKC,0.00,VWS V14.01,2013-03-12 23:34:00,
2013-03-12 18:35:00,46.6,18.3,30.24,South,180,4.0,16.1,32,0.00,,SKC,0.00,VWS V14.01,2013-03-12 23:35:00,
2013-03-12 18:36:00,46.6,19.0,30.24,WNW,292,5.4,21.5,33,0.00,,SKC,0.00,VWS V14.01,2013-03-12 23:36:00,
2013-03-12 18:37:00,46.4,18.9,30.24,SSW,202,5.4,21.5,33,0.00,,SKC,0.00,VWS V14.01,2013-03-12 23:37:00,
2013-03-12 18:38:00,46.4,18.9,30.24,WNW,292,4.9,19.7,33,0.00,,SKC,0.00,VWS V14.01,2013-03-12 23:38:00,
2013-03-12 18:39:00,46.4,18.9,30.24,SE,135,7.8,31.3,33,0.00,,SKC,0.00,VWS V14.01,2013-03-12 23:39:00,
2013-03-12 18:40:00,46.4,18.9,30.24,SW,225,6.5,26.0,33,0.00,,SKC,0.00,VWS V14.01,2013-03-12 23:40:00,
2013-03-12 18:41:00,46.0,19.9,30.24,SW,225,6.5,26.0,35,0.00,,SKC,0.00,VWS V14.01,2013-03-12 23:41:00,
2013-03-12 18:42:00,46.0,19.9,30.24,SSE,158,4.9,19.7,35,0.00,,SKC,0.00,VWS V14.01,2013-03-12 23:42:00,
2013-03-12 18:43:00,46.0,19.9,30.24,West,270,5.6,22.4,35,0.00,,SKC,0.00,VWS V14.01,2013-03-12 23:43:00,
2013-03-12 18:44:00,46.0,19.9,30.24,NNW,338,3.4,13.4,35,0.00,,SKC,0.00,VWS V14.01,2013-03-12 23:44:00,
2013-03-12 18:45:00,45.7,20.9,30.24,West,270,3.6,14.3,37,0.00,,SKC,0.00,VWS V14.01,2013-03-12 23:45:00,
2013-03-12 18:46:00,45.5,20.8,30.24,WNW,292,7.8,31.3,37,0.00,,SKC,0.00,VWS V14.01,2013-03-12 23:46:00,
2013-03-12 18:47:00,45.5,20.8,30.24,WSW,248,4.9,19.7,37,0.00,,SKC,0.00,VWS V14.01,2013-03-12 23:47:00,
2013-03-12 18:48:00,45.3,20.6,30.24,South,180,7.4,29.5,37,0.00,,SKC,0.00,VWS V14.01,2013-03-12 23:48:00,
2013-03-12 18:49:00,45.3,20.6,30.24,SW,225,3.4,13.4,37,0.00,,SKC,0.00,VWS V14.01,2013-03-12 23:49:00,
2013-03-12 18:50:00,45.1,21.1,30.24,West,270,6.3,25.1,38,0.00,,SKC,0.00,VWS V14.01,2013-03-12 23:50:00,
2013-03-12 18:51:00,45.1,21.1,30.24,NNW,338,7.2,28.6,38,0.00,,SKC,0.00,VWS V14.01,2013-03-12 23:51:00,
2013-03-12 18:52:00,44.8,20.7,30.24,WNW,292,6.5,26.0,38,0.00,,SKC,0.00,VWS V14.01,2013-03-12 23:52:00,
2013-03-12 18:53:00,44.6,20.6,30.24,WNW,292,7.4,29.5,38,0.00,,SKC,0.00,VWS V14.01,2013-03-12 23:53:00,
2013-03-12 18:54:00,44.4,21.0,30.24,WSW,248,5.8,23.3,39,0.00,,SKC,0.00,VWS V14.01,2013-03-12 23:54:00,
2013-03-12 18:55:00,44.2,20.9,30.24,WSW,248,2.9,11.6,39,0.00,,SKC,0.00,VWS V14.01,2013-03-12 23:55:00,
2013-03-12 18:56:00,44.2,20.9,30.24,NNW,338,3.4,13.4,39,0.00,,SKC,0.00,VWS V14.01,2013-03-12 23:56:00,
2013-03-12 18:57:00,43.9,21.1,30.24,NNW,338,3.4,13.4,40,0.00,,SKC,0.00,VWS V14.01,2013-03-12 23:57:00,
2013-03-12 18:58:00,43.5,21.4,30.24,WNW,292,3.6,14.3,41,0.00,,SKC,0.00,VWS V14.01,2013-03-12 23:58:00,
2013-03-12 18:59:00,43.5,21.4,30.24,SW,225,2.7,10.7,41,0.00,,SKC,0.00,VWS V14.01,2013-03-12 23:59:00,
2013-03-12 19:00:00,43.3,21.2,30.24,SW,225,2.7,10.7,41,0.00,,SKC,0.00,VWS V14.01,2013-03-13 00:00:00,
2013-03-12 19:01:00,43.3,21.2,30.24,NW,315,4.0,16.1,41,0.00,,SKC,0.00,VWS V14.01,2013-03-13 00:01:00,
2013-03-12 19:02:00,43.0,21.5,30.27,West,270,6.5,26.0,42,0.00,,SKC,0.00,VWS V14.01,2013-03-13 00:02:00,
2013-03-12 19:03:00,43.0,21.5,30.27,NNE,22,2.0,8.1,42,0.00,,SKC,0.00,VWS V14.01,2013-03-13 00:03:00,
2013-03-12 19:04:00,43.0,21.5,30.27,NNW,338,5.8,23.3,42,0.00,,SKC,0.00,VWS V14.01,2013-03-13 00:04:00,
2013-03-12 19:05:00,42.8,21.9,30.27,SW,225,5.4,21.5,43,0.00,,SKC,0.00,VWS V14.01,2013-03-13 00:05:00,
2013-03-12 19:06:00,42.8,21.9,30.27,SW,225,4.3,17.0,43,0.00,,SKC,0.00,VWS V14.01,2013-03-13 00:06:00,
2013-03-12 19:07:00,42.8,21.9,30.27,SSW,202,5.4,21.5,43,0.00,,SKC,0.00,VWS V14.01,2013-03-13 00:07:00,
2013-03-12 19:08:00,42.8,21.9,30.27,West,270,2.7,10.7,43,0.00,,SKC,0.00,VWS V14.01,2013-03-13 00:08:00,
2013-03-12 19:09:00,42.6,21.7,30.27,WSW,248,3.1,12.5,43,0.00,,SKC,0.00,VWS V14.01,2013-03-13 00:09:00,
2013-03-12 19:10:00,42.6,21.7,30.27,WSW,248,3.1,12.5,43,0.00,,SKC,0.00,VWS V14.01,2013-03-13 00:10:00,
2013-03-12 19:11:00,42.4,21.5,30.27,West,270,4.9,19.7,43,0.00,,SKC,0.00,VWS V14.01,2013-03-13 00:11:00,
2013-03-12 19:13:00,42.4,21.5,30.27,SW,225,4.7,18.8,43,0.00,,SKC,0.00,VWS V14.01,2013-03-13 00:13:00,
2013-03-12 19:14:00,42.4,21.5,30.27,SW,225,4.7,18.8,43,0.00,,SKC,0.00,VWS V14.01,2013-03-13 00:14:00,
2013-03-12 19:15:00,42.3,21.4,30.27,WSW,248,5.4,21.5,43,0.00,,SKC,0.00,VWS V14.01,2013-03-13 00:15:00,
2013-03-12 19:16:00,42.3,21.9,30.27,SSW,202,2.7,10.7,44,0.00,,SKC,0.00,VWS V14.01,2013-03-13 00:16:00,
2013-03-12 19:17:00,42.3,21.4,30.27,SW,225,2.2,9.0,43,0.00,,SKC,0.00,VWS V14.01,2013-03-13 00:17:00,
2013-03-12 19:18:00,42.1,21.2,30.27,NNW,338,3.6,14.3,43,0.00,,SKC,0.00,VWS V14.01,2013-03-13 00:18:00,
2013-03-12 19:19:00,42.1,21.2,30.27,WSW,248,3.8,15.2,43,0.00,,SKC,0.00,VWS V14.01,2013-03-13 00:19:00,
2013-03-12 19:20:00,42.1,21.2,30.27,WNW,292,3.1,12.5,43,0.00,,SKC,0.00,VWS V14.01,2013-03-13 00:20:00,
2013-03-12 19:21:00,42.1,21.2,30.27,NW,315,4.7,18.8,43,0.00,,SKC,0.00,VWS V14.01,2013-03-13 00:21:00,
2013-03-12 19:22:00,42.1,21.2,30.27,West,270,3.1,12.5,43,0.00,,SKC,0.00,VWS V14.01,2013-03-13 00:22:00,
2013-03-12 19:23:00,42.1,21.2,30.27,NE,45,3.1,12.5,43,0.00,,SKC,0.00,VWS V14.01,2013-03-13 00:23:00,
2013-03-12 19:24:00,41.9,21.0,30.27,SW,225,4.7,18.8,43,0.00,,SKC,0.00,VWS V14.01,2013-03-13 00:24:00,
2013-03-12 19:25:00,41.9,21.0,30.27,WNW,292,3.4,13.4,43,0.00,,SKC,0.00,VWS V14.01,2013-03-13 00:25:00,
2013-03-12 19:26:00,41.9,21.0,30.27,South,180,4.0,16.1,43,0.00,,SKC,0.00,VWS V14.01,2013-03-13 00:26:00,
2013-03-12 19:27:00,41.7,20.9,30.27,NW,315,2.5,9.8,43,0.00,,SKC,0.00,VWS V14.01,2013-03-13 00:27:00,
2013-03-12 19:28:00,41.7,20.9,30.27,NNW,338,3.8,15.2,43,0.00,,SKC,0.00,VWS V14.01,2013-03-13 00:28:00,
2013-03-12 19:29:00,41.7,20.9,30.27,West,270,8.7,34.9,43,0.00,,SKC,0.00,VWS V14.01,2013-03-13 00:29:00,
2013-03-12 19:30:00,41.7,20.9,30.27,NNW,338,3.8,15.2,43,0.00,,SKC,0.00,VWS V14.01,2013-03-13 00:30:00,
2013-03-12 19:31:00,41.5,20.7,30.27,NE,45,4.3,17.0,43,0.00,,SKC,0.00,VWS V14.01,2013-03-13 00:31:00,
2013-03-12 19:32:00,41.5,20.7,30.27,SW,225,2.2,9.0,43,0.00,,SKC,0.00,VWS V14.01,2013-03-13 00:32:00,
2013-03-12 19:33:00,41.5,20.7,30.27,SW,225,2.2,9.0,43,0.00,,SKC,0.00,VWS V14.01,2013-03-13 00:33:00,
2013-03-12 19:34:00,41.5,20.7,30.27,SSW,202,2.7,10.7,43,0.00,,SKC,0.00,VWS V14.01,2013-03-13 00:34:00,
2013-03-12 19:35:00,41.4,20.0,30.27,WSW,248,4.3,17.0,42,0.00,,SKC,0.00,VWS V14.01,2013-03-13 00:35:00,
2013-03-12 19:36:00,41.2,19.9,30.27,SSW,202,3.6,14.3,42,0.00,,SKC,0.00,VWS V14.01,2013-03-13 00:36:00,
2013-03-12 19:37:00,41.2,19.9,30.27,SSW,202,3.6,14.3,42,0.00,,SKC,0.00,VWS V14.01,2013-03-13 00:37:00,
2013-03-12 19:38:00,41.2,19.9,30.27,SW,225,6.5,26.0,42,0.00,,SKC,0.00,VWS V14.01,2013-03-13 00:38:00,
2013-03-12 19:39:00,41.2,19.9,30.27,WSW,248,3.8,15.2,42,0.00,,SKC,0.00,VWS V14.01,2013-03-13 00:39:00,
2013-03-12 19:40:00,41.0,19.7,30.27,WNW,292,2.9,11.6,42,0.00,,SKC,0.00,VWS V14.01,2013-03-13 00:40:00,
2013-03-12 19:41:00,41.0,19.7,30.27,WNW,292,3.4,13.4,42,0.00,,SKC,0.00,VWS V14.01,2013-03-13 00:41:00,
2013-03-12 19:42:00,40.8,20.1,30.27,WNW,292,2.9,11.6,43,0.00,,SKC,0.00,VWS V14.01,2013-03-13 00:42:00,
2013-03-12 19:43:00,40.8,20.1,30.27,NW,315,3.4,13.4,43,0.00,,SKC,0.00,VWS V14.01,2013-03-13 00:43:00,
2013-03-12 19:44:00,40.8,20.1,30.27,WSW,248,3.1,12.5,43,0.00,,SKC,0.00,VWS V14.01,2013-03-13 00:44:00,
2013-03-12 19:45:00,40.6,19.9,30.27,SW,225,6.3,25.1,43,0.00,,SKC,0.00,VWS V14.01,2013-03-13 00:45:00,
2013-03-12 19:46:00,40.6,19.9,30.27,West,270,5.8,23.3,43,0.00,,SKC,0.00,VWS V14.01,2013-03-13 00:46:00,
2013-03-12 19:47:00,40.6,19.9,30.30,South,180,5.6,22.4,43,0.00,,SKC,0.00,VWS V14.01,2013-03-13 00:47:00,
2013-03-12 19:48:00,40.6,19.9,30.30,West,270,5.4,21.5,43,0.00,,SKC,0.00,VWS V14.01,2013-03-13 00:48:00,
2013-03-12 19:49:00,40.6,19.9,30.30,North,0,8.1,32.2,43,0.00,,SKC,0.00,VWS V14.01,2013-03-13 00:49:00,
2013-03-12 19:50:00,40.5,19.7,30.30,WNW,292,2.9,11.6,43,0.00,,SKC,0.00,VWS V14.01,2013-03-13 00:50:00,
2013-03-12 19:51:00,40.5,19.2,30.30,SW,225,3.4,13.4,42,0.00,,SKC,0.00,VWS V14.01,2013-03-13 00:51:00,
2013-03-12 19:52:00,40.5,19.2,30.30,SSW,202,2.7,10.7,42,0.00,,SKC,0.00,VWS V14.01,2013-03-13 00:52:00,
2013-03-12 19:53:00,40.5,19.2,30.30,NW,315,7.6,30.4,42,0.00,,SKC,0.00,VWS V14.01,2013-03-13 00:53:00,
2013-03-12 19:54:00,40.3,19.0,30.30,WNW,292,2.5,9.8,42,0.00,,SKC,0.00,VWS V14.01,2013-03-13 00:54:00,
2013-03-12 19:55:00,40.3,19.0,30.30,SSW,202,6.3,25.1,42,0.00,,SKC,0.00,VWS V14.01,2013-03-13 00:55:00,
2013-03-12 19:56:00,40.3,19.0,30.30,NW,315,8.7,34.9,42,0.00,,SKC,0.00,VWS V14.01,2013-03-13 00:56:00,
2013-03-12 19:57:00,40.3,19.0,30.30,WNW,292,2.0,8.1,42,0.00,,SKC,0.00,VWS V14.01,2013-03-13 00:57:00,
2013-03-12 19:58:00,40.1,18.9,30.30,WSW,248,3.6,14.3,42,0.00,,SKC,0.00,VWS V14.01,2013-03-13 00:58:00,
2013-03-12 19:59:00,40.1,18.9,30.30,WSW,248,2.9,11.6,42,0.00,,SKC,0.00,VWS V14.01,2013-03-13 00:59:00,
2013-03-12 20:00:00,40.1,18.9,30.30,WSW,248,3.1,12.5,42,0.00,,SKC,0.00,VWS V14.01,2013-03-13 01:00:00,
2013-03-12 20:01:00,39.9,18.7,30.30,WSW,248,4.7,18.8,42,0.00,,SKC,0.00,VWS V14.01,2013-03-13 01:01:00,
2013-03-12 20:02:00,39.9,18.7,30.30,South,180,2.5,9.8,42,0.00,,SKC,0.00,VWS V14.01,2013-03-13 01:02:00,
2013-03-12 20:03:00,39.9,18.7,30.30,WSW,248,2.0,8.1,42,0.00,,SKC,0.00,VWS V14.01,2013-03-13 01:03:00,
2013-03-12 20:04:00,39.9,18.7,30.30,West,270,2.7,10.7,42,0.00,,SKC,0.00,VWS V14.01,2013-03-13 01:04:00,
2013-03-12 20:05:00,39.7,18.5,30.30,WNW,292,7.8,31.3,42,0.00,,SKC,0.00,VWS V14.01,2013-03-13 01:05:00,
2013-03-12 20:06:00,39.7,18.5,30.30,WSW,248,3.4,13.4,42,0.00,,SKC,0.00,VWS V14.01,2013-03-13 01:06:00,
2013-03-12 20:07:00,39.9,18.7,30.30,NW,315,5.8,23.3,42,0.00,,SKC,0.00,VWS V14.01,2013-03-13 01:07:00,
2013-03-12 20:08:00,39.9,18.7,30.30,WNW,292,3.8,15.2,42,0.00,,SKC,0.00,VWS V14.01,2013-03-13 01:08:00,
2013-03-12 20:09:00,39.7,18.5,30.30,East,90,6.0,24.2,42,0.00,,SKC,0.00,VWS V14.01,2013-03-13 01:09:00,
2013-03-12 20:10:00,39.7,18.5,30.30,NW,315,5.8,23.3,42,0.00,,SKC,0.00,VWS V14.01,2013-03-13 01:10:00,
2013-03-12 20:11:00,39.7,18.5,30.30,NW,315,3.8,15.2,42,0.00,,SKC,0.00,VWS V14.01,2013-03-13 01:11:00,
2013-03-12 20:12:00,39.7,18.5,30.30,NW,315,3.6,14.3,42,0.00,,SKC,0.00,VWS V14.01,2013-03-13 01:12:00,
2013-03-12 20:13:00,39.7,18.5,30.30,West,270,2.9,11.6,42,0.00,,SKC,0.00,VWS V14.01,2013-03-13 01:13:00,
2013-03-12 20:14:00,39.7,18.5,30.30,WSW,248,5.6,22.4,42,0.00,,SKC,0.00,VWS V14.01,2013-03-13 01:14:00,
2013-03-12 20:15:00,39.7,18.5,30.30,WSW,248,5.4,21.5,42,0.00,,SKC,0.00,VWS V14.01,2013-03-13 01:15:00,
2013-03-12 20:16:00,39.6,18.4,30.30,NW,315,4.0,16.1,42,0.00,,SKC,0.00,VWS V14.01,2013-03-13 01:16:00,
2013-03-12 20:17:00,39.6,18.4,30.30,WNW,292,2.7,10.7,42,0.00,,SKC,0.00,VWS V14.01,2013-03-13 01:17:00,
2013-03-12 20:18:00,39.6,18.4,30.30,WNW,292,2.7,10.7,42,0.00,,SKC,0.00,VWS V14.01,2013-03-13 01:18:00,
2013-03-12 20:19:00,39.6,18.4,30.30,West,270,2.2,9.0,42,0.00,,SKC,0.00,VWS V14.01,2013-03-13 01:19:00,
2013-03-12 20:20:00,39.2,18.0,30.30,WSW,248,2.2,9.0,42,0.00,,SKC,0.00,VWS V14.01,2013-03-13 01:20:00,
2013-03-12 20:21:00,39.2,18.0,30.30,WNW,292,5.6,22.4,42,0.00,,SKC,0.00,VWS V14.01,2013-03-13 01:21:00,
2013-03-12 20:22:00,39.2,18.0,30.30,SW,225,1.6,6.3,42,0.00,,SKC,0.00,VWS V14.01,2013-03-13 01:22:00,
2013-03-12 20:23:00,39.2,18.0,30.30,South,180,3.1,12.5,42,0.00,,SKC,0.00,VWS V14.01,2013-03-13 01:23:00,
2013-03-12 20:24:00,39.2,18.0,30.30,South,180,3.1,12.5,42,0.00,,SKC,0.00,VWS V14.01,2013-03-13 01:24:00,
2013-03-12 20:25:00,39.2,18.0,30.30,WSW,248,6.5,26.0,42,0.00,,SKC,0.00,VWS V14.01,2013-03-13 01:25:00,
2013-03-12 20:26:00,39.2,18.0,30.30,WSW,248,5.8,23.3,42,0.00,,SKC,0.00,VWS V14.01,2013-03-13 01:26:00,
2013-03-12 20:27:00,39.2,18.0,30.30,WSW,248,5.8,23.3,42,0.00,,SKC,0.00,VWS V14.01,2013-03-13 01:27:00,
2013-03-12 20:28:00,39.2,18.0,30.30,North,0,4.3,17.0,42,0.00,,SKC,0.00,VWS V14.01,2013-03-13 01:28:00,
2013-03-12 20:29:00,39.2,18.0,30.30,SSW,202,3.1,12.5,42,0.00,,SKC,0.00,VWS V14.01,2013-03-13 01:29:00,
2013-03-12 20:30:00,39.2,18.0,30.30,SSW,202,2.2,9.0,42,0.00,,SKC,0.00,VWS V14.01,2013-03-13 01:30:00,
2013-03-12 20:31:00,39.0,18.4,30.30,NW,315,1.6,6.3,43,0.00,,SKC,0.00,VWS V14.01,2013-03-13 01:31:00,
2013-03-12 20:32:00,39.0,18.4,30.33,SW,225,3.6,14.3,43,0.00,,SKC,0.00,VWS V14.01,2013-03-13 01:32:00,
2013-03-12 20:33:00,39.0,18.4,30.33,West,270,1.6,6.3,43,0.00,,SKC,0.00,VWS V14.01,2013-03-13 01:33:00,
2013-03-12 20:34:00,38.8,18.3,30.33,North,0,5.8,23.3,43,0.00,,SKC,0.00,VWS V14.01,2013-03-13 01:34:00,
2013-03-12 20:35:00,38.8,18.3,30.33,WNW,292,2.5,9.8,43,0.00,,SKC,0.00,VWS V14.01,2013-03-13 01:35:00,
2013-03-12 20:36:00,38.8,17.7,30.33,NW,315,3.1,12.5,42,0.00,,SKC,0.00,VWS V14.01,2013-03-13 01:36:00,
2013-03-12 20:37:00,38.8,18.3,30.33,West,270,2.5,9.8,43,0.00,,SKC,0.00,VWS V14.01,2013-03-13 01:37:00,
2013-03-12 20:38:00,38.8,18.3,30.33,WSW,248,3.1,12.5,43,0.00,,SKC,0.00,VWS V14.01,2013-03-13 01:38:00,
2013-03-12 20:39:00,38.8,18.3,30.33,WSW,248,3.1,12.5,43,0.00,,SKC,0.00,VWS V14.01,2013-03-13 01:39:00,
2013-03-12 20:40:00,38.7,18.1,30.33,SW,225,2.5,9.8,43,0.00,,SKC,0.00,VWS V14.01,2013-03-13 01:40:00,
2013-03-12 20:41:00,38.7,18.1,30.33,West,270,2.7,10.7,43,0.00,,SKC,0.00,VWS V14.01,2013-03-13 01:41:00,
2013-03-12 20:42:00,38.7,18.1,30.33,West,270,1.3,5.4,43,0.00,,SKC,0.00,VWS V14.01,2013-03-13 01:42:00,
2013-03-12 20:43:00,38.7,18.1,30.33,SSW,202,2.5,9.8,43,0.00,,SKC,0.00,VWS V14.01,2013-03-13 01:43:00,
2013-03-12 20:44:00,38.7,18.1,30.33,WSW,248,5.8,23.3,43,0.00,,SKC,0.00,VWS V14.01,2013-03-13 01:44:00,
2013-03-12 20:45:00,38.7,18.1,30.33,WSW,248,3.4,13.4,43,0.00,,SKC,0.00,VWS V14.01,2013-03-13 01:45:00,
2013-03-12 20:46:00,38.7,18.1,30.33,SSW,202,3.1,12.5,43,0.00,,SKC,0.00,VWS V14.01,2013-03-13 01:46:00,
2013-03-12 20:47:00,38.7,18.1,30.33,WSW,248,2.9,11.6,43,0.00,,SKC,0.00,VWS V14.01,2013-03-13 01:47:00,
2013-03-12 20:48:00,38.5,17.9,30.30,NW,315,3.8,15.2,43,0.00,,SKC,0.00,VWS V14.01,2013-03-13 01:48:00,
2013-03-12 20:49:00,38.5,17.9,30.30,West,270,2.0,8.1,43,0.00,,SKC,0.00,VWS V14.01,2013-03-13 01:49:00,
2013-03-12 20:50:00,38.5,17.9,30.30,West,270,3.4,13.4,43,0.00,,SKC,0.00,VWS V14.01,2013-03-13 01:50:00,
2013-03-12 20:51:00,38.5,17.9,30.30,SSW,202,2.5,9.8,43,0.00,,SKC,0.00,VWS V14.01,2013-03-13 01:51:00,
2013-03-12 20:52:00,38.5,17.9,30.30,West,270,2.7,10.7,43,0.00,,SKC,0.00,VWS V14.01,2013-03-13 01:52:00,
2013-03-12 20:53:00,38.5,17.9,30.30,West,270,3.8,15.2,43,0.00,,SKC,0.00,VWS V14.01,2013-03-13 01:53:00,
2013-03-12 20:54:00,38.5,17.9,30.30,SW,225,2.7,10.7,43,0.00,,SKC,0.00,VWS V14.01,2013-03-13 01:54:00,
2013-03-12 20:55:00,38.5,17.9,30.30,NW,315,4.7,18.8,43,0.00,,SKC,0.00,VWS V14.01,2013-03-13 01:55:00,
2013-03-12 20:56:00,38.3,17.8,30.30,SW,225,1.6,6.3,43,0.00,,SKC,0.00,VWS V14.01,2013-03-13 01:56:00,
2013-03-12 20:57:00,38.1,17.6,30.30,WNW,292,3.4,13.4,43,0.00,,SKC,0.00,VWS V14.01,2013-03-13 01:57:00,
2013-03-12 20:58:00,38.1,17.6,30.30,South,180,2.0,8.1,43,0.00,,SKC,0.00,VWS V14.01,2013-03-13 01:58:00,
2013-03-12 20:59:00,38.1,17.6,30.30,SSW,202,2.2,9.0,43,0.00,,SKC,0.00,VWS V14.01,2013-03-13 01:59:00,
2013-03-12 21:00:00,38.1,17.6,30.30,West,270,2.2,9.0,43,0.00,,SKC,0.00,VWS V14.01,2013-03-13 02:00:00,
2013-03-12 21:01:00,38.1,17.6,30.30,SSW,202,2.2,9.0,43,0.00,,SKC,0.00,VWS V14.01,2013-03-13 02:01:00,
2013-03-12 21:02:00,37.9,17.5,30.30,WSW,248,1.6,6.3,43,0.00,,SKC,0.00,VWS V14.01,2013-03-13 02:02:00,
2013-03-12 21:03:00,37.9,17.5,30.30,SW,225,3.4,13.4,43,0.00,,SKC,0.00,VWS V14.01,2013-03-13 02:03:00,
2013-03-12 21:04:00,37.9,17.5,30.30,WSW,248,4.7,18.8,43,0.00,,SKC,0.00,VWS V14.01,2013-03-13 02:04:00,
2013-03-12 21:05:00,38.1,17.6,30.30,WSW,248,5.6,22.4,43,0.00,,SKC,0.00,VWS V14.01,2013-03-13 02:05:00,
2013-03-12 21:06:00,38.1,17.6,30.30,SW,225,3.1,12.5,43,0.00,,SKC,0.00,VWS V14.01,2013-03-13 02:06:00,
2013-03-12 21:07:00,38.1,17.6,30.30,NW,315,3.6,14.3,43,0.00,,SKC,0.00,VWS V14.01,2013-03-13 02:07:00,
2013-03-12 21:08:00,38.1,17.6,30.30,WNW,292,2.0,8.1,43,0.00,,SKC,0.00,VWS V14.01,2013-03-13 02:08:00,
2013-03-12 21:09:00,37.9,17.5,30.30,North,0,2.7,10.7,43,0.00,,SKC,0.00,VWS V14.01,2013-03-13 02:09:00,
2013-03-12 21:10:00,38.1,17.6,30.30,SW,225,3.6,14.3,43,0.00,,SKC,0.00,VWS V14.01,2013-03-13 02:10:00,
2013-03-12 21:11:00,37.9,17.5,30.30,WNW,292,3.8,15.2,43,0.00,,SKC,0.00,VWS V14.01,2013-03-13 02:11:00,
2013-03-12 21:12:00,37.9,17.5,30.30,SW,225,5.6,22.4,43,0.00,,SKC,0.00,VWS V14.01,2013-03-13 02:12:00,
2013-03-12 21:13:00,37.9,17.5,30.30,NNW,338,2.5,9.8,43,0.00,,SKC,0.00,VWS V14.01,2013-03-13 02:13:00,
2013-03-12 21:14:00,37.9,17.5,30.30,WNW,292,1.6,6.3,43,0.00,,SKC,0.00,VWS V14.01,2013-03-13 02:14:00,
2013-03-12 21:15:00,38.1,17.6,30.30,WSW,248,4.7,18.8,43,0.00,,SKC,0.00,VWS V14.01,2013-03-13 02:15:00,
2013-03-12 21:16:00,38.1,17.6,30.30,SW,225,2.5,9.8,43,0.00,,SKC,0.00,VWS V14.01,2013-03-13 02:16:00,
2013-03-12 21:17:00,38.1,17.6,30.30,WNW,292,2.7,10.7,43,0.00,,SKC,0.00,VWS V14.01,2013-03-13 02:17:00,
2013-03-12 21:18:00,38.1,17.6,30.30,WSW,248,2.5,9.8,43,0.00,,SKC,0.00,VWS V14.01,2013-03-13 02:18:00,
2013-03-12 21:19:00,37.9,17.5,30.30,West,270,3.4,13.4,43,0.00,,SKC,0.00,VWS V14.01,2013-03-13 02:19:00,
2013-03-12 21:20:00,37.9,17.5,30.30,West,270,2.2,9.0,43,0.00,,SKC,0.00,VWS V14.01,2013-03-13 02:20:00,
2013-03-12 21:21:00,37.9,17.5,30.30,NW,315,2.9,11.6,43,0.00,,SKC,0.00,VWS V14.01,2013-03-13 02:21:00,
2013-03-12 21:22:00,37.9,17.5,30.30,NNW,338,4.5,17.9,43,0.00,,SKC,0.00,VWS V14.01,2013-03-13 02:22:00,
2013-03-12 21:23:00,37.9,17.5,30.30,SW,225,2.9,11.6,43,0.00,,SKC,0.00,VWS V14.01,2013-03-13 02:23:00,
2013-03-12 21:24:00,37.9,17.5,30.30,SSW,202,4.3,17.0,43,0.00,,SKC,0.00,VWS V14.01,2013-03-13 02:24:00,
2013-03-12 21:25:00,37.9,17.5,30.30,NW,315,3.1,12.5,43,0.00,,SKC,0.00,VWS V14.01,2013-03-13 02:25:00,
2013-03-12 21:26:00,37.9,17.5,30.30,WSW,248,2.7,10.7,43,0.00,,SKC,0.00,VWS V14.01,2013-03-13 02:26:00,
2013-03-12 21:27:00,37.9,17.5,30.30,West,270,3.8,15.2,43,0.00,,SKC,0.00,VWS V14.01,2013-03-13 02:27:00,
2013-03-12 21:28:00,37.8,17.3,30.30,West,270,1.3,5.4,43,0.00,,SKC,0.00,VWS V14.01,2013-03-13 02:28:00,
2013-03-12 21:29:00,37.8,17.3,30.30,West,270,3.8,15.2,43,0.00,,SKC,0.00,VWS V14.01,2013-03-13 02:29:00,
2013-03-12 21:30:00,37.8,17.3,30.30,West,270,7.4,29.5,43,0.00,,SKC,0.00,VWS V14.01,2013-03-13 02:30:00,
2013-03-12 21:31:00,37.9,17.5,30.30,SSW,202,3.1,12.5,43,0.00,,SKC,0.00,VWS V14.01,2013-03-13 02:31:00,
2013-03-12 21:32:00,37.9,17.5,30.30,WNW,292,1.3,5.4,43,0.00,,SKC,0.00,VWS V14.01,2013-03-13 02:32:00,
2013-03-12 21:33:00,37.8,17.3,30.30,North,0,2.9,11.6,43,0.00,,SKC,0.00,VWS V14.01,2013-03-13 02:33:00,
2013-03-12 21:34:00,37.8,17.3,30.30,WSW,248,2.9,11.6,43,0.00,,SKC,0.00,VWS V14.01,2013-03-13 02:34:00,
2013-03-12 21:35:00,37.8,17.3,30.30,NW,315,2.5,9.8,43,0.00,,SKC,0.00,VWS V14.01,2013-03-13 02:35:00,
2013-03-12 21:36:00,37.6,17.1,30.30,SSW,202,2.5,9.8,43,0.00,,SKC,0.00,VWS V14.01,2013-03-13 02:36:00,
2013-03-12 21:37:00,37.6,17.1,30.30,WSW,248,2.0,8.1,43,0.00,,SKC,0.00,VWS V14.01,2013-03-13 02:37:00,
2013-03-12 21:38:00,37.6,17.1,30.30,WNW,292,2.7,10.7,43,0.00,,SKC,0.00,VWS V14.01,2013-03-13 02:38:00,
2013-03-12 21:39:00,37.6,17.1,30.30,WSW,248,2.9,11.6,43,0.00,,SKC,0.00,VWS V14.01,2013-03-13 02:39:00,
2013-03-12 21:40:00,37.6,17.1,30.30,NNW,338,2.5,9.8,43,0.00,,SKC,0.00,VWS V14.01,2013-03-13 02:40:00,
2013-03-12 21:41:00,37.6,17.1,30.30,West,270,3.1,12.5,43,0.00,,SKC,0.00,VWS V14.01,2013-03-13 02:41:00,
2013-03-12 21:42:00,37.6,17.1,30.30,WSW,248,2.5,9.8,43,0.00,,SKC,0.00,VWS V14.01,2013-03-13 02:42:00,
2013-03-12 21:43:00,37.6,17.1,30.30,WSW,248,2.5,9.8,43,0.00,,SKC,0.00,VWS V14.01,2013-03-13 02:43:00,
2013-03-12 21:44:00,37.6,17.1,30.30,WSW,248,2.5,9.8,43,0.00,,SKC,0.00,VWS V14.01,2013-03-13 02:44:00,
2013-03-12 21:45:00,37.4,17.0,30.30,West,270,2.7,10.7,43,0.00,,SKC,0.00,VWS V14.01,2013-03-13 02:45:00,
2013-03-12 21:46:00,37.4,17.0,30.30,NW,315,3.1,12.5,43,0.00,,SKC,0.00,VWS V14.01,2013-03-13 02:46:00,
2013-03-12 21:47:00,37.4,17.0,30.27,NW,315,2.5,9.8,43,0.00,,SKC,0.00,VWS V14.01,2013-03-13 02:47:00,
2013-03-12 21:48:00,37.4,17.0,30.27,WNW,292,2.9,11.6,43,0.00,,SKC,0.00,VWS V14.01,2013-03-13 02:48:00,
2013-03-12 21:49:00,37.4,17.0,30.27,NW,315,3.1,12.5,43,0.00,,SKC,0.00,VWS V14.01,2013-03-13 02:49:00,
2013-03-12 21:50:00,37.4,17.5,30.27,West,270,4.0,16.1,44,0.00,,SKC,0.00,VWS V14.01,2013-03-13 02:50:00,
2013-03-12 21:51:00,37.4,17.5,30.27,NNW,338,2.2,9.0,44,0.00,,SKC,0.00,VWS V14.01,2013-03-13 02:51:00,
2013-03-12 21:52:00,37.4,17.5,30.27,SW,225,5.8,23.3,44,0.00,,SKC,0.00,VWS V14.01,2013-03-13 02:52:00,
2013-03-12 21:53:00,37.4,17.5,30.27,WSW,248,4.5,17.9,44,0.00,,SKC,0.00,VWS V14.01,2013-03-13 02:53:00,
2013-03-12 21:54:00,37.4,17.5,30.27,WSW,248,4.5,17.9,44,0.00,,SKC,0.00,VWS V14.01,2013-03-13 02:54:00,
2013-03-12 21:55:00,37.4,17.5,30.27,SW,225,2.9,11.6,44,0.00,,SKC,0.00,VWS V14.01,2013-03-13 02:55:00,
2013-03-12 21:56:00,37.4,17.5,30.27,West,270,2.7,10.7,44,0.00,,SKC,0.00,VWS V14.01,2013-03-13 02:56:00,
2013-03-12 21:58:00,37.4,17.5,30.27,SSW,202,5.8,23.3,44,0.00,,SKC,0.00,VWS V14.01,2013-03-13 02:58:00,
2013-03-12 21:59:00,37.4,17.5,30.27,SW,225,1.6,6.3,44,0.00,,SKC,0.00,VWS V14.01,2013-03-13 02:59:00,
2013-03-12 22:00:00,37.4,17.5,30.27,WSW,248,2.0,8.1,44,0.00,,SKC,0.00,VWS V14.01,2013-03-13 03:00:00,
2013-03-12 22:01:00,37.2,17.3,30.27,NE,45,2.5,9.8,44,0.00,,SKC,0.00,VWS V14.01,2013-03-13 03:01:00,
2013-03-12 22:02:00,37.2,17.9,30.30,WSW,248,2.7,10.7,45,0.00,,SKC,0.00,VWS V14.01,2013-03-13 03:02:00,
2013-03-12 22:03:00,37.2,17.3,30.30,WNW,292,4.0,16.1,44,0.00,,SKC,0.00,VWS V14.01,2013-03-13 03:03:00,
2013-03-12 22:04:00,37.2,17.9,30.30,NNW,338,2.9,11.6,45,0.00,,SKC,0.00,VWS V14.01,2013-03-13 03:04:00,
2013-03-12 22:06:00,37.2,17.9,30.30,NNW,338,3.8,15.2,45,0.00,,SKC,0.00,VWS V14.01,2013-03-13 03:06:00,
2013-03-12 22:07:00,37.2,17.9,30.30,NW,315,2.5,9.8,45,0.00,,SKC,0.00,VWS V14.01,2013-03-13 03:07:00,
2013-03-12 22:08:00,37.0,17.7,30.30,WNW,292,3.1,12.5,45,0.00,,SKC,0.00,VWS V14.01,2013-03-13 03:08:00,
2013-03-12 22:09:00,37.0,17.7,30.30,NNW,338,3.4,13.4,45,0.00,,SKC,0.00,VWS V14.01,2013-03-13 03:09:00,
2013-03-12 22:10:00,37.0,17.7,30.30,WSW,248,1.1,4.5,45,0.00,,SKC,0.00,VWS V14.01,2013-03-13 03:10:00,
2013-03-12 22:11:00,37.0,17.7,30.30,West,270,3.4,13.4,45,0.00,,SKC,0.00,VWS V14.01,2013-03-13 03:11:00,
2013-03-12 22:12:00,37.0,17.7,30.30,WSW,248,6.0,24.2,45,0.00,,SKC,0.00,VWS V14.01,2013-03-13 03:12:00,
2013-03-12 22:13:00,37.0,17.7,30.30,WSW,248,3.1,12.5,45,0.00,,SKC,0.00,VWS V14.01,2013-03-13 03:13:00,
2013-03-12 22:14:00,37.0,17.7,30.30,SSW,202,2.7,10.7,45,0.00,,SKC,0.00,VWS V14.01,2013-03-13 03:14:00,
2013-03-12 22:15:00,37.0,18.2,30.30,East,90,2.0,8.1,46,0.00,,SKC,0.00,VWS V14.01,2013-03-13 03:15:00,
2013-03-12 22:16:00,36.9,18.0,30.30,NNE,22,2.2,9.0,46,0.00,,SKC,0.00,VWS V14.01,2013-03-13 03:16:00,
2013-03-12 22:17:00,36.9,18.0,30.30,WNW,292,3.6,14.3,46,0.00,,SKC,0.00,VWS V14.01,2013-03-13 03:17:00,
2013-03-12 22:18:00,36.9,18.0,30.30,West,270,2.7,10.7,46,0.00,,SKC,0.00,VWS V14.01,2013-03-13 03:18:00,
2013-03-12 22:19:00,36.9,18.0,30.30,SSW,202,5.4,21.5,46,0.00,,SKC,0.00,VWS V14.01,2013-03-13 03:19:00,
2013-03-12 22:20:00,37.0,18.7,30.30,NE,45,3.6,14.3,47,0.00,,SKC,0.00,VWS V14.01,2013-03-13 03:20:00,
2013-03-12 22:21:00,37.0,18.7,30.30,SW,225,2.5,9.8,47,0.00,,SKC,0.00,VWS V14.01,2013-03-13 03:21:00,
2013-03-12 22:22:00,37.0,18.7,30.30,NW,315,3.6,14.3,47,0.00,,SKC,0.00,VWS V14.01,2013-03-13 03:22:00,
2013-03-12 22:23:00,37.0,18.7,30.30,West,270,3.1,12.5,47,0.00,,SKC,0.00,VWS V14.01,2013-03-13 03:23:00,
2013-03-12 22:24:00,37.0,18.7,30.30,SW,225,4.3,17.0,47,0.00,,SKC,0.00,VWS V14.01,2013-03-13 03:24:00,
2013-03-12 22:25:00,36.9,18.5,30.30,SW,225,3.8,15.2,47,0.00,,SKC,0.00,VWS V14.01,2013-03-13 03:25:00,
2013-03-12 22:26:00,36.9,18.5,30.30,SSW,202,4.9,19.7,47,0.00,,SKC,0.00,VWS V14.01,2013-03-13 03:26:00,
2013-03-12 22:27:00,36.9,18.5,30.30,WSW,248,7.6,30.4,47,0.00,,SKC,0.00,VWS V14.01,2013-03-13 03:27:00,
2013-03-12 22:28:00,36.9,18.5,30.30,West,270,2.7,10.7,47,0.00,,SKC,0.00,VWS V14.01,2013-03-13 03:28:00,
2013-03-12 22:29:00,36.9,18.5,30.30,WSW,248,2.5,9.8,47,0.00,,SKC,0.00,VWS V14.01,2013-03-13 03:29:00,
2013-03-12 22:30:00,36.9,18.5,30.30,SW,225,2.0,8.1,47,0.00,,SKC,0.00,VWS V14.01,2013-03-13 03:30:00,
2013-03-12 22:31:00,36.9,18.5,30.30,SW,225,2.0,8.1,47,0.00,,SKC,0.00,VWS V14.01,2013-03-13 03:31:00,
2013-03-12 22:32:00,36.7,18.9,30.30,NW,315,1.3,5.4,48,0.00,,SKC,0.00,VWS V14.01,2013-03-13 03:32:00,
2013-03-12 22:33:00,36.7,18.9,30.30,WNW,292,1.6,6.3,48,0.00,,SKC,0.00,VWS V14.01,2013-03-13 03:33:00,
2013-03-12 22:34:00,36.7,18.9,30.30,NNW,338,1.6,6.3,48,0.00,,SKC,0.00,VWS V14.01,2013-03-13 03:34:00,
2013-03-12 22:35:00,36.7,18.9,30.30,SSW,202,4.3,17.0,48,0.00,,SKC,0.00,VWS V14.01,2013-03-13 03:35:00,
2013-03-12 22:36:00,36.7,18.9,30.30,SW,225,2.9,11.6,48,0.00,,SKC,0.00,VWS V14.01,2013-03-13 03:36:00,
2013-03-12 22:38:00,36.9,19.0,30.30,WNW,292,5.8,23.3,48,0.00,,SKC,0.00,VWS V14.01,2013-03-13 03:38:00,
2013-03-12 22:39:00,36.9,19.0,30.30,NNW,338,4.9,19.7,48,0.00,,SKC,0.00,VWS V14.01,2013-03-13 03:39:00,
2013-03-12 22:40:00,36.9,19.0,30.30,WNW,292,4.9,19.7,48,0.00,,SKC,0.00,VWS V14.01,2013-03-13 03:40:00,
2013-03-12 22:41:00,36.9,19.0,30.30,WSW,248,3.6,14.3,48,0.00,,SKC,0.00,VWS V14.01,2013-03-13 03:41:00,
2013-03-12 22:42:00,36.9,19.5,30.30,WSW,248,1.6,6.3,49,0.00,,SKC,0.00,VWS V14.01,2013-03-13 03:42:00,
2013-03-12 22:43:00,36.9,19.5,30.30,WSW,248,1.6,6.3,49,0.00,,SKC,0.00,VWS V14.01,2013-03-13 03:43:00,
2013-03-12 22:44:00,36.9,19.5,30.30,West,270,3.4,13.4,49,0.00,,SKC,0.00,VWS V14.01,2013-03-13 03:44:00,
2013-03-12 22:45:00,36.9,19.5,30.30,WNW,292,4.9,19.7,49,0.00,,SKC,0.00,VWS V14.01,2013-03-13 03:45:00,
2013-03-12 22:46:00,36.9,19.5,30.30,WNW,292,7.6,30.4,49,0.00,,SKC,0.00,VWS V14.01,2013-03-13 03:46:00,
2013-03-12 22:47:00,36.9,19.5,30.33,NNE,22,6.7,26.9,49,0.00,,SKC,0.00,VWS V14.01,2013-03-13 03:47:00,
2013-03-12 22:48:00,36.9,19.5,30.33,WSW,248,5.4,21.5,49,0.00,,SKC,0.00,VWS V14.01,2013-03-13 03:48:00,
2013-03-12 22:49:00,36.9,19.5,30.33,WSW,248,5.4,21.5,49,0.00,,SKC,0.00,VWS V14.01,2013-03-13 03:49:00,
2013-03-12 22:50:00,36.9,19.5,30.33,WNW,292,5.4,21.5,49,0.00,,SKC,0.00,VWS V14.01,2013-03-13 03:50:00,
2013-03-12 22:51:00,36.9,19.5,30.33,SW,225,4.0,16.1,49,0.00,,SKC,0.00,VWS V14.01,2013-03-13 03:51:00,
2013-03-12 22:52:00,36.9,19.5,30.33,WSW,248,8.7,34.9,49,0.00,,SKC,0.00,VWS V14.01,2013-03-13 03:52:00,
2013-03-12 22:53:00,36.9,19.5,30.33,SSW,202,2.9,11.6,49,0.00,,SKC,0.00,VWS V14.01,2013-03-13 03:53:00,
2013-03-12 22:54:00,36.9,19.5,30.33,SSW,202,3.4,13.4,49,0.00,,SKC,0.00,VWS V14.01,2013-03-13 03:54:00,
2013-03-12 22:55:00,36.7,19.3,30.33,SSE,158,2.0,8.1,49,0.00,,SKC,0.00,VWS V14.01,2013-03-13 03:55:00,
2013-03-12 22:56:00,36.7,19.3,30.33,ESE,112,2.5,9.8,49,0.00,,SKC,0.00,VWS V14.01,2013-03-13 03:56:00,
2013-03-12 22:57:00,36.7,19.3,30.33,NNE,22,2.5,9.8,49,0.00,,SKC,0.00,VWS V14.01,2013-03-13 03:57:00,
2013-03-12 22:58:00,36.7,19.3,30.33,NW,315,4.9,19.7,49,0.00,,SKC,0.00,VWS V14.01,2013-03-13 03:58:00,
2013-03-12 22:59:00,36.7,19.3,30.33,North,0,2.5,9.8,49,0.00,,SKC,0.00,VWS V14.01,2013-03-13 03:59:00,
2013-03-12 23:00:00,36.5,19.6,30.33,SSW,202,3.1,12.5,50,0.00,,SKC,0.00,VWS V14.01,2013-03-13 04:00:00,
2013-03-12 23:01:00,36.3,19.5,30.33,West,270,5.8,23.3,50,0.00,,SKC,0.00,VWS V14.01,2013-03-13 04:01:00,
2013-03-12 23:02:00,36.5,19.6,30.33,West,270,2.7,10.7,50,0.00,,SKC,0.00,VWS V14.01,2013-03-13 04:02:00,
2013-03-12 23:03:00,36.5,19.6,30.33,NNW,338,5.4,21.5,50,0.00,,SKC,0.00,VWS V14.01,2013-03-13 04:03:00,
2013-03-12 23:04:00,36.3,19.5,30.33,NW,315,7.8,31.3,50,0.00,,SKC,0.00,VWS V14.01,2013-03-13 04:04:00,
2013-03-12 23:05:00,36.3,19.5,30.33,NW,315,7.8,31.3,50,0.00,,SKC,0.00,VWS V14.01,2013-03-13 04:05:00,
2013-03-12 23:06:00,36.5,19.2,30.33,WSW,248,3.8,15.2,49,0.00,,SKC,0.00,VWS V14.01,2013-03-13 04:06:00,
2013-03-12 23:07:00,36.3,19.0,30.33,North,0,4.3,17.0,49,0.00,,SKC,0.00,VWS V14.01,2013-03-13 04:07:00,
2013-03-12 23:08:00,36.3,19.0,30.33,SW,225,5.4,21.5,49,0.00,,SKC,0.00,VWS V14.01,2013-03-13 04:08:00,
2013-03-12 23:09:00,36.3,19.0,30.33,NE,45,3.8,15.2,49,0.00,,SKC,0.00,VWS V14.01,2013-03-13 04:09:00,
2013-03-12 23:10:00,36.3,19.0,30.33,South,180,4.7,18.8,49,0.00,,SKC,0.00,VWS V14.01,2013-03-13 04:10:00,
2013-03-12 23:11:00,36.3,19.0,30.33,SE,135,3.4,13.4,49,0.00,,SKC,0.00,VWS V14.01,2013-03-13 04:11:00,
2013-03-12 23:12:00,36.3,19.0,30.33,WSW,248,2.9,11.6,49,0.00,,SKC,0.00,VWS V14.01,2013-03-13 04:12:00,
2013-03-12 23:13:00,36.3,19.0,30.33,East,90,1.1,4.5,49,0.00,,SKC,0.00,VWS V14.01,2013-03-13 04:13:00,
2013-03-12 23:14:00,36.3,19.0,30.33,SW,225,3.1,12.5,49,0.00,,SKC,0.00,VWS V14.01,2013-03-13 04:14:00,
2013-03-12 23:15:00,36.3,19.0,30.33,SW,225,3.8,15.2,49,0.00,,SKC,0.00,VWS V14.01,2013-03-13 04:15:00,
2013-03-12 23:16:00,36.3,19.0,30.33,West,270,3.6,14.3,49,0.00,,SKC,0.00,VWS V14.01,2013-03-13 04:16:00,
2013-03-12 23:17:00,36.3,19.0,30.33,West,270,3.6,14.3,49,0.00,,SKC,0.00,VWS V14.01,2013-03-13 04:17:00,
2013-03-12 23:18:00,36.3,19.0,30.33,SW,225,4.0,16.1,49,0.00,,SKC,0.00,VWS V14.01,2013-03-13 04:18:00,
2013-03-12 23:19:00,36.3,19.0,30.33,NNE,22,6.5,26.0,49,0.00,,SKC,0.00,VWS V14.01,2013-03-13 04:19:00,
2013-03-12 23:20:00,36.3,18.5,30.33,West,270,3.6,14.3,48,0.00,,SKC,0.00,VWS V14.01,2013-03-13 04:20:00,
2013-03-12 23:21:00,36.3,18.5,30.33,WSW,248,3.1,12.5,48,0.00,,SKC,0.00,VWS V14.01,2013-03-13 04:21:00,
2013-03-12 23:22:00,36.3,18.5,30.33,WNW,292,4.3,17.0,48,0.00,,SKC,0.00,VWS V14.01,2013-03-13 04:22:00,
2013-03-12 23:23:00,36.5,18.7,30.33,SSW,202,4.3,17.0,48,0.00,,SKC,0.00,VWS V14.01,2013-03-13 04:23:00,
2013-03-12 23:24:00,36.5,18.7,30.33,WSW,248,1.6,6.3,48,0.00,,SKC,0.00,VWS V14.01,2013-03-13 04:24:00,
2013-03-12 23:25:00,36.5,18.7,30.33,West,270,4.9,19.7,48,0.00,,SKC,0.00,VWS V14.01,2013-03-13 04:25:00,
2013-03-12 23:26:00,36.5,18.7,30.33,SW,225,10.5,42.1,48,0.00,,SKC,0.00,VWS V14.01,2013-03-13 04:26:00,
2013-03-12 23:27:00,36.5,18.7,30.33,SW,225,3.8,15.2,48,0.00,,SKC,0.00,VWS V14.01,2013-03-13 04:27:00,
2013-03-12 23:28:00,36.5,18.7,30.33,SW,225,2.9,11.6,48,0.00,,SKC,0.00,VWS V14.01,2013-03-13 04:28:00,
2013-03-12 23:29:00,36.5,18.7,30.33,NW,315,2.0,8.1,48,0.00,,SKC,0.00,VWS V14.01,2013-03-13 04:29:00,
2013-03-12 23:30:00,36.5,18.7,30.33,NW,315,2.0,8.1,48,0.00,,SKC,0.00,VWS V14.01,2013-03-13 04:30:00,
2013-03-12 23:31:00,36.5,18.7,30.33,SSW,202,3.4,13.4,48,0.00,,SKC,0.00,VWS V14.01,2013-03-13 04:31:00,
2013-03-12 23:32:00,36.5,18.7,30.33,SW,225,2.5,9.8,48,0.00,,SKC,0.00,VWS V14.01,2013-03-13 04:32:00,
2013-03-12 23:34:00,36.5,18.2,30.33,WSW,248,3.1,12.5,47,0.00,,SKC,0.00,VWS V14.01,2013-03-13 04:34:00,
2013-03-12 23:35:00,36.5,18.2,30.33,NNW,338,2.9,11.6,47,0.00,,SKC,0.00,VWS V14.01,2013-03-13 04:35:00,
2013-03-12 23:36:00,36.5,18.2,30.33,ESE,112,5.4,21.5,47,0.00,,SKC,0.00,VWS V14.01,2013-03-13 04:36:00,
2013-03-12 23:37:00,36.5,18.2,30.33,West,270,3.8,15.2,47,0.00,,SKC,0.00,VWS V14.01,2013-03-13 04:37:00,
2013-03-12 23:38:00,36.5,18.2,30.33,SW,225,3.1,12.5,47,0.00,,SKC,0.00,VWS V14.01,2013-03-13 04:38:00,
2013-03-12 23:39:00,36.5,18.2,30.33,West,270,3.8,15.2,47,0.00,,SKC,0.00,VWS V14.01,2013-03-13 04:39:00,
2013-03-12 23:40:00,36.5,18.2,30.33,NNE,22,3.8,15.2,47,0.00,,SKC,0.00,VWS V14.01,2013-03-13 04:40:00,
2013-03-12 23:41:00,36.5,18.2,30.33,West,270,2.7,10.7,47,0.00,,SKC,0.00,VWS V14.01,2013-03-13 04:41:00,
2013-03-12 23:42:00,36.3,18.0,30.33,West,270,2.7,10.7,47,0.00,,SKC,0.00,VWS V14.01,2013-03-13 04:42:00,
2013-03-12 23:44:00,36.3,18.0,30.33,SW,225,6.5,26.0,47,0.00,,SKC,0.00,VWS V14.01,2013-03-13 04:44:00,
2013-03-12 23:45:00,36.3,18.0,30.33,NW,315,4.9,19.7,47,0.00,,SKC,0.00,VWS V14.01,2013-03-13 04:45:00,
2013-03-12 23:46:00,36.3,18.0,30.33,NE,45,0.9,3.6,47,0.00,,SKC,0.00,VWS V14.01,2013-03-13 04:46:00,
2013-03-12 23:47:00,36.3,18.0,30.36,West,270,2.7,10.7,47,0.00,,SKC,0.00,VWS V14.01,2013-03-13 04:47:00,
2013-03-12 23:48:00,36.3,18.0,30.36,WSW,248,7.4,29.5,47,0.00,,SKC,0.00,VWS V14.01,2013-03-13 04:48:00,
2013-03-12 23:49:00,36.3,18.0,30.36,WNW,292,10.7,43.0,47,0.00,,SKC,0.00,VWS V14.01,2013-03-13 04:49:00,
2013-03-12 23:50:00,36.3,17.5,30.36,West,270,4.3,17.0,46,0.00,,SKC,0.00,VWS V14.01,2013-03-13 04:50:00,
2013-03-12 23:51:00,36.1,17.4,30.36,West,270,1.6,6.3,46,0.00,,SKC,0.00,VWS V14.01,2013-03-13 04:51:00,
2013-03-12 23:52:00,36.1,17.4,30.36,North,0,2.9,11.6,46,0.00,,SKC,0.00,VWS V14.01,2013-03-13 04:52:00,
2013-03-12 23:53:00,36.1,17.4,30.36,South,180,7.6,30.4,46,0.00,,SKC,0.00,VWS V14.01,2013-03-13 04:53:00,
2013-03-12 23:54:00,36.1,17.4,30.36,WNW,292,7.2,28.6,46,0.00,,SKC,0.00,VWS V14.01,2013-03-13 04:54:00,
2013-03-12 23:55:00,36.1,17.4,30.36,WNW,292,7.2,28.6,46,0.00,,SKC,0.00,VWS V14.01,2013-03-13 04:55:00,
2013-03-12 23:56:00,36.1,17.4,30.36,SSW,202,3.6,14.3,46,0.00,,SKC,0.00,VWS V14.01,2013-03-13 04:56:00,
2013-03-12 23:57:00,36.1,17.4,30.36,SSW,202,4.0,16.1,46,0.00,,SKC,0.00,VWS V14.01,2013-03-13 04:57:00,
2013-03-12 23:58:00,36.1,17.4,30.36,WNW,292,3.1,12.5,46,0.00,,SKC,0.00,VWS V14.01,2013-03-13 04:58:00,
2013-03-12 23:59:00,36.0,16.7,30.36,SW,225,4.3,17.0,45,0.00,,SKC,0.00,VWS V14.01,2013-03-13 04:59:00,